[[{"header":{"parameterUnit":"m.s-1","parameterCategory":1,"la1":30.6,"la2":28.766,"lo1":-90.7593,"lo2":-88.6598,"dy":0.0162,"dx":0.0183,"nx":116,"ny":114,"refTime":"2024-04-07T00:00:00:Z","depth":0,"parameterNumber":2,"parameterNumberName":"U-component_of_WINDS"},"data":[0.0,0.0,0.0,0.0,0.0,0.0,0.0,0.0,0.0,0.0,0.0,0.0,0.0,0.0,0.0,0.0,0.0,0.0,0.0,0.0,0.0,0.0,0.0,0.0,0.0,0.0,0.0,0.0,0.0,0.0,0.0,0.0,0.0,0.0,0.0,0.0,0.0,0.0,0.0,0.0,0.0,0.0,0.0,0.0,0.0,0.0,0.0,0.0,0.0,0.0,0.0,0.0,0.0,0.0,0.0,0.0,0.0,0.0,0.0,0.0,0.0,0.0,0.0,0.0,0.0,0.0,0.0,0.0,0.0,0.0,0.0,0.0,0.0,0.0,0.0,0.0,0.0,0.0,0.0,0.0,0.0,0.0,0.0,0.0,0.0,0.0,0.0,0.0,0.0,0.0,0.0,0.0,0.0,0.0,0.0,0.0,0.0,0.0,0.0,0.0,0.0,0.0,0.0,0.0,0.0,0.0,0.0,0.0,0.0,0.0,0.0,0.0,0.0,0.0,0.0,0.0,0.0,0.0,0.0,0.0,0.0,0.0,0.0,0.0,0.0,0.0,0.0,0.0,0.0,0.0,0.0,0.0,0.0,0.0,0.0,0.0,0.0,0.0,0.0,0.0,0.0,0.0,0.0,0.0,0.0,0.0,0.0,0.0,0.0,0.0,0.0,0.0,0.0,0.0,0.0,0.0,0.0,0.0,0.0,0.0,0.0,0.0,0.0,0.0,0.0,0.0,0.0,0.0,0.0,0.0,0.0,0.0,0.0,0.0,0.0,0.0,0.0,0.0,0.0,0.0,0.0,0.0,0.0,0.0,0.0,0.0,0.0,0.0,0.0,0.0,0.0,0.0,0.0,0.0,0.0,0.0,0.0,0.0,0.0,0.0,0.0,0.0,0.0,0.0,0.0,0.0,0.0,0.0,0.0,0.0,0.0,0.0,0.0,0.0,0.0,0.0,0.0,0.0,0.0,0.0,0.0,0.0,0.0,0.0,0.0,0.0,0.0,0.0,0.0,0.0,0.0,0.0,0.0,0.0,0.0,0.0,0.0,0.0,0.0,0.0,0.0,0.0,0.0,0.0,0.0,0.0,0.0,0.0,0.0,0.0,0.0,0.0,0.0,0.0,0.0,0.0,0.0,0.0,0.0,0.0,0.0,0.0,0.0,0.0,0.0,0.0,0.0,0.0,0.0,0.0,0.0,0.0,0.0,0.0,0.0,0.0,0.0,0.0,0.0,0.0,0.0,0.0,0.0,0.0,0.0,0.0,0.0,0.0,0.0,0.0,0.0,0.0,0.0,0.0,0.0,0.0,0.0,0.0,0.0,0.0,0.0,0.0,0.0,0.0,0.0,0.0,0.0,0.0,0.0,0.0,0.0,0.0,0.0,0.0,0.0,0.0,0.0,0.0,0.0,0.0,0.0,0.0,0.0,0.0,0.0,0.0,0.0,0.0,0.0,0.0,0.0,0.0,0.0,0.0,0.0,0.0,0.0,0.0,0.0,0.0,0.0,0.0,0.0,0.0,0.0,0.0,0.0,0.0,0.0,0.0,0.0,0.0,0.0,0.0,0.0,0.0,0.0,0.0,0.0,0.0,0.0,0.0,0.0,0.0,0.0,0.0,0.0,0.0,0.0,0.0,0.0,0.0,0.0,0.0,0.0,0.0,0.0,0.0,0.0,0.0,0.0,0.0,0.0,0.0,0.0,0.0,0.0,0.0,0.0,0.0,0.0,0.0,0.0,0.0,0.0,0.0,0.0,0.0,0.0,0.0,0.0,0.0,0.0,0.0,0.0,0.0,0.0,0.0,0.0,0.0,0.0,0.0,0.0,0.0,0.0,0.0,0.0,0.0,0.0,0.0,0.0,0.0,0.0,0.0,0.0,0.0,0.0,0.0,0.0,0.0,0.0,0.0,0.0,0.0,0.0,0.0,0.0,0.0,0.0,0.0,0.0,0.0,0.0,0.0,0.0,0.0,0.0,0.0,0.0,0.0,0.0,0.0,0.0,0.0,0.0,0.0,0.0,0.0,0.0,0.0,0.0,0.0,0.0,0.0,0.0,0.0,0.0,0.0,0.0,0.0,0.0,0.0,0.0,0.0,0.0,0.0,0.0,0.0,0.0,0.0,0.0,0.0,0.0,0.0,0.0,0.0,0.0,0.0,0.0,0.0,0.0,0.0,0.0,0.0,0.0,0.0,0.0,0.0,0.0,0.0,0.0,0.0,0.0,0.0,0.0,0.0,0.0,0.0,0.0,0.0,0.0,0.0,0.0,0.0,0.0,0.0,0.0,0.0,0.0,0.0,0.0,0.0,0.0,0.0,0.0,0.0,0.0,0.0,0.0,0.0,0.0,0.0,0.0,0.0,0.0,0.0,0.0,0.0,0.0,0.0,0.0,0.0,0.0,0.0,0.0,0.0,0.0,0.0,0.0,0.0,0.0,0.0,0.0,0.0,0.0,0.0,0.0,0.0,0.0,0.0,0.0,0.0,0.0,0.0,0.0,0.0,0.0,0.0,0.0,0.0,0.0,0.0,0.0,0.0,0.0,0.0,0.0,0.0,0.0,0.0,0.0,0.0,0.0,0.0,0.0,0.0,0.0,0.0,0.0,0.0,0.0,0.0,0.0,0.0,0.0,0.0,0.0,0.0,0.0,0.0,0.0,0.0,0.0,0.0,0.0,0.0,0.0,0.0,0.0,0.0,0.0,0.0,0.0,0.0,0.0,0.0,0.0,0.0,0.0,0.0,0.0,0.0,0.0,0.0,0.0,0.0,0.0,0.0,0.0,0.0,0.0,0.0,0.0,0.0,0.0,0.0,0.0,0.0,0.0,0.0,0.0,0.0,0.0,0.0,0.0,0.0,0.0,0.0,0.0,0.0,0.0,0.0,0.0,0.0,0.0,0.0,0.0,0.0,0.0,0.0,0.0,0.0,0.0,0.0,0.0,0.0,0.0,0.0,0.0,0.0,0.0,0.0,0.0,0.0,0.0,0.0,0.0,0.0,0.0,0.0,0.0,0.0,0.0,0.0,0.0,0.0,0.0,0.0,0.0,0.0,0.0,0.0,0.0,0.0,0.0,0.0,0.0,0.0,0.0,0.0,0.0,0.0,0.0,0.0,0.0,0.0,0.0,0.0,0.0,0.0,0.0,0.0,0.0,0.0,0.0,0.0,0.0,0.0,0.0,0.0,0.0,0.0,0.0,0.0,0.0,0.0,0.0,0.0,0.0,0.0,0.0,0.0,0.0,0.0,0.0,0.0,0.0,0.0,0.0,0.0,0.0,0.0,0.0,0.0,0.0,0.0,0.0,0.0,0.0,0.0,0.0,0.0,0.0,0.0,0.0,0.0,0.0,0.0,0.0,0.0,0.0,0.0,0.0,0.0,0.0,0.0,0.0,0.0,0.0,0.0,0.0,0.0,0.0,0.0,0.0,0.0,0.0,0.0,0.0,0.0,0.0,0.0,0.0,0.0,0.0,0.0,0.0,0.0,0.0,0.0,0.0,0.0,0.0,0.0,0.0,0.0,0.0,0.0,0.0,0.0,0.0,0.0,0.0,0.0,0.0,0.0,0.0,0.0,0.0,0.0,0.0,0.0,0.0,0.0,0.0,0.0,0.0,0.0,0.0,0.0,0.0,0.0,0.0,0.0,0.0,0.0,0.0,0.0,0.0,0.0,0.0,0.0,0.0,0.0,0.0,0.0,0.0,0.0,0.0,0.0,0.0,0.0,0.0,0.0,0.0,0.0,0.0,0.0,0.0,0.0,0.0,0.0,0.0,0.0,0.0,0.0,0.0,0.0,0.0,0.0,0.0,0.0,0.0,0.0,0.0,0.0,0.0,0.0,0.0,0.0,0.0,0.0,0.0,0.0,0.0,0.0,0.0,0.0,0.0,0.0,0.0,0.0,0.0,0.0,0.0,0.0,0.0,0.0,0.0,0.0,0.0,0.0,0.0,0.0,0.0,0.0,0.0,0.0,0.0,0.0,0.0,0.0,0.0,0.0,0.0,0.0,0.0,0.0,0.0,0.0,0.0,0.0,0.0,0.0,0.0,0.0,0.0,0.0,0.0,0.0,0.0,0.0,0.0,0.0,0.0,0.0,0.0,0.0,0.0,0.0,0.0,0.0,0.0,0.0,0.0,0.0,0.0,0.0,0.0,0.0,0.0,0.0,0.0,0.0,0.0,0.0,0.0,0.0,0.0,0.0,0.0,0.0,0.0,0.0,0.0,0.0,0.0,0.0,0.0,0.0,0.0,0.0,0.0,0.0,0.0,0.0,0.0,0.0,0.0,0.0,0.0,0.0,0.0,0.0,0.0,0.0,0.0,0.0,0.0,0.0,0.0,0.0,0.0,0.0,0.0,0.0,0.0,0.0,0.0,0.0,0.0,0.0,0.0,0.0,0.0,0.0,0.0,0.0,0.0,0.0,0.0,0.0,0.0,0.0,0.0,0.0,0.0,0.0,0.0,0.0,0.0,0.0,0.0,0.0,0.0,0.0,0.0,0.0,0.0,0.0,0.0,0.0,0.0,0.0,0.0,0.0,0.0,0.0,0.0,0.0,0.0,0.0,0.0,0.0,0.0,0.0,0.0,0.0,0.0,0.0,0.0,0.0,0.0,0.0,0.0,0.0,0.0,0.0,0.0,0.0,0.0,0.0,0.0,0.0,0.0,0.0,0.0,0.0,0.0,0.0,0.0,0.0,0.0,0.0,0.0,0.0,0.0,0.0,0.0,0.0,0.0,0.0,0.0,0.0,0.0,0.0,0.0,0.0,0.0,0.0,0.0,0.0,0.0,0.0,0.0,0.0,0.0,0.0,0.0,0.0,0.0,0.0,0.0,0.0,0.0,0.0,0.0,0.0,0.0,0.0,0.0,0.0,0.0,0.0,0.0,0.0,0.0,0.0,0.0,0.0,0.0,0.0,0.0,0.0,0.0,0.0,0.0,0.0,0.0,0.0,0.0,0.0,0.0,0.0,0.0,0.0,0.0,0.0,0.0,0.0,0.0,0.0,0.0,0.0,0.0,0.0,0.0,0.0,0.0,0.0,0.0,0.0,0.0,0.0,0.0,0.0,0.0,0.0,0.0,0.0,0.0,0.0,0.0,0.0,0.0,0.0,0.0,0.0,0.0,0.0,0.0,0.0,0.0,0.0,0.0,0.0,0.0,0.0,0.0,0.0,0.0,0.0,0.0,0.0,0.0,0.0,0.0,0.0,0.0,0.0,0.0,0.0,0.0,0.0,0.0,0.0,0.0,0.0,0.0,0.0,0.0,0.0,0.0,0.0,0.0,0.0,0.0,0.0,0.0,0.0,0.0,0.0,0.0,0.0,0.0,0.0,0.0,0.0,0.0,0.0,0.0,0.0,0.0,0.0,0.0,0.0,0.0,0.0,0.0,0.0,0.0,0.0,0.0,0.0,0.0,0.0,0.0,0.0,0.0,0.0,0.0,0.0,0.0,0.0,0.0,0.0,0.0,0.0,0.0,0.0,0.0,0.0,0.0,0.0,0.0,0.0,0.0,0.0,0.0,0.0,0.0,0.0,0.0,0.0,0.0,0.0,0.0,0.0,0.0,0.0,0.0,0.0,0.0,0.0,0.0,0.0,0.0,0.0,0.0,0.0,0.0,0.0,0.0,0.0,0.0,0.0,0.0,0.0,0.0,0.0,0.0,0.0,0.0,0.0,0.0,0.0,0.0,0.0,0.0,0.0,0.0,0.0,0.0,0.0,0.0,0.0,0.0,0.0,0.0,0.0,0.0,0.0,0.0,0.0,0.0,0.0,0.0,0.0,0.0,0.0,0.0,0.0,0.0,0.0,0.0,0.0,0.0,0.0,0.0,0.0,0.0,0.0,0.0,0.0,0.0,0.0,0.0,0.0,0.0,0.0,0.0,0.0,0.0,0.0,0.0,0.0,0.0,0.0,0.0,0.0,0.0,0.0,0.0,0.0,0.0,0.0,0.0,0.0,0.0,0.0,0.0,0.0,0.0,0.0,0.0,0.0,0.0,0.0,0.0,0.0,0.0,0.0,0.0,0.0,0.0,0.0,0.0,0.0,0.0,0.0,0.0,0.0,0.0,0.0,0.0,0.0,0.0,0.0,0.0,0.0,0.8345,0.0,0.0,0.0,0.0,0.0,0.0,0.0,0.0,0.0,0.0,0.0,0.0,0.0,0.0,0.0,0.0,0.0,0.0,0.0,0.0,0.0,0.0,0.0,0.0,3.0784,3.1921,3.2259,3.2608,3.2694,3.2476,0.0,0.0,0.0,0.0,0.0,2.5399,2.3933,2.1931,1.9344,1.8933,1.7798,1.5976,1.5787,1.5903,1.6276,0.0,0.0,0.0,0.0,0.0,0.0,0.0,0.0,0.0,0.0,0.0,0.0,0.0,0.0,0.0,0.0,0.0,0.0,0.0,0.0,0.0,0.0,0.0,0.0,0.0,0.0,0.0,0.0,0.0,0.0,0.0,0.0,0.0,0.0,0.0,0.0,0.0,0.0,0.0,0.0,0.0,0.0,0.0,0.0,0.0,0.0,0.0,0.0,0.0,0.0,0.0,0.0,0.0,0.0,0.0,0.0,0.0,0.0,0.0,0.0,0.0,0.0,0.0,0.0,0.0,0.0,0.0,0.0,0.0,0.0,0.0,0.7938,0.0,0.0,0.0,0.0,0.0,0.0,0.0,0.0,0.0,0.0,0.0,0.0,0.0,0.0,0.0,0.0,0.0,0.0,0.0,0.0,0.0,2.8608,2.965,3.112,3.2357,3.316,3.3158,3.3182,3.3304,3.2763,0.0,0.0,0.0,2.6477,2.3259,2.1422,1.9394,1.7221,1.6306,1.5023,1.3282,1.2608,1.2579,1.3174,1.39,0.0,0.0,0.0,0.0,0.0,0.0,0.0,0.0,0.0,0.0,0.0,0.0,0.0,0.0,0.0,0.0,0.0,0.0,0.0,0.0,0.0,0.0,0.0,0.0,0.0,0.0,0.0,0.0,0.0,0.0,0.0,0.0,0.0,0.0,0.0,0.0,0.0,0.0,0.0,0.0,0.0,0.0,0.0,0.0,0.0,0.0,0.0,0.0,0.0,0.0,0.0,0.0,0.0,0.0,0.0,0.0,0.0,0.0,0.0,0.0,0.0,0.0,0.0,0.6975,0.6388,0.5523,0.5202,0.482,0.4673,0.5776,0.6637,0.7226,0.7503,0.0,0.0,0.0,0.0,0.0,0.0,0.0,0.0,0.0,0.0,0.0,0.0,0.0,0.0,0.0,0.0,0.0,0.0,0.0,2.9062,3.1406,3.2441,3.3336,3.4135,3.3903,3.3157,3.1881,3.0941,2.994,2.8789,2.7102,2.4656,2.1367,1.9941,1.772,1.4578,1.3348,1.2291,1.1424,1.0677,0.9656,0.8575,1.0634,1.0797,0.9573,0.0,0.0,0.0,0.0,0.0,0.0,0.0,0.0,0.0,0.0,0.0,0.0,0.0,0.0,0.0,0.0,0.0,0.0,0.0,0.0,0.0,0.0,0.0,0.0,0.0,0.0,0.0,0.0,0.0,0.0,0.0,0.0,0.0,0.0,0.0,0.0,0.0,0.0,0.0,0.0,0.0,1.0052,1.0263,0.0,0.0,0.0,0.0,0.0,0.0,0.0,0.0,0.0,0.0,0.0,0.0,0.0,0.7022,0.7823,0.7606,0.6708,0.5075,0.4492,0.4122,0.3779,0.3187,0.3074,0.3317,0.4018,0.0,0.5638,0.5916,0.0,0.0,0.0,0.0,0.0,0.0,0.0,0.0,0.0,0.0,0.0,0.0,0.0,0.0,0.0,0.0,0.0,0.0,0.0,0.0,0.0,3.1992,3.3232,3.3796,3.3309,3.2515,3.1446,2.9485,2.7732,2.6356,2.3955,2.1561,1.9198,1.7522,1.5781,1.3855,1.2192,1.1132,1.0704,0.9786,0.8835,0.7827,0.8263,0.8053,0.7366,0.7581,0.0,0.0,0.0,0.0,0.0,0.0,0.0,0.0,0.0,0.0,0.0,0.0,0.0,0.0,0.0,0.0,0.0,0.0,0.0,0.0,0.0,0.0,0.0,0.0,0.0,0.0,0.0,0.0,0.0,0.0,0.0,0.0,0.0,0.0,0.0,0.0,0.0,0.0,0.0,0.9296,0.9549,1.0019,1.0369,1.0337,0.0,0.0,0.0,0.0,0.0,0.0,0.0,0.0,0.0,0.7206,0.6341,0.5725,0.5236,0.5364,0.4758,0.3699,0.2999,0.2241,0.1463,0.1329,0.1324,0.1564,0.2385,0.2797,0.3148,0.4593,0.4962,0.4665,0.0,0.0,0.0,0.0,0.371,0.3635,0.0,0.0,0.0,0.0,0.0,0.0,0.0,0.0,0.0,0.0,0.0,0.0,3.0336,3.2172,3.3548,3.4127,3.2856,3.159,3.049,2.7339,2.4805,2.3077,2.0498,1.8351,1.6815,1.4827,1.346,1.2842,1.0979,0.9979,1.0,0.8536,0.751,0.6789,0.5866,0.5657,0.584,0.6032,0.588,0.5612,0.0,0.0,0.0,0.0,0.0,0.0,0.0,0.0,0.0,0.0,0.0,0.0,0.0,0.0,0.0,0.0,0.0,0.0,0.0,0.0,0.0,0.0,0.0,0.0,0.0,0.0,0.0,0.0,0.0,0.0,0.0,0.0,0.0,0.0,0.0,0.0,0.0,0.8877,0.8998,0.975,0.9808,0.965,0.0,0.0,0.0,0.0,0.0,0.0,0.764,0.7016,0.6332,0.5571,0.5368,0.4668,0.3328,0.3495,0.298,0.2178,0.141,0.0381,-0.0878,-0.0372,-0.0246,-0.0245,0.0605,0.0963,0.0956,0.3339,0.4132,0.3923,0.3414,0.3218,0.3243,0.3021,0.3043,0.2943,0.0,0.0,0.0,0.0,0.0,0.0,0.0,0.0,0.0,0.0,0.0,2.9652,3.3448,3.4135,3.4889,3.6222,3.3269,3.0422,2.8207,2.396,2.0682,1.8789,1.7033,1.5401,1.3934,1.1793,1.066,1.0439,0.8759,0.8139,0.8544,0.6288,0.4593,0.3591,0.2962,0.3523,0.49,0.4789,0.4579,0.4289,0.3539,0.0,0.0,0.0,0.0,0.0,0.0,0.0,0.0,0.0,0.0,0.0,0.0,0.0,0.0,0.0,0.0,0.0,0.0,0.0,0.0,0.0,0.0,0.0,0.0,0.0,0.0,0.0,0.0,0.0,0.0,0.0,0.0,0.0,0.0,0.0,0.0,0.0,0.0,0.9226,0.892,0.0,0.0,0.0,0.0,0.8008,0.7802,0.7554,0.739,0.6307,0.5755,0.5741,0.4757,0.3965,0.362,0.2685,0.1343,-0.0537,-0.0805,-0.1598,-0.276,-0.197,-0.1824,-0.2057,-0.1284,-0.0891,-0.0251,0.2274,0.3086,0.2848,0.2,0.204,0.2339,0.1821,0.1187,0.0536,0.0,0.0,0.0,0.0,0.0,2.4008,2.4062,2.4139,2.4648,2.5898,2.6561,2.777,3.0072,3.1506,3.2539,3.2964,3.0861,2.8597,2.6557,2.2587,1.9529,1.7843,1.588,1.4179,1.2795,1.0628,0.9708,1.0017,0.796,0.6917,0.662,0.5275,0.3789,0.2118,0.2419,0.2034,0.1353,0.2067,0.2394,0.2352,0.1936,0.2232,0.0,0.0,0.0,0.0,0.0,0.0,0.0,0.0,0.0,0.0,0.0,0.0,0.0,0.0,0.0,0.0,0.0,0.0,0.0,0.0,0.0,0.0,0.0,0.0,0.0,0.0,0.0,0.0,0.0,0.0,0.0,0.0,0.0,0.0,0.0,0.0,0.0,0.8804,0.866,0.0,0.8737,0.8878,0.8616,0.7846,0.7842,0.7384,0.6168,0.5117,0.4213,0.345,0.2317,0.1357,0.0545,0.027,-0.0539,-0.1616,-0.2019,-0.2551,-0.3339,-0.2912,-0.2892,-0.3136,-0.2459,-0.2184,-0.217,-0.0745,0.012,0.0582,0.0117,-0.0115,-0.0,0.0346,0.0116,-0.0464,0.0,0.0,0.0,0.0,0.0,2.3118,2.3156,2.3171,2.3727,2.5176,2.5901,2.7182,2.9574,3.0828,3.1576,3.1779,2.9696,2.733,2.4895,2.138,1.8507,1.6593,1.4408,1.2639,1.1444,0.9543,0.8785,0.9084,0.7015,0.581,0.5417,0.4334,0.2895,0.107,0.1181,0.04,-0.1017,-0.0399,0.0197,0.0781,0.0555,0.0971,0.1689,0.0,0.0,0.0,0.0,0.0,0.0,0.0,0.0,0.0,0.0,0.0,0.0,0.0,0.0,0.0,0.0,0.0,0.0,0.0,0.0,0.0,0.0,0.0,0.0,0.0,0.0,0.0,0.0,0.0,0.0,0.0,0.0,0.0,0.0,0.8031,0.7965,0.8479,0.8024,0.7944,0.8206,0.8475,0.8181,0.7204,0.7528,0.6962,0.4902,0.3531,0.2409,0.1551,0.056,-0.0278,-0.0968,-0.1645,-0.2047,-0.2457,-0.2853,-0.3388,-0.3927,-0.3739,-0.398,-0.4375,-0.4068,-0.4039,-0.4279,-0.3722,-0.3139,-0.2321,-0.1702,-0.1918,-0.2476,-0.1678,-0.1563,-0.1917,0.0,0.0,0.0,0.0,0.0,2.1592,2.1749,2.1658,2.2671,2.5885,2.6351,2.8086,3.2526,3.2378,3.2254,3.2985,2.9968,2.6608,2.3301,2.0096,1.7226,1.4758,1.2472,1.0783,0.9847,0.8598,0.7841,0.759,0.5676,0.4849,0.5122,0.3364,0.1787,0.0404,-0.0605,-0.1427,-0.2181,-0.2431,-0.1688,-0.031,-0.06,-0.0289,0.0461,0.0,0.0,0.0,0.0,0.0,0.0,0.0,0.0,0.0,0.0,0.0,0.0,0.0,0.0,0.0,0.0,0.0,0.0,0.0,0.0,0.0,0.0,0.0,0.0,0.0,0.0,0.0,0.0,0.0,0.0,0.0,0.0,0.0,0.7869,0.7691,0.7516,0.8055,0.7117,0.6664,0.7008,0.7435,0.7221,0.6279,0.7006,0.6324,0.3639,0.1603,0.0435,-0.0,-0.0715,-0.0994,-0.0981,-0.2663,-0.3365,-0.3223,-0.3596,-0.3986,-0.4529,-0.4741,-0.5248,-0.6049,-0.6321,-0.6406,-0.6452,-0.6452,-0.6344,-0.5918,-0.3475,-0.3514,-0.485,-0.4202,-0.3945,-0.3782,0.0,0.0,0.0,2.1839,2.1828,2.207,2.3121,2.2755,2.3303,2.5877,2.6584,2.7804,3.034,3.0768,3.0658,3.0261,2.748,2.4761,2.2606,1.9403,1.6449,1.3934,1.2962,1.2006,1.1018,0.9222,0.8078,0.7703,0.6282,0.5002,0.3946,0.3245,0.2082,0.0404,-0.0303,-0.1326,-0.2596,-0.275,-0.2463,-0.1938,-0.16,-0.1351,-0.1103,0.0,0.0,0.0,0.0,0.0,0.0,0.0,0.0,0.0,0.0,0.0,0.0,0.0,0.0,0.0,0.0,0.0,0.0,0.0,0.0,0.0,0.0,0.0,0.0,0.0,0.0,0.0,0.0,0.0,0.0,0.0,0.6446,0.6625,0.7775,0.7652,0.7469,0.743,0.7217,0.7038,0.6426,0.6952,0.6905,0.6228,0.6235,0.5084,0.2331,0.0441,-0.0735,-0.116,-0.2175,-0.3025,-0.3554,-0.4083,-0.4622,-0.5457,-0.5577,-0.5983,-0.6537,-0.6651,-0.7013,-0.7626,-0.7495,-0.7439,-0.7607,-0.7266,-0.694,-0.661,-0.5564,-0.532,-0.5596,-0.5136,-0.4645,-0.4143,0.0,0.0,0.0,2.1974,2.2148,2.2371,2.29,2.2779,2.3495,2.5907,2.6572,2.7653,2.9823,2.9986,2.9555,2.8606,2.6294,2.401,2.1939,1.8892,1.6458,1.4768,1.3726,1.2694,1.1691,0.9866,0.8625,0.7815,0.6539,0.5181,0.3915,0.3234,0.2182,0.0707,-0.0101,-0.1117,-0.2262,-0.2531,-0.2681,-0.2709,-0.2088,-0.1957,-0.2014,-0.0839,-0.0,0.0585,0.1346,0.1769,0.1887,0.1799,0.0,0.0,0.0,0.0,0.0,0.0,0.0,0.0,0.0,0.0,0.0,0.0,0.0,0.0,0.0,0.0,0.0,0.0,0.0,0.0,0.0,0.0,0.0,0.0,0.5946,0.595,0.6631,0.6748,0.67,0.6485,0.649,0.6275,0.5663,0.6144,0.5733,0.4111,0.4241,0.3214,0.0587,-0.1487,-0.2679,-0.2939,-0.4135,-0.5002,-0.537,-0.559,-0.5994,-0.688,-0.6944,-0.7332,-0.7893,-0.8124,-0.8597,-0.89,-0.8764,-0.8698,-0.8984,-0.8519,-0.8191,0.0,0.0,0.0,0.0,0.0,-0.5474,-0.485,0.0,0.0,0.0,2.1705,2.2184,2.2487,2.1939,2.2314,2.3581,2.6148,2.665,2.7714,3.0224,2.973,2.8764,2.7561,2.5854,2.3751,2.126,1.8892,1.7285,1.6556,1.4847,1.3413,1.2322,1.0702,0.9402,0.8321,0.6872,0.5717,0.4873,0.3613,0.2369,0.1208,0.0201,-0.0705,-0.1515,-0.1888,-0.2238,-0.2672,-0.1882,-0.2001,-0.2414,-0.1535,-0.0852,-0.0205,0.0521,0.1079,0.1445,0.1558,0.0,0.0,0.0,0.0,0.0,0.0,0.0,0.0,0.0,0.0,0.0,0.0,0.0,0.0,0.0,0.0,0.0,0.0,0.0,0.0,0.0,0.0,0.0,0.0,0.545,0.5112,0.5081,0.5418,0.5544,0.5473,0.5484,0.5121,0.4471,0.4766,0.3869,0.0892,0.1323,0.0734,-0.1484,0.0,0.0,0.0,0.0,-0.6619,-0.6817,-0.7039,-0.7478,-0.7998,-0.8237,-0.8571,-0.8997,-0.959,-1.0009,-1.0283,-1.0147,-1.02,-1.0326,-0.9927,-0.972,-0.9465,-0.7637,-0.6947,-0.6933,-0.6715,-0.6302,-0.5659,0.0,0.0,0.0,2.2183,2.2094,2.2118,2.265,2.3231,2.4748,2.7875,2.8046,2.8529,3.0168,2.948,2.8056,2.5933,2.4572,2.288,2.0684,2.0643,1.9696,1.7454,1.6205,1.5054,1.3931,1.2334,1.1154,1.0299,0.9174,0.7847,0.6561,0.5341,0.3861,0.2261,0.15,0.06,-0.0496,-0.0626,-0.0851,-0.0961,-0.0774,-0.1566,-0.268,-0.134,-0.0444,0.011,0.1215,0.1651,0.175,0.1752,0.1297,0.0845,0.0307,0.0194,0.0,0.0,0.0,0.0,0.0,0.0,0.0,0.0,0.0,0.0,0.0,0.0,0.0,0.0,0.0,0.0,0.0,0.0,0.0,0.5043,0.4313,0.3907,0.428,0.4369,0.4404,0.4499,0.4971,0.4535,0.2565,0.1961,0.1202,0.0297,-0.0889,-0.2074,-0.3415,-0.4061,-0.467,-0.5796,-0.607,-0.6827,-0.8007,-0.8279,-0.8867,-0.9628,0.0,0.0,-1.0986,-1.1531,-1.1931,-1.2216,-1.1942,-1.1511,-1.0982,-1.0585,-1.0306,-0.999,-0.8834,-0.8231,-0.7837,-0.7597,-0.718,-0.6661,0.0,0.0,0.0,2.3019,2.3255,2.3487,2.3912,2.4291,2.5357,2.7663,2.7704,2.7581,2.7754,2.775,2.6759,2.4417,2.359,2.2801,2.1981,2.177,2.1062,1.9522,1.8101,1.6732,1.5501,1.4253,1.3231,1.2275,1.0995,0.986,0.8695,0.7602,0.6295,0.476,0.4267,0.371,0.312,0.1671,0.1179,0.1419,0.1887,0.1236,-0.0,-0.0,0.0338,0.1011,0.1942,0.2073,0.1844,0.1596,0.0562,-0.0441,-0.043,-0.0516,-0.0594,0.0,0.0,0.0,0.0,0.0,0.0,0.0,0.0,0.0,0.0,0.0,0.0,0.0,0.0,0.5118,0.481,0.0,0.4977,0.5017,0.4443,0.3971,0.3924,0.3501,0.3347,0.3606,0.4093,0.381,0.2272,0.106,-0.0151,-0.105,-0.2238,-0.3129,-0.3898,-0.4499,-0.5115,-0.6053,-0.6846,-0.7729,-0.8676,-0.9213,-0.9922,-1.0657,-1.1096,-1.1606,-1.218,-1.2753,-1.3231,-1.3628,-1.3035,-1.2717,-1.2546,-1.1844,-1.1115,-1.0432,-0.9818,-0.9227,-0.857,-0.8314,-0.7854,-0.7161,0.0,0.0,0.0,2.3687,2.4301,2.4822,2.5004,2.5116,2.573,2.7211,2.6907,2.6302,2.5718,2.5992,2.5411,2.3328,2.3302,2.3472,2.3599,2.2989,2.2395,2.1741,1.9965,1.8506,1.7284,1.6374,1.5389,1.4379,1.294,1.1791,1.0967,1.0031,0.8808,0.7502,0.7095,0.6948,0.6873,0.4292,0.3671,0.4352,0.4801,0.4514,0.3665,0.2511,0.2263,0.2697,0.3128,0.2789,0.2072,0.1269,-0.0114,-0.1462,-0.1224,-0.1313,-0.1492,-0.1013,-0.0402,0.0,0.0,0.0,0.0,0.0,0.0,0.0,0.0,0.4487,0.4511,0.4754,0.4771,0.4907,0.515,0.4795,0.4594,0.4944,0.4556,0.3867,0.3358,0.2598,0.2425,0.283,0.3183,0.3062,0.2425,0.1062,-0.0455,-0.1962,-0.2698,-0.3297,-0.3782,-0.4496,-0.5265,-0.6142,-0.7465,-0.8318,-0.8875,-0.9678,-1.0369,-1.1097,-1.1681,-1.2194,-1.2805,-1.3523,-1.4239,-1.4794,-1.4094,-1.3738,-1.3781,-1.2688,-1.1644,-1.0704,-1.0451,-0.9739,-0.8915,-0.8893,-0.8265,-0.7541,0.0,0.0,0.0,0.0,0.0,2.4274,2.5064,2.52,2.6014,2.8217,2.6841,2.5966,2.6795,2.5707,2.4447,2.3383,2.4798,2.538,2.4517,2.5269,2.4963,2.3312,2.1521,2.0333,1.9788,1.8567,1.7688,1.7139,1.5486,1.4233,1.3586,1.2226,1.0977,0.9824,0.8906,0.8386,0.8052,0.6872,0.7017,0.8036,0.7133,0.6868,0.6966,0.7086,0.6487,0.5497,0.5252,0.4322,0.3045,0.0928,-0.0116,-0.0919,-0.2326,-0.2746,-0.2328,-0.1601,-0.1033,-0.04,0.1057,0.1837,0.2198,0.1703,0.2033,0.2846,0.0,0.4499,0.4159,0.4818,0.4839,0.467,0.4754,0.4085,0.3684,0.4152,0.3327,0.2439,0.1945,0.1842,0.2008,0.2388,0.286,0.3035,0.2424,0.1377,0.0305,-0.0895,-0.1954,-0.2873,-0.3935,-0.3629,-0.4386,-0.6517,-0.6423,-0.699,-0.8321,-0.9197,-0.9781,-1.0216,-1.0819,-1.1536,-1.2539,-1.3268,-1.4421,-1.5687,-1.5117,-1.4405,-1.3426,-1.232,-1.1512,-1.1115,-1.0161,-0.9425,-0.8909,-0.8919,-0.8568,-0.791,0.0,0.0,0.0,0.0,0.0,2.5437,2.6148,2.6034,2.6539,2.8281,2.7179,2.6209,2.621,2.48,2.3767,2.3606,2.5106,2.616,2.6347,2.6816,2.6688,2.5758,2.3921,2.2595,2.1941,2.0623,1.9822,1.9505,1.7861,1.6975,1.6647,1.5438,1.4318,1.332,1.2247,1.157,1.1226,1.0355,1.0174,1.0381,0.9706,0.9432,0.9335,0.9311,0.9428,0.9313,0.806,0.6513,0.0,0.2785,0.1005,-0.0561,-0.2189,-0.2483,-0.2281,-0.1711,-0.1054,-0.0104,0.1365,0.222,0.2469,0.1897,0.25,0.3284,0.3677,0.3978,0.4036,0.4026,0.4398,0.4602,0.4404,0.4121,0.3849,0.3633,0.2876,0.2274,0.2146,0.2152,0.2147,0.2433,0.273,0.2727,0.2424,0.1512,0.0605,-0.0152,-0.1364,-0.2279,-0.306,-0.3497,-0.4252,-0.5501,-0.5949,-0.6495,-0.7269,-0.8007,-0.8568,-0.8649,-0.9323,-0.9937,-1.0639,-1.0932,-1.1458,-1.1928,-1.2768,-1.216,-1.0685,-1.1024,-1.0452,-0.9238,-0.8766,-0.8312,-0.7992,-0.8214,-0.7985,-0.7666,0.0,0.0,0.0,0.0,0.0,2.693,2.7411,2.6874,2.6955,2.8398,2.7403,2.6322,2.578,2.4635,2.3998,2.4275,2.5561,2.6723,2.7716,2.7939,2.7877,2.7578,2.6058,2.4779,2.3795,2.2669,2.1803,2.1135,2.0012,1.9164,1.8564,1.7872,1.7085,1.6113,1.5106,1.4326,1.3847,1.3201,1.275,1.2404,1.1982,1.18,1.1603,1.122,1.1659,1.2229,1.054,0.8618,0.6679,0.4729,0.2422,0.0213,-0.143,-0.1847,-0.1799,-0.1595,-0.0531,0.096,0.1986,0.2571,0.2711,0.2317,0.2864,0.3458,0.3215,0.3644,0.3985,0.3672,0.4004,0.4328,0.4307,0.399,0.3701,0.3511,0.3031,0.2572,0.2625,0.2614,0.2603,0.2455,0.2444,0.2436,0.2436,0.1812,0.1209,0.0767,-0.0611,-0.1833,-0.2467,-0.3211,-0.3971,-0.4622,-0.5038,-0.5588,-0.5965,-0.6837,-0.7383,-0.746,-0.801,-0.8188,-0.8279,-0.9525,-0.9465,-0.843,-1.0047,-0.9959,-0.9013,-0.9887,-0.9285,-0.7769,-0.7422,-0.7003,-0.6731,-0.6766,-0.691,-0.7166,0.0,0.0,0.0,0.0,0.0,2.847,2.8623,2.7462,2.72,2.8841,2.7417,2.6149,2.6002,2.5841,2.5685,2.5558,2.6414,2.7316,2.8151,2.8426,2.851,2.8329,2.7696,2.6629,2.5157,2.4921,2.3772,2.168,2.1663,2.0533,1.8614,1.909,1.8523,1.7115,1.6686,1.5952,1.5183,1.4743,1.4446,1.4256,1.3922,1.3752,1.389,1.3424,1.3409,1.3413,1.1993,1.0436,0.8652,0.6236,0.3891,0.1573,-0.0301,-0.0921,-0.0937,-0.1165,0.0526,0.2615,0.325,0.299,0.2612,0.2975,0.2833,0.2794,0.353,0.3725,0.3808,0.3968,0.4004,0.4054,0.4209,0.3746,0.3433,0.3929,0.3672,0.3366,0.3138,0.3069,0.2954,0.2584,0.245,0.2467,0.2467,0.2466,0.2454,0.2275,0.0306,-0.1387,-0.2469,-0.2467,-0.293,-0.37,-0.3698,-0.3982,-0.4686,-0.5826,-0.6533,-0.6973,-0.7031,-0.6586,-0.5619,-1.03,-1.0266,-0.6771,-0.7787,-0.8865,-0.9986,-0.9579,-0.8418,-0.6973,-0.6172,-0.564,-0.5369,-0.4634,-0.5297,-0.6536,0.0,0.0,0.0,0.0,0.0,0.0,2.9505,2.8856,2.8691,2.9862,2.9323,0.0,0.0,0.0,0.0,0.0,2.7255,2.7858,2.8007,2.9082,2.9456,2.8799,2.8595,2.8011,2.7085,2.6387,2.5538,2.4641,2.3917,2.2939,2.176,2.0925,1.9799,1.8545,1.781,1.7188,1.6648,1.6437,1.6312,1.6118,1.5811,1.5737,1.5683,1.4773,1.4961,1.5375,0.0,1.1796,0.9636,0.7716,0.5417,0.3033,0.1398,0.0802,0.0804,0.1242,0.1784,0.2346,0.3126,0.3114,0.2977,0.312,0.2968,0.2929,0.3176,0.3213,0.3102,0.2883,0.3453,0.4033,0.4118,0.3946,0.3953,0.4371,0.3773,0.3181,0.3538,0.3096,0.2793,0.2948,0.2648,0.2499,0.2499,0.2462,0.2451,0.2481,0.0773,-0.0929,-0.2497,-0.2499,-0.279,-0.3657,-0.307,-0.3513,-0.4636,-0.4468,-0.3714,-0.2968,-0.3665,-0.3958,-0.4008,-0.5534,-0.5078,-0.3255,-0.3928,-0.4575,-0.5203,-0.5112,-0.4925,-0.4496,-0.4226,-0.4067,-0.3895,-0.384,-0.3929,-0.44,0.0,0.0,0.0,0.0,0.0,0.0,0.0,0.0,0.0,0.0,0.0,0.0,0.0,0.0,0.0,0.0,0.0,2.8048,2.8081,2.8354,2.8609,2.8727,2.8539,2.8088,2.739,2.6674,2.5921,2.513,2.4934,2.4223,2.2824,2.2176,2.1248,2.0076,1.9163,1.8629,1.8288,1.8045,1.7851,1.7663,1.7163,1.6874,1.6658,1.5654,1.5494,0.0,1.4436,1.2765,1.0817,0.8857,0.6731,0.4635,0.3141,0.2633,0.2716,0.3109,0.2993,0.2883,0.3515,0.3743,0.3715,0.322,0.3441,0.3526,0.2784,0.295,0.2972,0.2439,0.2989,0.3541,0.3729,0.3827,0.3975,0.4427,0.3686,0.312,0.3394,0.3093,0.279,0.2823,0.2671,0.2357,0.2043,0.2324,0.2163,0.1727,0.078,-0.0623,-0.2356,-0.2514,-0.2652,-0.3224,-0.2783,-0.2928,-0.3942,-0.3321,-0.21,-0.0594,-0.1761,-0.2497,-0.2825,-0.2812,-0.2369,-0.193,-0.2192,-0.2454,-0.2572,-0.2669,-0.2921,-0.3182,-0.3045,-0.3029,-0.2999,-0.3092,-0.3078,-0.3062,0.0,0.0,0.0,0.0,0.0,0.0,0.0,0.0,0.0,0.0,0.0,0.0,0.0,0.0,0.0,0.0,0.0,0.0,2.8252,2.6548,2.6345,2.8182,2.778,2.7103,2.6382,2.6089,2.5127,2.3513,2.4945,2.4393,2.2046,2.2908,2.2746,2.1621,2.0494,1.9971,2.0025,1.9336,1.9028,1.9069,1.8134,1.7457,1.7016,1.6099,1.5294,1.4589,1.3989,1.3209,1.2043,0.9523,0.782,0.6523,0.4586,0.4379,0.4694,0.4471,0.4107,0.3975,0.4465,0.48,0.4849,0.3544,0.4008,0.4454,0.2701,0.3001,0.345,0.2515,0.2492,0.2889,0.334,0.3559,0.3686,0.3973,0.3435,0.3052,0.3018,0.3218,0.3103,0.2668,0.2514,0.22,0.1257,0.1886,0.1571,-0.0,0.0314,-0.0314,-0.2357,-0.2514,-0.2514,-0.2512,-0.2514,-0.2514,-0.2512,-0.2482,-0.1676,-0.0149,-0.1468,-0.2203,-0.2226,-0.22,-0.2349,-0.2228,-0.2375,-0.2343,-0.2293,-0.2292,-0.2556,-0.2947,-0.2527,-0.2526,-0.266,-0.2349,-0.2475,-0.273,0.0,0.0,0.0,0.0,0.0,0.0,0.0,0.0,0.0,0.0,0.0,0.0,0.0,0.0,0.0,0.0,0.0,0.0,2.7027,2.7207,2.7474,2.7813,2.824,2.8442,2.8443,2.802,2.7305,2.6219,2.6027,2.5132,2.3503,2.2908,2.2125,2.1203,2.09,2.0458,1.9765,1.9799,1.958,1.9174,1.8907,1.8504,1.8028,1.739,1.6839,1.6102,1.4811,1.3886,1.3076,1.073,0.869,0.6875,0.593,0.585,0.6184,0.6143,0.5416,0.4616,0.4687,0.4322,0.3811,0.3375,0.3572,0.3619,0.3233,0.3365,0.3471,0.3002,0.3068,0.3399,0.3766,0.3706,0.3794,0.4149,0.3616,0.3156,0.3521,0.3104,0.2819,0.3142,0.2829,0.1886,0.0471,-0.0,-0.0471,-0.0942,-0.1414,-0.1886,-0.2514,-0.2514,-0.2661,-0.2946,-0.2659,-0.2503,-0.2481,-0.1236,-0.1067,-0.1783,-0.1028,-0.117,-0.2346,-0.2316,-0.2318,-0.2343,-0.261,-0.2604,-0.232,-0.3016,-0.2856,-0.2563,-0.2705,-0.2547,-0.2381,-0.2487,-0.2475,-0.2326,0.0,0.0,0.0,0.0,0.0,0.0,0.0,0.0,0.0,0.0,0.0,0.0,0.0,0.0,0.0,0.0,0.0,0.0,0.0,2.7054,2.7054,2.685,2.6914,2.7122,2.7535,2.7018,2.655,2.6217,2.5949,2.5178,2.3879,2.3479,2.2699,2.1706,2.1593,2.1118,2.0589,2.0484,2.0247,0.0,0.0,1.8946,1.8381,1.7751,1.7039,1.6221,1.4872,1.3696,1.2651,1.1038,0.9199,0.7364,0.664,0.6766,0.7096,0.6966,0.6289,0.5552,0.5144,0.472,0.4147,0.3416,0.373,0.3885,0.318,0.331,0.3546,0.2899,0.3085,0.3273,0.3596,0.3426,0.3269,0.3761,0.3113,0.2813,0.3048,0.2783,0.2499,0.2983,0.1414,-0.0,-0.0942,-0.1571,-0.1886,-0.1886,-0.1728,-0.2043,-0.2514,-0.2514,-0.2664,-0.28,-0.2662,-0.2506,-0.2489,-0.1547,-0.1375,-0.2097,-0.103,-0.1167,-0.2334,-0.2592,-0.2593,-0.2331,0.0,-0.2752,-0.2622,-0.2893,-0.2741,-0.2598,-0.2596,-0.2441,-0.2281,-0.2391,-0.238,-0.2233,0.0,0.0,0.0,0.0,0.0,0.0,0.0,0.0,0.0,0.0,3.0237,2.9931,0.0,0.0,0.0,0.0,0.0,0.0,0.0,0.0,2.6077,2.5868,2.5179,2.508,2.5631,2.5024,2.4929,2.5273,2.5402,2.4874,2.3724,2.3976,2.3577,2.2548,2.221,2.1899,2.1683,2.1129,2.0866,2.0802,1.9898,1.9127,1.845,0.0,1.6847,1.5796,1.4612,1.3159,1.1678,1.0817,0.954,0.822,0.7326,0.7402,0.7812,0.7286,0.691,0.6398,0.5541,0.5291,0.487,0.3561,0.3989,0.4373,0.3053,0.3185,0.3428,0.2651,0.2714,0.3034,0.3233,0.2913,0.2621,0.3004,0.2593,0.2286,0.2406,0.2297,0.2325,0.2511,-0.0314,-0.22,-0.22,-0.2357,-0.2514,-0.2514,-0.1571,-0.1414,-0.2514,-0.2514,-0.2357,-0.22,-0.2357,-0.2357,-0.2357,-0.2329,-0.2146,-0.1666,-0.148,-0.1754,-0.2331,-0.2739,-0.2741,-0.2333,-0.2624,0.0,-0.2771,-0.2624,-0.2624,-0.2771,-0.2624,-0.233,-0.2323,-0.2439,-0.2425,-0.2274,0.0,0.0,0.0,0.0,0.0,0.0,0.0,0.0,0.0,0.0,3.0479,2.975,0.0,0.0,0.0,0.0,0.0,0.0,0.0,0.0,0.0,2.6695,2.615,2.6199,2.7052,2.6273,2.6235,2.6916,2.5855,2.482,2.3778,2.3304,2.2846,2.2542,2.2241,2.2017,2.1761,2.1153,2.0796,2.0476,1.9551,1.9177,1.9123,1.8315,0.0,0.0,1.4904,1.3343,1.2132,1.1225,1.0265,0.9428,0.864,0.8466,0.8546,0.792,0.7117,0.6257,0.5443,0.4714,0.3971,0.3433,0.3742,0.3873,0.3193,0.3114,0.3152,0.2889,0.3027,0.3191,0.3181,0.3176,0.3073,0.3087,0.2846,0.257,0.2406,0.1991,0.2015,0.2511,0.0785,-0.0628,-0.1099,-0.1886,-0.2514,-0.2514,-0.2357,-0.2357,-0.2514,-0.2514,-0.1886,-0.0471,-0.1414,-0.1728,-0.1571,-0.1553,-0.1686,-0.2271,-0.2091,-0.2211,-0.2333,-0.233,-0.233,-0.2333,-0.2333,0.0,-0.2478,-0.3063,-0.2917,-0.2478,-0.3063,-0.2898,-0.2438,-0.297,-0.2794,-0.2211,0.0,0.0,0.0,0.0,0.0,0.0,0.0,2.8898,2.9381,3.1339,3.1293,3.0856,3.0339,3.0071,2.9525,0.0,0.0,0.0,0.0,0.0,0.0,0.0,0.0,0.0,2.6262,2.6152,2.6198,2.6528,0.0,2.5211,2.4141,2.3716,2.3197,2.2682,2.267,2.2339,2.1744,2.1466,2.1036,2.0504,1.9751,1.9504,1.9586,0.0,0.0,0.0,1.4427,1.3113,1.1974,1.1327,1.0803,1.0412,0.958,0.9086,0.8938,0.8541,0.77,0.6728,0.5972,0.5166,0.4643,0.4327,0.43,0.4335,0.3871,0.3758,0.3641,0.2981,0.3131,0.3437,0.358,0.3361,0.3127,0.2977,0.2634,0.2367,0.2318,0.1798,0.1689,0.2487,0.1252,0.0157,-0.0314,-0.1099,-0.1886,-0.2514,-0.1728,-0.1571,-0.2514,-0.2514,-0.1728,-0.0,-0.0471,-0.1096,-0.1868,-0.1076,-0.0759,-0.1201,-0.1926,-0.235,-0.2334,-0.2334,-0.2042,-0.1751,-0.2187,0.0,-0.2333,-0.277,-0.2771,-0.2624,-0.2771,-0.2606,-0.2289,-0.27,-0.253,-0.2223,0.0,0.0,0.0,0.0,0.0,0.0,2.893,2.9308,2.992,3.1574,3.2283,3.2252,3.1373,3.0751,2.989,0.0,0.0,0.0,0.0,0.0,0.0,0.0,0.0,0.0,0.0,0.0,0.0,2.6025,2.6131,0.0,0.0,0.0,0.0,0.0,2.3098,2.2741,2.2013,2.1966,2.1504,0.0,0.0,1.973,0.0,0.0,0.0,0.0,0.0,1.2769,1.1822,1.1238,1.1034,1.0815,0.9978,0.9385,0.8972,0.8491,0.7913,0.7125,0.6183,0.5607,0.5447,0.5344,0.4971,0.464,0.4505,0.4367,0.3989,0.2987,0.3159,0.3608,0.391,0.3665,0.3291,0.3256,0.2802,0.2551,0.2381,0.1902,0.1815,0.2463,0.1715,0.0942,0.0628,-0.0,-0.0942,-0.2043,-0.1099,-0.0942,-0.1886,-0.1571,-0.0785,0.0471,0.0313,-0.0467,-0.1698,-0.0608,-0.0,0.0149,-0.1028,-0.1752,-0.1752,-0.2042,-0.1751,-0.1168,-0.1605,-0.2041,0.0,-0.2334,-0.248,-0.2771,-0.2478,-0.2311,-0.2281,-0.2423,-0.2399,-0.2229,0.0,0.0,0.0,0.0,0.0,0.0,2.8734,2.9082,3.0,3.2447,3.3257,3.3412,3.2932,3.1279,2.9953,0.0,0.0,0.0,0.0,0.0,0.0,0.0,0.0,0.0,0.0,0.0,0.0,2.6722,2.6112,0.0,0.0,0.0,0.0,0.0,0.0,2.3304,2.3089,2.254,0.0,0.0,0.0,0.0,0.0,0.0,0.0,0.0,0.0,1.2673,1.1816,1.0985,1.0568,1.0248,0.9829,0.9281,0.8723,0.7209,0.6837,0.6723,0.5558,0.5389,0.5488,0.5502,0.4901,0.4375,0.4627,0.4175,0.3429,0.2756,0.3021,0.3557,0.3895,0.393,0.4023,0.4504,0.408,0.3344,0.2397,0.2462,0.267,0.2459,0.234,0.2357,0.22,0.1256,0.0157,-0.0942,-0.1728,-0.1728,-0.0314,0.1256,0.2043,0.22,0.1243,0.0772,0.0925,0.0301,0.0149,0.0743,0.0587,0.0291,-0.0291,-0.1021,-0.1314,-0.1168,-0.0438,-0.1022,0.0,-0.2335,-0.2334,-0.2333,-0.2333,-0.2298,-0.239,-0.3094,-0.2767,-0.2163,0.0,0.0,0.0,0.0,0.0,0.0,2.8324,2.9425,3.0806,3.264,3.3777,3.4225,3.3706,3.2341,3.0902,2.9518,2.8492,0.0,0.0,0.0,0.0,0.0,0.0,0.0,0.0,0.0,2.6922,2.725,2.7214,0.0,0.0,0.0,0.0,0.0,0.0,2.3833,2.3487,2.3139,0.0,0.0,0.0,0.0,0.0,0.0,0.0,0.0,0.0,0.0,1.1128,1.0171,0.9983,1.0168,0.9451,0.8628,0.792,0.7856,0.7311,0.6717,0.6685,0.6488,0.6529,0.6773,0.6337,0.5706,0.5602,0.4875,0.4211,0.3966,0.3697,0.3703,0.446,0.4369,0.4422,0.4581,0.4321,0.3849,0.3161,0.2886,0.2715,0.2673,0.2734,0.2938,0.2982,0.2357,0.1571,0.1256,0.0785,0.0628,0.0785,0.1886,0.2506,0.2488,0.2011,0.1845,0.1831,0.1499,0.1481,0.1764,0.1756,0.1605,0.1313,0.1022,0.0438,-0.0438,-0.0146,-0.0292,0.0,-0.1898,-0.2043,-0.1605,-0.1605,-0.1436,-0.0982,-0.1262,-0.1241,-0.0945,0.0,0.0,0.0,0.0,0.0,2.7046,2.8327,2.9725,3.1085,3.2357,3.3624,3.424,3.3697,3.2863,3.1746,3.0141,2.8841,0.0,0.0,0.0,0.0,0.0,0.0,0.0,0.0,0.0,2.8051,2.791,2.8254,2.7955,0.0,0.0,2.5807,2.5049,0.0,0.0,0.0,0.0,0.0,2.2025,0.0,0.0,0.0,0.0,0.0,0.0,0.0,0.0,0.0,0.0,0.0,1.0347,0.9198,0.8137,0.7425,0.7974,0.7337,0.6571,0.6876,0.6973,0.6892,0.7332,0.6938,0.6353,0.6196,0.5448,0.475,0.4512,0.4044,0.3844,0.4689,0.4592,0.4402,0.4725,0.4378,0.3905,0.3537,0.3191,0.2921,0.2873,0.3088,0.3466,0.3721,0.2972,0.2514,0.2671,0.2514,0.2196,0.1719,0.2195,0.2504,0.2482,0.2465,0.2446,0.2272,0.2384,0.2354,0.2335,0.2335,0.2335,0.2335,0.2335,0.1606,0.0292,0.0146,-0.0,0.0,-0.1168,-0.1311,-0.0871,-0.0435,-0.0,0.0279,0.0558,0.0412,0.0135,0.0,0.0,0.0,0.0,0.0,2.7051,2.8977,2.988,3.0608,3.1515,3.2669,3.3243,3.2785,3.2573,3.222,3.1551,2.9889,0.0,0.0,0.0,0.0,0.0,0.0,0.0,0.0,0.0,2.9396,2.8599,2.8907,2.8846,2.8254,2.7471,2.6996,2.6843,0.0,0.0,0.0,0.0,2.4113,2.3027,0.0,0.0,0.0,0.0,0.0,0.0,0.0,0.0,0.0,0.0,0.0,0.0,0.0,0.8111,0.7372,0.6769,0.6331,0.5929,0.5651,0.5992,0.6476,0.657,0.6054,0.5647,0.6056,0.5518,0.4686,0.406,0.3935,0.4066,0.4467,0.4257,0.4305,0.5028,0.4413,0.3676,0.3587,0.3613,0.359,0.2939,0.3548,0.4071,0.468,0.3405,0.2668,0.3139,0.2669,0.0,0.2472,0.2497,0.2514,0.2514,0.2455,0.2424,0.2424,0.2364,0.2333,0.2333,0.2333,0.2333,0.2333,0.2333,0.1896,0.1168,0.0292,-0.0,0.0,-0.0,-0.0,-0.0,0.1575,0.169,0.1237,0.1925,0.1499,0.0808,0.0,0.0,0.0,0.0,0.0,0.0,2.8366,3.0157,3.137,3.1326,3.2392,3.3105,3.3104,3.2394,3.1653,3.1075,2.9965,0.0,0.0,0.0,0.0,0.0,0.0,0.0,0.0,2.9406,3.018,3.0646,3.067,3.0809,3.1102,2.987,2.9001,2.8531,2.8036,2.7409,0.0,2.5865,2.4393,2.2376,0.0,0.0,1.7332,0.0,0.0,0.0,0.0,0.0,0.0,0.0,0.0,0.0,0.0,0.0,0.0,0.6584,0.6192,0.5838,0.666,0.6733,0.6726,0.6936,0.6654,0.6124,0.5796,0.5002,0.4241,0.3951,0.3969,0.4117,0.47,0.5043,0.5342,0.5459,0.5086,0.4813,0.4554,0.4386,0.4279,0.4337,0.4719,0.5211,0.5272,0.4688,0.4236,0.4393,0.3768,0.3292,0.3123,0.329,0.313,0.2484,0.2465,0.2455,0.2455,0.2394,0.2364,0.2364,0.2342,0.2333,0.2333,0.2313,0.2304,0.2301,0.1284,0.071,0.0,0.071,0.0709,0.0847,0.1835,0.2096,0.1925,0.2063,0.2181,0.2158,0.0,0.0,0.0,0.0,0.0,0.0,2.8062,2.9515,3.0476,3.0148,3.0857,3.1608,3.227,3.2138,3.2004,3.1985,3.1324,0.0,0.0,0.0,0.0,0.0,0.0,0.0,2.9231,3.016,3.097,3.1691,3.1914,3.2345,3.2993,3.1799,3.0981,3.0425,2.9797,2.8858,0.0,2.602,2.3881,2.1479,0.0,0.0,1.7508,0.0,0.0,0.0,0.0,0.0,0.0,0.0,0.0,0.0,0.0,0.0,0.0,0.0,0.6263,0.5898,0.6522,0.6652,0.666,0.6828,0.6584,0.6247,0.5881,0.4927,0.4104,0.4306,0.4117,0.4145,0.4704,0.5039,0.5338,0.5452,0.5104,0.484,0.4813,0.4784,0.4827,0.5454,0.5803,0.5871,0.5538,0.5292,0.5022,0.4865,0.422,0.3899,0.3743,0.3882,0.3704,0.3218,0.2925,0.2777,0.2777,0.271,0.2528,0.2378,0.2627,0.2606,0.2459,0.2715,0.2982,0.312,0.2393,0.0,0.0,0.1683,0.1679,0.181,0.2229,0.2486,0.2455,0.2455,0.2579,0.2697,0.0,0.0,0.0,0.0,0.0,0.0,0.0,2.8207,2.8406,2.8289,2.8498,2.9207,3.0612,3.1862,3.2918,3.3804,3.3565,0.0,0.0,0.0,0.0,0.0,0.0,0.0,3.0318,3.1264,3.1821,3.201,3.2774,3.3508,3.4156,3.3362,3.2788,3.2378,3.1655,3.0381,2.8498,2.562,2.3,2.0697,2.0145,1.8719,0.0,0.0,0.0,0.0,0.0,0.0,0.0,0.0,0.0,0.0,0.0,0.0,0.0,0.0,0.0,0.0,0.0,0.5833,0.6397,0.6387,0.6139,0.5922,0.6233,0.5341,0.0,0.4897,0.4582,0.4254,0.4599,0.4596,0.4757,0.5276,0.4593,0.4235,0.4744,0.4955,0.5398,0.6178,0.662,0.6488,0.5515,0.5535,0.5338,0.4554,0.4507,0.4321,0.4473,0.4271,0.4242,0.4238,0.3523,0.3082,0.3082,0.3011,0.2825,0.2526,0.3041,0.3147,0.2857,0.3524,0.3781,0.0,0.3636,0.0,0.0,0.2518,0.25,0.2884,0.2884,0.2861,0.2694,0.2694,0.2694,0.2828,0.0,0.0,0.0,0.0,0.0,0.0,0.0,0.0,0.0,0.0,2.8419,2.9295,3.1243,3.1505,3.2086,0.0,0.0,0.0,0.0,0.0,0.0,0.0,0.0,0.0,3.0649,3.1988,3.2895,3.3333,3.4259,3.5021,3.5658,3.4542,3.3794,3.3393,3.2387,3.0344,2.748,2.5332,2.3617,2.2187,2.0352,1.9047,0.0,0.0,0.0,0.0,1.4567,1.4039,0.0,0.0,0.0,0.0,0.0,0.0,0.0,0.0,0.5665,0.5344,0.5165,0.0,0.6152,0.6277,0.6034,0.5784,0.0,0.5488,0.5141,0.5375,0.5651,0.5964,0.6238,0.6097,0.6048,0.6395,0.5636,0.5105,0.539,0.5722,0.6282,0.6865,0.7133,0.7119,0.6575,0.621,0.6118,0.6278,0.5321,0.5292,0.6166,0.5075,0.4586,0.5147,0.4098,0.3497,0.3497,0.3446,0.327,0.327,0.3331,0.343,0.3712,0.3767,0.4141,0.4549,0.0,0.0,0.3668,0.3534,0.3121,0.2707,0.2976,0.3103,0.3094,0.3094,0.323,0.3633,0.0,0.0,0.0,0.0,0.0,0.0,0.0,0.0,0.0,0.0,2.8144,2.9016,3.1189,3.153,3.2469,0.0,0.0,0.0,0.0,0.0,0.0,0.0,0.0,3.1117,3.191,3.2917,3.3794,3.4661,3.5314,3.5912,3.6472,3.5693,3.4886,3.3975,3.1657,2.9282,2.6861,2.483,2.3247,2.2007,2.0283,0.0,0.0,0.0,0.0,0.0,1.4671,1.373,0.0,1.1745,1.06,0.9477,0.0,0.0,0.0,0.0,0.5951,0.5652,0.5802,0.5979,0.6142,0.6537,0.6428,0.6205,0.6503,0.6142,0.5679,0.5514,0.5924,0.6245,0.6584,0.6689,0.6834,0.707,0.6416,0.5986,0.6074,0.641,0.6825,0.7256,0.7477,0.7289,0.7088,0.6663,0.6519,0.6484,0.5803,0.5613,0.6362,0.5547,0.5212,0.5799,0.4909,0.419,0.3935,0.3739,0.3705,0.3682,0.4018,0.4236,0.4345,0.4669,0.503,0.5298,0.0,0.0,0.4705,0.4437,0.4037,0.3633,0.3633,0.3768,0.3633,0.3499,0.3633,0.3902,0.0,0.0,0.0,0.0,0.0,0.0,0.0,0.0,0.0,0.0,0.0,0.0,0.0,0.0,0.0,0.0,0.0,0.0,0.0,0.0,0.0,0.0,3.1776,3.1952,3.3528,3.408,3.4815,3.5741,3.6301,3.674,3.7144,3.682,3.5777,3.4111,3.0598,2.8282,2.6696,2.4489,2.2757,2.1537,2.0076,0.0,0.0,0.0,0.0,0.0,0.0,0.0,0.0,1.0484,0.928,0.816,0.8891,0.0,0.0,0.0,0.0,0.0,0.6943,0.6975,0.6877,0.7339,0.7292,0.7256,0.7767,0.7279,0.6611,0.6213,0.6328,0.6531,0.68,0.694,0.7269,0.7679,0.7212,0.6814,0.6842,0.6969,0.7165,0.7828,0.7712,0.7515,0.7502,0.7209,0.6884,0.6359,0.6082,0.6176,0.6382,0.5963,0.5918,0.641,0.5683,0.5008,0.4514,0.432,0.4268,0.4211,0.482,0.5147,0.5077,0.568,0.6046,0.6046,0.0,0.0,0.5912,0.5242,0.4839,0.4705,0.444,0.444,0.4308,0.4037,0.3902,0.3902,0.0,0.0,0.0,0.0,0.0,0.0,0.0,0.0,0.0,0.0,0.0,0.0,0.0,0.0,0.0,0.0,0.0,0.0,0.0,0.0,0.0,3.5724,3.4357,3.4071,3.5029,3.599,3.6427,3.6363,3.7936,3.8506,3.8183,3.7942,3.6299,3.3371,3.1008,2.9184,2.7808,2.5203,2.3693,2.2848,2.0412,0.0,0.0,0.0,0.0,0.0,0.0,0.0,0.0,1.189,1.0915,1.0027,0.9844,0.0,0.0,0.0,0.0,0.0,0.8326,0.9299,0.9904,0.902,0.9143,0.933,0.9314,0.9565,0.959,0.8962,0.8709,0.8835,0.9349,0.801,0.7464,0.9213,0.8133,0.7318,0.7626,0.7295,0.743,0.8459,0.8355,0.815,0.8058,0.8131,0.8177,0.8008,0.7377,0.7485,0.846,0.6802,0.6176,0.6849,0.6119,0.5693,0.5567,0.5268,0.5229,0.5444,0.5504,0.5566,0.5899,0.6223,0.6585,0.6853,0.0,0.6447,0.5912,0.5778,0.5376,0.4839,0.4705,0.4708,0.4705,0.4305,0.4174,0.4305,0.0,0.0,0.0,0.0,0.0,0.0,0.0,0.0,0.0,0.0,0.0,0.0,0.0,0.0,0.0,0.0,0.0,0.0,0.0,0.0,3.8013,3.7504,3.6831,3.6685,3.718,3.7186,3.7562,3.8271,3.9064,3.9293,3.8906,3.7311,3.545,3.3382,3.0395,2.8525,2.7475,2.5082,2.3742,2.2948,0.0,0.0,0.0,0.0,0.0,0.0,0.0,0.0,0.0,0.0,1.0026,0.9515,0.9605,0.0,0.0,0.0,0.0,0.0,0.9207,0.9982,1.052,1.0934,1.1116,1.1159,1.0559,1.1089,1.1322,0.9951,0.9875,0.9992,0.9876,0.8884,0.8515,0.9429,0.8492,0.8008,0.8777,0.8247,0.8227,0.9152,0.9019,0.8948,0.9192,0.9086,0.8795,0.8592,0.8236,0.8038,0.8136,0.7217,0.6884,0.7411,0.6701,0.6417,0.6559,0.6417,0.6256,0.6215,0.6133,0.6324,0.6783,0.7004,0.7121,0.7254,0.0,0.6853,0.6719,0.6585,0.6313,0.5908,0.573,0.5475,0.5376,0.4977,0.5111,0.5513,0.0,0.0,0.0,0.0,0.0,0.0,0.0,0.0,0.0,0.0,0.0,0.0,0.0,0.0,0.0,0.0,0.0,0.0,0.0,3.8879,3.8973,3.8909,3.8892,3.8818,3.8628,3.8164,3.8625,3.9939,4.0191,4.0152,3.987,3.7486,3.5432,3.3567,3.0528,2.8439,2.7133,2.5192,2.3825,2.2853,0.0,0.0,0.0,0.0,0.0,0.0,0.0,0.0,0.0,0.0,0.0,0.0,0.0,0.0,0.0,0.946,0.9323,0.9238,1.0248,1.0895,1.1662,1.277,1.2874,1.2583,1.1913,1.2531,1.2763,1.1016,1.1067,1.1131,1.0584,1.0295,0.9968,0.9308,0.9154,0.9234,0.9707,0.9394,0.9484,1.0149,0.9966,0.9883,1.0175,0.9883,0.9686,0.9275,0.9034,0.8687,0.8232,0.7869,0.7831,0.8114,0.7553,0.7413,0.7697,0.7534,0.723,0.6789,0.6719,0.7044,0.7488,0.746,0.7592,0.7621,0.7327,0.7332,0.7621,0.7084,0.6965,0.7111,0.6506,0.6257,0.5915,0.5647,0.6049,0.6585,0.0,0.0,0.0,0.0,0.0,0.0,0.0,0.0,0.0,0.0,0.0,0.0,0.0,0.0,0.0,0.0,0.0,0.0,0.0,3.9758,4.0168,4.0062,4.0061,3.9526,3.8327,3.9124,3.9827,4.0429,4.144,4.1779,4.1504,4.0431,3.7718,3.3653,3.2527,3.0466,2.7729,2.6062,2.4577,2.2988,1.9034,0.0,0.0,0.0,0.0,0.0,0.0,0.0,0.0,0.0,0.0,0.0,0.0,0.0,1.025,1.1254,1.1099,1.095,1.2085,1.3543,1.47,1.4484,1.3823,1.3324,1.3446,1.4159,1.4551,1.3556,1.3039,1.2839,1.2732,1.2706,1.1924,0.9474,1.0309,1.094,1.0513,1.0718,1.1018,1.1456,1.1181,1.09,1.0913,1.0913,1.0855,1.0709,1.0266,1.0205,1.0354,0.9371,0.8809,0.8815,0.8809,0.8809,0.8799,0.828,0.7767,0.687,0.7268,0.7346,0.7374,0.7537,0.7806,0.7893,0.7667,0.7677,0.7767,0.7117,0.7044,0.7393,0.6715,0.6447,0.6317,0.6049,0.6313,0.6853,0.0,0.0,0.0,0.0,0.0,0.0,0.0,0.0,0.0,0.0,0.0,3.1594,3.242,0.0,0.0,0.0,0.0,0.0,0.0,3.8839,3.92,3.9675,4.0183,3.9945,3.8894,3.9527,4.0457,4.1619,4.1983,4.1969,4.1575,3.9167,3.6606,3.3783,3.2095,2.9741,2.7061,2.6346,2.4598,2.2045,1.9645,1.6736,0.0,0.0,0.0,0.0,0.0,0.0,0.0,0.0,1.1893,1.1263,1.1839,1.1258,1.0446,1.112,1.1129,1.1091,1.1748,1.3077,1.44,1.4606,1.5295,1.5712,1.5209,1.6287,1.7028,1.5721,1.5494,1.5059,1.3611,1.2909,1.2449,1.1483,1.1403,1.1552,1.2009,1.183,1.1893,1.2323,1.218,1.218,1.2187,1.2323,1.2258,1.1825,1.1945,1.1692,1.1166,1.034,0.9893,1.0084,0.9531,0.9361,0.9279,0.9837,0.9432,0.8247,0.8269,0.8579,0.8926,0.8756,0.8632,0.8546,0.8312,0.8175,0.816,0.7837,0.7754,0.7794,0.766,0.7882,0.8223,0.7498,0.7517,0.7922,0.0,0.0,0.0,0.0,0.0,0.0,0.0,0.0,2.9469,0.0,0.0,0.0,0.0,3.3149,0.0,0.0,0.0,0.0,3.7375,3.8213,3.8867,3.941,3.9976,4.0089,3.9641,3.9778,4.0607,4.2091,4.2153,4.18,4.1035,3.8362,3.6059,3.3965,3.1998,2.9528,2.6854,2.5975,2.4018,2.1266,1.8751,1.5967,0.0,0.0,0.0,0.0,0.0,0.0,0.0,0.0,1.2802,1.226,1.2406,1.1899,1.124,1.1765,1.1651,1.1465,1.2144,1.3263,1.4469,1.5051,1.6572,1.7867,1.7457,1.8259,1.8739,1.7625,1.7127,1.6309,1.428,1.3559,1.3244,1.2889,1.2671,1.2828,1.3693,1.3576,1.3459,1.3657,1.3617,1.3302,1.302,1.3169,1.3091,1.2643,1.2904,1.2772,1.2082,1.1397,1.108,1.1247,1.0704,1.0373,1.0364,1.1112,1.0948,1.0039,0.9862,0.9858,1.0032,0.9774,0.954,0.9459,0.924,0.908,0.901,0.8705,0.8629,0.8535,0.8668,0.9036,0.9533,0.869,0.859,0.8856,0.0,0.0,0.0,0.0,0.0,0.0,0.0,0.0,2.9714,3.0593,3.1258,0.0,0.0,0.0,0.0,0.0,0.0,0.0,3.5807,3.8149,3.9528,3.9481,3.9568,3.9919,4.0569,3.9914,4.0257,4.1596,4.1895,4.1341,3.9958,3.8643,3.6657,3.4083,3.2597,3.0277,2.7329,2.4765,2.279,2.0854,1.5949,1.4582,1.5089,0.0,0.0,0.0,0.0,0.0,0.0,0.0,1.5742,1.4555,1.5445,1.4343,1.2825,1.3635,1.3233,1.2598,1.359,1.4718,1.5591,1.5919,1.7666,1.946,2.0052,1.9932,1.9537,1.9136,1.7874,1.6377,1.4964,1.508,1.4886,1.3378,1.4281,1.5306,1.5634,1.5791,1.6031,1.5829,1.5257,1.4455,1.3368,1.3368,1.3287,1.2966,1.3092,1.3144,1.3358,1.2684,1.2289,1.2289,1.2289,1.2334,1.2556,1.2169,1.2123,1.2521,1.1781,1.1121,1.0263,1.039,1.0472,1.048,1.0458,1.0397,1.0263,0.9882,0.9582,0.9453,0.9714,0.9802,0.9661,0.925,0.9389,0.9661,0.0,0.0,0.0,0.0,0.0,0.0,0.0,0.0,2.9713,3.041,3.0186,0.0,0.0,0.0,0.0,0.0,0.0,0.0,3.5786,3.601,3.7146,3.9558,3.9487,3.9597,4.0041,3.9147,3.9629,4.1547,4.0085,3.8919,3.794,3.4695,3.2583,3.1433,2.9828,2.7411,2.4472,2.4108,2.1887,1.8564,1.7369,1.571,1.3862,0.0,0.0,0.0,0.0,0.0,0.0,0.0,0.0,0.0,1.4229,1.3607,1.2548,1.4346,1.4552,1.4163,1.4359,1.581,1.7326,1.7834,1.975,2.1723,2.2505,2.1872,2.0996,2.0869,1.9412,1.8066,1.7645,1.6594,1.5772,1.5683,1.5561,1.5815,1.654,1.6732,1.6736,1.72,1.6343,1.5487,1.521,1.4955,1.4656,1.4191,1.4709,1.4883,1.4417,1.3622,1.3414,1.3922,1.3276,1.2868,1.2815,1.3321,1.3314,1.2691,1.3208,1.2798,1.1487,1.0988,1.0951,1.1097,1.0656,1.0365,1.0263,1.0136,1.0163,1.0351,1.0323,1.0514,1.096,1.0412,1.0452,1.0717,0.0,0.0,0.0,0.0,0.0,0.0,3.0298,2.9901,2.9702,2.9946,2.9459,2.9737,0.0,0.0,0.0,3.2509,3.1817,0.0,3.4452,3.3197,3.3867,3.7294,3.529,3.5172,3.7394,3.6481,3.7198,3.9717,3.7127,3.5343,3.4253,3.0176,2.8428,2.855,2.6724,2.4952,2.3071,2.1926,2.0052,1.7933,1.5927,1.4874,1.4349,0.0,0.0,0.0,0.0,0.0,0.0,0.0,0.0,0.0,1.4117,1.3911,1.3471,1.4892,1.5679,1.6216,1.6901,1.8115,1.9445,2.0393,2.1907,2.355,2.4693,2.3745,2.2557,2.2414,2.0886,1.96,1.9193,1.7859,1.7012,1.7585,1.7096,1.7013,1.8395,1.8173,1.8105,1.8823,1.7879,1.7099,1.6954,1.6573,1.6175,1.5781,1.5954,1.6114,1.5971,1.5238,1.4993,1.5236,1.4731,1.4194,1.376,1.4242,1.4137,1.3435,1.4304,1.4231,1.3377,1.2679,1.2316,1.2414,1.1949,1.1568,1.1515,1.126,1.1283,1.1545,1.1389,1.1554,1.1705,1.1359,1.1243,1.1323,0.0,0.0,3.1584,3.165,0.0,0.0,3.0008,2.9754,2.9493,2.9178,2.8798,2.9015,0.0,0.0,0.0,3.0734,3.0854,3.1199,3.1821,2.92,2.9258,3.287,2.808,2.7372,3.1797,3.1043,3.1913,3.4653,3.211,3.0342,2.9121,2.4707,2.3406,2.4578,2.2864,2.2064,2.1776,1.8701,1.7659,1.778,1.3003,1.3216,1.5913,1.2803,0.0,0.0,0.0,0.0,0.0,0.0,0.0,0.0,1.5064,1.5248,1.5476,1.5735,1.7115,1.8904,2.041,2.1122,2.1862,2.3351,2.4314,2.529,2.6709,2.5612,2.4259,2.3823,2.25,2.1216,2.0348,1.9241,1.8606,1.9314,1.8812,1.8835,2.0625,1.9936,1.9665,2.0542,1.9788,1.8968,1.8676,1.8022,1.7507,1.7507,1.7052,1.7058,1.7668,1.7043,1.6651,1.6371,1.6349,1.5873,1.5186,1.5186,1.5073,1.4867,1.5224,1.558,1.5817,1.4686,1.427,1.4173,1.3757,1.3536,1.3394,1.3021,1.2821,1.2867,1.2758,1.2649,1.2296,1.2082,1.1923,1.1791,0.0,0.0,3.3073,3.1709,0.0,0.0,2.966,2.8669,2.8053,2.8057,2.6754,2.6034,2.6517,2.6614,0.0,2.5657,2.3419,2.3384,2.6564,2.1337,2.0344,2.5518,2.1137,1.7994,1.6638,1.6128,1.6138,1.6684,1.896,2.1115,2.2998,1.5936,1.3464,1.5021,1.5425,1.493,1.3865,1.6267,1.5746,1.3485,1.332,1.4747,1.6646,1.305,1.4484,0.0,0.0,0.0,0.0,0.0,0.0,0.0,1.7755,1.8556,1.8985,1.9746,2.1274,2.2755,2.2812,2.2967,2.3749,2.6034,2.7329,2.8153,2.831,2.8087,2.7452,2.5661,2.413,2.2893,2.2174,2.1309,2.0618,2.04,2.0528,2.098,2.1646,2.1545,2.1483,2.1991,2.0734,1.9634,1.9374,1.8653,1.8022,1.7507,1.7859,1.814,1.8046,1.7417,1.7422,1.7817,1.7136,1.6782,1.6606,1.6843,1.6926,0.0,1.7103,1.7455,1.7689,1.5558,1.4597,1.4683,1.4556,1.4411,1.4404,1.3901,1.3517,1.3107,1.2891,1.3084,1.3234,1.2658,1.2699,1.2926,0.0,0.0,0.0,0.0,0.0,0.0,0.0,0.0,2.6521,2.632,2.5491,2.4968,2.51,2.4477,0.0,0.0,1.9344,1.9429,2.2629,1.6149,1.3058,1.4858,1.4884,1.3493,1.0717,1.0095,0.988,1.0217,0.7555,0.8906,1.3873,0.8556,0.7745,1.0711,1.0538,1.1586,1.3554,1.4536,1.4368,1.3457,1.3537,1.4358,1.5354,1.4002,1.5279,1.7722,1.6521,0.0,0.0,0.0,0.0,0.0,0.0,0.0,2.0971,2.1436,2.3361,2.5483,2.587,2.6152,2.6891,2.8964,2.9998,3.053,3.0559,3.0381,2.9809,2.8652,2.6894,2.5333,2.4766,2.3806,2.3105,2.2932,2.2808,2.2751,2.3228,2.2835,2.2652,2.2922,2.2043,2.1451,2.1195,2.0795,2.0258,1.9739,2.0112,2.0152,1.9742,1.9451,1.935,1.9194,1.8466,1.804,1.7923,1.8018,1.825,1.8622,1.8868,1.9166,1.9519,1.7399,1.642,1.6291,1.6045,1.5773,1.5525,1.5299,1.4771,1.4086,1.4314,1.4183,1.4004,1.3455,1.3349,1.3391,0.0,0.0,0.0,0.0,0.0,0.0,0.0,0.0,0.0,2.4625,2.3764,2.3298,2.3672,2.1989,1.9878,0.0,0.0,0.0,1.7733,1.158,0.6477,0.3406,0.7406,0.8443,0.5761,0.5023,0.5075,0.565,-0.2146,-0.2814,0.321,0.1586,0.2856,0.6334,0.5731,0.8044,1.2238,1.0977,1.1444,1.2878,1.2315,1.27,1.3758,1.4559,1.5966,1.7384,1.6869,1.8309,2.0537,2.0857,0.0,0.0,0.0,0.0,2.2944,2.2752,2.492,2.7586,2.8626,2.9522,3.0414,3.1757,3.2157,3.2377,3.2881,3.2427,3.1844,3.1739,2.9766,2.7931,2.7366,2.643,2.5766,2.5826,2.5125,2.4653,2.5015,2.4393,2.3943,2.4074,2.3878,2.3589,2.3464,2.334,2.2959,2.2393,2.2509,2.2438,2.1905,2.1905,2.1554,2.0773,2.004,1.9693,1.9618,1.9448,1.9763,2.0472,2.0716,2.1032,2.126,1.9826,1.9038,1.8447,1.8077,1.7437,1.6887,1.6763,1.6156,1.5276,1.5761,1.5403,1.467,1.4237,1.3946,1.3803,0.0,0.0,0.0,0.0,0.0,0.0,0.0,0.0,0.0,0.0,1.9617,1.7313,1.901,1.594,1.3357,1.2282,0.8436,0.6634,0.8069,0.0,0.0,-0.5909,-0.4405,-0.5132,-0.8857,-0.8867,-0.8686,-0.8493,-0.9199,-0.8946,-0.7863,-0.615,-0.5541,-0.5794,-0.206,-0.1226,-0.2467,0.1065,0.3348,0.4709,0.6398,0.9819,1.3809,1.3109,1.6093,2.0472,2.0196,2.141,2.3356,2.4682,2.4476,0.0,0.0,0.0,2.6585,2.6259,2.7668,2.952,2.9954,3.1601,3.3139,3.3405,3.3527,3.3696,3.4314,3.4316,3.4014,3.3583,3.1843,3.0081,2.8969,2.8957,2.872,2.7677,2.7435,2.7432,2.7488,2.7142,2.6762,2.6571,2.6277,2.5879,2.5285,2.5391,2.4987,2.3687,2.4252,2.4228,2.32,2.2951,2.2951,2.309,2.188,2.1636,2.2513,2.1964,2.204,2.2958,2.3311,2.3324,2.3135,2.2883,2.2108,2.0698,2.0081,1.9581,1.9216,1.8094,1.7124,1.6324,1.6098,1.5861,1.5364,1.4789,1.453,1.4391,0.0,0.0,0.0,0.0,0.0,0.0,0.0,0.0,0.0,0.0,0.0,1.4506,1.2696,1.1189,0.9359,0.7087,0.49,0.328,0.2354,-0.0512,-0.3213,-0.5509,-0.6291,-0.7865,-1.0605,-1.0261,-1.055,-1.1526,-1.033,-0.9908,-1.0238,-0.8495,-0.7008,-0.5868,-0.4827,-0.3658,-0.2302,-0.0956,0.0257,0.1573,0.4075,0.6573,0.881,0.9314,1.3162,1.8095,1.7163,2.0072,2.447,2.4685,2.5317,2.6195,2.7367,0.0,0.0,0.0,3.0127,3.2163,3.3128,3.403,3.4947,3.5865,3.5948,3.584,3.6157,3.6276,3.6106,3.5357,3.4792,3.3892,3.1795,3.0983,3.0568,3.0393,2.9979,2.9817,3.0081,2.9474,2.9002,2.8847,2.839,2.7811,2.7211,2.7452,2.7175,2.6202,2.6915,2.6854,2.5587,2.5625,2.5444,2.4775,2.4007,2.3777,2.4089,2.3844,2.3999,2.4667,2.4872,2.4918,2.5009,2.4878,2.3967,2.25,2.1589,2.0958,2.0415,1.9535,1.8526,1.7572,1.7467,1.7126,1.6537,1.5698,1.5461,1.5343,0.0,0.0,0.0,0.0,0.0,0.0,0.0,0.0,0.0,0.0,0.0,1.0981,0.8004,0.0,0.0,0.0,0.2471,0.1016,-0.1847,-0.3821,-0.4897,-0.4746,-0.6187,-0.7795,-0.9503,-0.9311,-0.9905,-1.1416,-1.0209,-0.9907,-1.0386,-0.9463,-0.7989,-0.6244,-0.7298,-0.6112,-0.3442,-0.4407,-0.3326,-0.0778,0.1547,0.3413,0.5251,0.7809,1.1796,1.5913,1.5554,1.9697,2.5302,2.4608,2.5946,2.8045,2.9261,3.0192,0.0,0.0,0.0,3.3705,3.4887,3.5353,3.5828,3.7509,3.7619,3.7455,3.7989,3.8148,3.7986,3.7284,3.7433,3.7111,3.4912,3.3507,3.2632,3.2881,3.2384,3.1932,3.2138,3.156,3.1162,3.1007,3.0799,3.0412,2.971,2.9944,2.9676,2.8816,2.9469,2.9298,2.7995,2.818,2.793,2.6983,2.6267,2.6005,2.6144,2.5985,2.5972,2.6227,2.6295,2.6475,2.6807,2.6434,2.5763,2.477,2.3354,2.2467,2.1846,2.1071,2.0103,1.8971,1.8868,1.8519,1.783,1.6879,1.6644,1.6526,0.0,0.0,0.0,0.0,0.0,0.0,0.0,0.0,0.0,0.0,0.0,0.4885,0.6933,0.3804,0.1569,0.1578,0.0398,-0.1672,-0.4894,-0.4593,-0.5159,-0.712,-0.6825,0.0,-0.8703,-0.9406,-0.9911,-1.0293,-1.0385,-1.0303,-1.0115,-1.0308,-1.0915,-1.1803,-1.1115,-1.1586,-1.2927,-1.3732,-1.0019,-0.3612,-0.3066,0.0549,0.6139,1.1472,1.4461,1.6206,1.9059,2.2757,2.6101,2.6012,2.7523,2.9472,3.0157,3.0806,3.1362,0.0,0.0,0.0,3.3448,3.4279,3.5509,3.7503,3.7647,3.7812,3.9629,3.9731,3.9423,3.9481,3.9033,3.8565,3.822,3.6949,3.5647,3.4924,3.411,3.3582,3.3582,3.355,3.3398,3.3377,3.3809,3.3754,3.2964,3.3212,3.2705,3.1103,3.1371,3.1137,3.0016,2.9885,2.9819,2.9964,2.8668,2.8524,2.9584,2.8888,2.8262,2.7726,2.7979,2.8192,2.8229,2.7918,2.794,2.8087,2.5777,2.4367,2.3729,2.2808,2.1616,2.0573,2.0228,1.9768,1.9087,1.8169,1.804,1.8156,0.0,0.0,0.0,0.0,0.0,0.0,0.0,0.0,0.0,0.0,0.0,0.0,0.0,-0.0475,-0.0469,-0.052,-0.0651,-0.1381,-0.2809,-0.3055,-0.3852,-0.5434,-0.6151,-0.7049,-0.8189,-0.9238,-0.975,-0.9532,-1.0001,-1.0141,-1.0149,-1.0448,-1.1048,-1.1961,-1.1697,-1.2406,-1.3821,-1.2814,-1.0095,-0.6453,-0.5942,-0.1937,0.3705,0.4626,0.8306,1.2777,1.0964,1.6385,2.41,2.2591,2.6217,3.1555,3.2739,3.3151,3.3234,3.3152,3.3209,3.3507,3.4505,3.5381,3.6249,3.735,3.8712,3.9734,3.9384,4.079,4.1755,4.0544,4.0632,4.0859,4.0106,3.8329,3.6875,3.6722,3.6087,3.56,3.5829,3.584,3.5852,3.5852,3.5995,3.5859,3.5178,3.5201,3.4913,3.4141,3.4004,3.372,3.3051,3.2759,3.2309,3.194,3.1511,3.1395,3.1584,3.1084,3.0622,3.0224,2.9807,2.9595,2.9652,2.9013,2.8878,2.9124,2.8083,2.6866,2.5518,2.434,2.3503,2.2958,2.2589,2.2153,2.1601,2.1115,2.0659,2.0329,0.0,0.0,0.0,1.467,0.0,0.636,0.8809,0.5067,0.138,-0.0198,0.0,0.0,0.0,0.0,-0.1805,-0.2255,-0.1889,-0.1983,-0.2823,-0.297,-0.3687,-0.5213,-0.6036,-0.6897,-0.7882,-0.8861,-0.9301,-0.9153,-0.9689,-1.01,-1.024,-1.07,-1.1502,-1.2363,-1.217,-1.2721,-1.3815,-1.2257,-1.0285,-0.8038,-0.7318,-0.394,0.0734,0.0738,0.4537,0.9792,0.8939,1.4307,2.1994,2.3628,2.8822,3.4707,3.4857,3.4151,3.3352,3.3467,3.3671,3.3905,3.4321,3.5203,3.6208,3.7019,3.8302,3.9532,4.0209,4.1576,4.2576,4.2198,4.2258,4.2195,4.1517,3.9917,3.8595,3.8522,3.782,3.7437,3.7834,3.7767,3.7784,3.7956,3.8032,3.782,3.7263,3.7156,3.6942,3.6487,3.6077,0.0,3.5703,3.5034,3.4311,3.3726,3.3874,3.3719,3.3235,3.29,3.2587,3.2376,3.1746,3.144,3.1483,3.0742,3.0639,3.0845,3.0328,2.9126,2.7325,2.6373,2.5827,2.5388,2.5041,2.4616,2.4061,2.3471,2.3023,2.2702,1.1134,1.0649,1.0505,0.844,0.6041,0.4289,0.387,0.0422,-0.2226,-0.2504,0.0,0.0,0.0,0.0,0.0,-0.3291,-0.3161,-0.3659,-0.5225,-0.4387,-0.4747,-0.6685,-0.6462,-0.6749,-0.7778,-0.8356,-0.8718,-0.8998,-0.9677,-1.0172,-1.0417,-1.1303,-1.2315,-1.3508,-1.2733,-1.2789,-1.3369,-1.2942,-1.1048,-0.8283,-0.7395,-0.5274,-0.2394,0.09,0.4024,0.7492,1.3868,1.7187,1.9991,2.9419,3.5413,3.8482,3.6305,3.364,3.1466,3.2022,3.3136,3.3908,0.0,0.0,0.0,3.6406,3.6222,3.7,4.2099,4.2103,4.1672,4.433,4.3714,4.262,4.2389,4.1844,4.114,4.0407,3.9332,3.8799,3.9387,3.9155,3.9077,3.9741,4.0031,3.9955,3.939,3.908,3.8662,3.8113,3.7501,3.737,3.7559,3.6606,3.5781,3.5356,3.5525,3.5352,3.4896,3.4581,3.4264,3.4091,3.3848,3.3674,3.3697,3.34,3.34,3.3598,3.2577,3.1051,2.9282,2.89,2.8436,2.7718,2.7239,2.6806,2.6481,2.5261,2.5058,2.5186,0.9646,0.7514,0.4835,0.2524,0.1471,0.0644,-0.0373,-0.08,-0.1711,0.0,0.0,0.0,-0.31,-0.3147,-0.3011,-0.2873,-0.2408,-0.2639,-0.3921,-0.3511,-0.3921,-0.5339,-0.6198,-0.6872,-0.7548,-0.8722,-0.9251,-0.9246,-1.0311,-1.0746,-1.0574,-1.1128,-1.1678,-1.211,-1.2417,-1.2414,-1.1815,-0.8933,-0.7672,-0.7353,-0.5051,-0.3186,-0.1863,-0.0783,0.1575,0.4596,0.6488,1.0767,1.65,2.3133,2.8771,3.3266,3.5145,3.4172,3.2256,3.1907,3.2781,3.3699,3.3126,0.0,0.0,0.0,0.0,0.0,3.8351,4.0177,4.1945,4.2374,4.3189,4.3741,4.3654,4.3451,4.3182,4.2878,4.1517,4.0628,4.0979,4.1231,4.1469,4.1815,4.2124,4.211,4.1591,4.1392,4.1293,0.0,4.0666,4.0284,4.0072,3.8761,3.8057,3.7851,3.7834,3.756,3.7267,3.7006,3.6709,3.6188,3.5784,3.5498,3.521,3.4824,3.4727,3.4921,3.4412,3.4021,3.3528,3.144,3.0224,2.9849,2.9995,2.9682,2.9242,2.8926,2.8608,2.829,0.3921,0.1651,-0.0963,-0.2895,-0.2854,-0.2697,-0.3154,-0.3385,-0.4132,0.0,0.0,0.0,-0.3348,-0.3307,-0.3242,-0.318,-0.2762,-0.2928,-0.3905,-0.39,-0.4298,-0.5278,-0.6118,-0.6768,-0.7249,-0.8246,-0.8703,-0.8703,-0.9994,-1.0447,-1.0098,-1.0809,-1.131,-1.1549,-1.1791,-1.1641,-1.1143,-0.7437,-0.6596,-0.751,-0.5218,-0.3749,-0.2962,-0.3265,-0.1246,0.2143,0.4725,1.1104,1.9231,2.4419,2.9045,3.315,3.6051,3.5206,3.3081,3.2445,3.3262,3.4134,3.3311,3.4192,3.5159,3.453,0.0,0.0,3.7781,3.9322,4.0978,4.2461,4.3007,4.3285,4.3743,4.3482,4.322,4.3386,4.2787,4.2431,4.2507,4.2825,4.313,4.3392,4.351,4.3537,4.3504,4.3026,4.2903,4.3313,4.293,4.2358,4.1544,4.0428,3.9628,3.9323,3.9415,3.9256,3.8937,3.8937,3.8686,3.816,3.7861,3.756,3.7258,3.6954,3.6887,3.6913,3.6514,3.642,3.6351,3.4485,3.3307,3.2532,3.2555,3.2252,3.1847,3.152,3.1316,3.0987,0.0,-0.4585,-0.594,-0.7496,-0.7012,-0.622,-0.5693,-0.7398,-0.895,0.0,-0.7815,-0.5688,-0.3335,-0.3304,-0.3581,-0.3891,-0.372,-0.3917,-0.4696,-0.4929,-0.524,-0.586,-0.6177,-0.6563,-0.6865,-0.7342,-0.7727,-0.7931,-0.9378,-0.9917,-0.95,-1.0529,-1.1205,-1.1561,-1.0891,-1.0848,-1.1091,-0.7649,-0.7079,-0.8251,-0.6785,-0.566,-0.5071,-0.5816,-0.3651,0.0551,0.6341,1.4614,2.3774,2.9268,3.3053,3.5769,3.8014,3.682,3.4446,3.3562,3.432,3.5138,3.3682,3.3839,3.4485,3.4625,3.4427,0.0,3.8677,3.8841,3.9381,4.2999,4.255,4.1821,4.2784,4.2322,4.1897,4.2389,4.3086,4.3758,4.3937,4.4074,4.418,4.4618,4.4352,4.4464,4.501,4.4219,4.3925,4.4647,4.4407,4.3743,4.2575,4.1755,4.0991,4.0343,4.0631,4.0603,4.0257,4.0402,4.0201,3.9766,3.9766,3.9651,3.9475,3.9387,3.9299,3.9149,3.8675,3.8289,3.8107,3.7834,3.682,3.5355,3.4824,3.4557,3.4264,3.3726,3.3505,3.3429,-0.2993,-0.3919,-0.5743,-0.9732,-1.1253,-1.1918,-1.1834,-1.4773,-1.6308,-1.4417,-1.2817,-0.9813,-0.4546,-0.4663,-0.4878,-0.4073,-0.4104,-0.4462,-0.4924,-0.5002,-0.524,-0.586,-0.6479,-0.6788,-0.6865,-0.793,-0.8631,-0.8998,-1.017,-1.0563,-1.0324,-1.0783,-1.1024,-1.1131,-1.094,-1.0727,-1.031,-0.8679,-0.7928,-0.7839,-0.6083,-0.5404,-0.5282,-0.5138,-0.1963,0.2801,0.6336,1.0609,1.6041,2.6539,3.2045,3.5066,3.8678,3.9528,3.8639,3.5509,3.5855,3.6992,3.5948,3.604,3.6257,3.5679,3.6389,0.0,3.637,3.7453,3.8631,3.9018,3.9534,3.9949,4.03,4.0344,4.0353,4.0244,4.1559,4.3323,4.4986,4.5178,4.5434,4.6022,4.5672,4.5454,4.5544,4.5507,4.5477,4.546,4.4982,4.4638,4.4659,4.3507,4.2688,4.257,4.2327,4.2082,4.1864,4.1561,4.1226,4.0944,4.0944,4.0944,4.0859,4.0717,4.0717,4.0774,4.0546,4.046,4.0374,4.0087,3.8649,3.6658,3.6726,3.6539,3.6188,3.5949,3.5854,3.5738,-0.4423,-0.7213,-1.0045,-1.0957,-1.3353,-1.4594,-1.3204,-1.7292,-1.8962,-1.4477,-1.2333,-0.9628,-0.5438,-0.5587,-0.5595,-0.4608,-0.4809,-0.4839,-0.4629,-0.541,-0.5774,-0.5634,-0.6402,-0.6902,-0.6834,-0.7454,-0.8078,-0.87,-0.9676,-1.009,-0.9989,-1.0773,-1.072,-0.9904,-1.0814,-0.9892,-0.7746,-0.7838,-0.7026,-0.5674,-0.5364,-0.499,-0.4582,-0.4193,-0.1066,0.3379,0.5414,0.9891,1.6168,2.5973,3.0501,3.295,3.7861,3.95,3.9295,3.7173,3.7351,3.7894,3.6669,3.645,3.6555,3.6291,3.6574,0.0,0.0,3.6788,3.7636,3.8977,3.8904,3.8995,4.0334,4.0123,3.9878,4.0214,4.1448,4.2718,4.3927,4.511,4.6021,4.6284,4.6206,4.6172,4.6272,4.6203,4.6346,4.6686,4.6145,4.5851,4.5861,4.4725,4.4021,4.3711,4.3711,4.3476,4.2951,4.279,4.2629,4.2467,4.2467,4.2548,4.26,4.26,4.2519,4.2438,4.2356,4.2111,4.1976,4.1782,4.0887,3.9568,3.9067,3.8649,3.8289,3.8262,3.8262,3.8315,-0.6386,-1.0848,-1.4506,-1.27,-1.5275,-1.7042,-1.5595,-1.894,-1.9425,-1.3249,-1.1055,-0.911,-0.659,-0.6344,-0.6109,-0.5529,-0.5464,-0.5225,-0.4641,-0.5921,-0.6431,-0.5787,-0.652,-0.6893,-0.6933,-0.6936,-0.7375,-0.8045,-0.8755,-0.9174,-0.9311,-1.0444,-1.0117,-0.8627,-1.0404,-0.9109,-0.5758,-0.6632,-0.5931,-0.4332,-0.4824,-0.4554,-0.363,-0.3523,-0.0961,0.2802,0.4993,1.0285,1.7444,2.5533,2.8721,3.0374,3.6641,3.9043,3.9433,3.8622,3.8804,3.8853,3.7275,3.6713,3.6615,3.663,3.6507,3.6452,0.0,0.0,0.0,3.9172,3.8361,3.792,4.0234,3.9673,3.922,4.0227,4.1309,4.2022,4.2089,4.4186,4.5687,4.5499,4.5866,4.617,4.6466,4.6265,4.6592,4.7797,4.7052,4.6598,4.675,4.5971,4.53,4.4781,4.5036,4.4812,4.4159,4.4205,4.4159,4.4004,4.3927,4.4004,4.4205,4.4282,4.4205,4.3819,4.3897,4.3711,4.3319,4.3397,4.313,4.2731,4.1449,4.0689,4.0318,4.0404,4.049,4.0546,-0.8159,-1.1152,-1.4769,-1.7143,-1.9241,-2.1831,-2.5484,-2.3142,-1.9039,-1.3791,-1.3155,-1.1952,-0.8747,-0.7197,-0.6587,-0.6899,-0.5866,-0.5499,-0.6098,-0.6257,-0.6576,-0.7295,-0.7202,-0.7111,-0.7236,-0.7268,-0.7545,-0.7983,-0.7975,-0.8398,-0.919,-0.9828,-0.935,-0.804,-0.9134,-0.8746,-0.7233,-0.6137,-0.6159,-0.6899,-0.5194,-0.3847,-0.2911,-0.3616,-0.1858,0.1774,0.688,1.035,1.3721,2.3199,2.6685,2.8559,3.5898,3.9918,4.1617,3.9841,4.0312,4.0991,3.8918,3.8261,3.7913,3.7,3.7416,3.7557,3.5907,0.0,3.6419,3.6,0.0,3.5785,3.7118,0.0,0.0,3.8082,3.968,4.0775,4.0702,4.2576,4.3699,4.2944,4.4037,4.4943,4.504,4.5109,4.6123,4.842,4.6584,4.6191,4.7981,4.7322,4.6896,4.7033,4.6652,4.6301,4.5985,4.5697,4.5478,4.5478,4.511,4.5036,4.5258,4.5036,4.4887,4.4662,4.5036,4.511,4.4856,4.4974,4.5048,4.4794,4.3572,4.2621,4.2,4.2246,4.2,4.1785,-0.8138,-1.1193,-1.4294,-1.397,-1.7936,-2.0529,-1.8884,-1.5981,-1.3849,-1.3394,-1.1854,-1.0327,-0.8919,-0.8132,-0.754,-0.6804,-0.6738,-0.6253,-0.5289,-0.675,-0.7168,-0.6169,-0.6932,-0.7354,-0.7401,-0.6997,-0.7352,-0.8495,-0.821,-0.8591,-0.9551,-1.0192,-0.9704,-0.8292,-0.9476,-0.8481,-0.594,-0.5761,-0.5156,-0.445,-0.4409,-0.3731,-0.279,-0.325,-0.1318,0.181,0.4358,0.8142,1.2931,2.0357,2.4536,2.7986,3.5725,3.8975,3.996,3.9928,4.0103,3.9934,3.8184,3.8494,3.9049,3.7737,3.7913,3.8123,3.6852,3.6281,3.6229,3.6886,0.0,0.0,0.0,0.0,0.0,0.0,3.9242,3.9763,3.9276,4.0841,4.2219,4.2766,0.0,0.0,4.5147,4.5578,4.6362,4.7603,4.677,4.6575,4.7541,4.7245,4.6953,4.6891,4.6943,4.6816,4.6484,4.6532,4.6518,4.6625,4.6378,4.6378,4.6694,4.6588,4.648,4.6166,4.648,4.6269,4.5841,4.6095,4.6095,4.5881,4.5778,4.4943,4.368,4.3866,4.3758,4.3615,-0.7446,-1.081,-1.3515,-1.123,-1.5238,-1.7019,-1.1781,-1.0805,-1.0842,-1.1524,-0.9917,-0.869,-0.8598,-0.8166,-0.7537,-0.6698,-0.6866,-0.6328,-0.501,-0.693,-0.7475,-0.6161,-0.7175,-0.7738,-0.7802,-0.7541,-0.7707,-0.8537,-0.8488,-0.8852,-0.9473,-1.0027,-0.9612,-0.8412,-0.9819,-0.8585,-0.5665,-0.6079,-0.5086,-0.3252,-0.336,-0.3375,-0.3463,-0.3685,-0.2074,0.0245,0.1094,0.4848,1.0487,1.6882,2.1691,0.0,3.4399,3.734,3.8091,3.9878,3.9966,3.9245,3.8074,3.873,3.9418,3.8036,3.7893,3.788,3.7166,3.6565,3.6434,3.7718,3.7342,0.0,0.0,0.0,3.7847,3.9207,0.0,3.9282,3.8584,3.9658,4.0917,4.1953,4.2889,0.0,0.0,4.5443,4.594,4.6806,4.6556,4.6624,4.7227,4.717,4.7158,4.7155,4.7462,4.7429,4.7149,4.7535,4.7704,4.7602,4.7507,4.7704,4.7933,4.7901,4.7671,4.7304,4.7671,4.7372,4.6828,4.7272,4.7272,4.7033,4.7538,4.6932,4.5737,4.5447,4.53,4.5321,-0.602,-0.9742,-1.2519,-1.144,-1.2213,-1.1984,-0.9013,-1.184,-1.2613,-0.7839,-0.7858,-0.8275,-0.8275,-0.6738,-0.6149,-0.7226,-0.5776,-0.5193,-0.6132,-0.6545,-0.749,-0.8962,-0.835,-0.8158,-0.8715,-0.9473,-0.9117,-0.7815,-0.8758,-0.9023,-0.8776,-0.8786,-0.8521,-0.8179,-0.9619,-0.9522,-0.8037,-0.7522,-0.6797,-0.5741,-0.2242,-0.2628,-0.538,-0.5475,-0.5145,-0.4398,-0.2193,0.0,0.0,1.217,1.7838,0.0,0.0,0.0,0.0,3.9745,4.0385,4.0225,0.0,0.0,0.0,3.7665,0.0,0.0,0.0,3.6585,3.7248,3.7149,3.8242,3.9662,4.1171,4.0088,3.9495,4.1305,4.0447,0.0,0.0,3.9412,3.9596,3.918,4.107,4.289,0.0,4.3829,4.4497,4.6384,4.5637,4.5843,4.7796,4.772,4.7976,4.8868,4.8734,4.8564,4.8449,4.9026,4.9001,4.8285,4.8551,4.8702,4.8855,4.8543,4.8225,4.7901,4.845,4.845,4.8194,4.8855,4.8951,4.8639,4.8639,4.845,4.7967,4.7101,4.6588,4.6378,-0.3238,-0.4792,-0.6796,-0.8665,-1.1142,-1.2113,-0.9886,-0.8808,-0.772,-0.6239,-0.6452,-0.6889,-0.7491,-0.6697,-0.6327,-0.6845,-0.6423,-0.6347,-0.6931,-0.7714,-0.8151,-0.8188,-0.894,-0.9253,-0.9116,-0.9616,-0.994,-1.0001,-1.0121,-1.018,-1.0274,-1.0585,-1.0068,-0.906,-0.8992,-0.8501,-0.7533,-0.663,-0.5125,-0.3379,-0.3038,-0.3701,-0.4913,-0.6924,-0.7433,-0.6512,-0.3542,-0.1095,0.0,1.1378,1.6422,2.0453,2.9189,3.3646,3.6008,3.8256,3.9433,0.0,0.0,0.0,4.1947,3.9349,0.0,0.0,0.0,0.0,0.0,3.7104,3.9008,4.0951,4.1366,4.1278,4.1273,4.1803,4.0905,3.9799,0.0,3.899,3.9199,3.9277,4.0815,4.2241,4.3088,0.0,4.4963,4.5621,4.588,4.633,4.7125,4.7174,4.7329,4.766,4.7854,4.7893,4.7841,4.8881,4.9292,4.9049,4.9608,4.9953,4.9988,4.9849,4.9521,4.9248,4.9521,4.9342,4.8889,4.9316,4.9316,4.9073,4.9168,4.9107,4.8765,4.8032,4.7638,4.7339,-0.2329,-0.2672,-0.3617,-0.4994,-0.7462,-0.9011,-0.8253,-0.584,-0.4257,-0.4728,-0.5646,-0.6708,-0.7824,-0.7287,-0.7083,-0.7802,-0.7193,-0.6878,-0.7059,-0.7756,-0.8469,-0.8851,-0.9455,-0.9965,-1.0193,-1.0848,-1.1128,-1.1175,-1.1531,-1.1616,-1.1431,-1.1163,-1.0596,-0.993,-0.8787,-0.8276,-0.8156,-0.6768,-0.5223,-0.3648,-0.4178,-0.474,-0.5328,0.0,-0.7696,-0.7016,0.0,-0.297,-0.0367,0.982,1.5087,1.9057,2.8548,3.3149,3.5627,3.8327,3.9936,4.0789,4.0841,4.2393,0.0,4.0951,4.0677,0.0,3.8048,0.0,3.9289,0.0,0.0,4.217,4.3487,4.2916,4.2276,4.2638,4.138,3.9957,0.0,3.8833,3.9264,3.9629,4.079,4.1866,4.2783,4.3578,4.4456,4.5386,4.5587,4.5988,0.0,0.0,4.7201,4.7678,4.8045,4.8338,4.8473,4.9745,5.0136,4.9644,5.0594,5.0929,5.0784,5.0749,5.053,5.0159,5.0215,5.0022,4.9555,4.9907,4.9791,4.9496,4.9708,4.9708,4.9471,4.8889,4.8543,4.8353,-0.3193,-0.3685,-0.3333,-0.1201,-0.1887,-0.3105,-0.4211,-0.3153,-0.2567,-0.3525,-0.5525,-0.7547,-0.9208,-0.8393,-0.8401,-1.0141,-0.8113,-0.6759,-0.6888,-0.7198,-0.845,-1.1025,-1.0137,-1.0331,-1.2046,-1.2889,-1.2639,-1.1217,-1.2972,-1.3237,-1.197,-1.0493,-1.0199,-1.0681,-0.8954,-0.8916,-0.9839,-0.8014,-0.6841,-0.6162,-0.5386,-0.567,-0.6307,-0.6536,-0.6441,-0.6031,-0.5083,-0.4446,-0.2617,0.7685,1.3714,1.8764,2.8727,3.3499,3.5949,4.0009,4.1637,4.2335,4.319,4.3298,4.2977,4.2534,0.0,0.0,0.0,0.0,4.2043,0.0,0.0,0.0,4.7216,4.4867,4.2715,4.3728,4.1973,3.9948,3.8528,3.9031,3.9692,4.0166,4.0921,4.1805,4.2829,4.2463,4.3131,4.5507,4.4742,4.488,4.6578,0.0,4.7558,4.8884,4.9435,4.984,5.0254,5.1454,5.1441,5.0161,5.1441,5.1736,5.1193,5.1383,5.1192,5.0694,5.0694,5.053,5.0341,5.053,5.0363,4.9965,5.0285,5.0341,5.0171,4.9708,4.9411,4.9229,-0.5054,-0.5478,-0.5499,-0.4612,-0.371,-0.2942,-0.2394,-0.2518,-0.3439,-0.5413,-0.7172,-0.9023,-1.1261,-0.942,-0.8799,-1.0793,-0.8594,-0.8019,-1.0046,-0.9368,-1.0005,-1.225,-1.203,-1.1761,-1.1495,-1.3506,-1.3578,-1.1647,-1.3735,-1.3941,-1.2103,-1.2031,-1.117,-0.9912,-0.9282,-0.8528,-0.7862,-0.7116,-0.5546,-0.3753,-0.5196,-0.5103,-0.4226,0.0,-0.5286,-0.3302,-0.115,-0.1789,-0.1906,0.9574,1.4304,1.7091,2.6698,3.223,3.5744,3.9424,4.142,4.265,4.3796,4.5094,4.5702,4.4202,4.4073,4.3931,0.0,0.0,0.0,0.0,0.0,0.0,0.0,0.0,4.5802,4.4288,4.2519,4.0854,3.9397,3.9557,3.9987,4.0589,4.1148,4.1599,4.1851,4.3136,4.4086,4.4509,4.4672,4.5623,4.7606,0.0,0.0,4.8416,4.9076,4.9482,4.97,5.1158,5.1697,5.131,5.228,5.2545,5.2221,5.2268,5.2137,5.1946,5.1848,5.175,5.1701,5.1449,5.1192,5.1035,5.0946,5.0819,5.062,5.0171,5.0287,5.0523,-0.8712,-0.9774,-1.0226,-1.0108,-0.7707,-0.5279,-0.401,-0.5057,-0.6594,-0.8098,-0.9035,-1.0522,-1.3077,-1.1571,-1.151,-1.4051,-1.1477,-1.044,-1.1921,-1.123,-1.1526,-1.2923,-1.267,-1.2759,-1.3464,-1.4306,-1.5258,-1.6225,-1.5706,-1.5404,-1.5277,-1.3194,-1.155,-1.0404,-0.9168,-0.8548,-0.8634,-0.8159,-0.6426,-0.4281,-0.5859,-0.5665,0.0,-0.5274,-0.4619,-0.2753,0.0654,-0.0,-0.0517,1.0792,1.5018,1.7253,2.6885,3.2332,3.5793,3.9298,4.1682,4.3426,4.4632,4.5966,4.6684,4.5516,4.5572,4.5507,4.3958,4.4432,4.5329,0.0,0.0,0.0,0.0,0.0,4.5692,4.3725,4.2372,4.1196,3.9983,4.0308,4.0762,4.1083,4.1728,4.2203,4.2142,4.3385,4.412,4.3871,4.4552,0.0,0.0,0.0,0.0,4.8712,4.9634,5.0446,5.1146,5.2143,5.2541,5.238,5.3142,5.324,5.2777,5.2907,5.282,5.2635,5.2371,5.2232,5.2185,5.1958,5.1764,5.1551,5.1434,5.1492,5.1582,5.0997,5.0844,5.0841,-1.392,-1.566,-1.6353,-1.6504,-1.3622,-1.0737,-0.9297,-0.9824,-1.0981,-1.2547,-1.2442,-1.3177,-1.5715,-1.5035,-1.5356,-1.769,-1.4818,-1.2949,-1.3211,-1.2781,-1.2783,-1.3624,-1.2901,-1.3562,-1.563,-1.5063,-1.6613,-2.0629,-1.7856,-1.7188,-1.8441,-1.4196,-1.197,-1.1521,-0.8984,-0.8488,-0.9435,-0.9136,-0.7474,-0.5052,-0.6149,-0.6373,-0.5683,-0.4554,-0.3902,-0.3094,0.1072,0.1329,0.1183,1.1789,1.616,1.8766,2.8182,3.3138,3.6111,3.97,4.2291,4.425,4.552,4.6374,4.6902,4.6562,4.6681,4.6515,4.5113,4.5434,4.6248,4.6884,4.6131,4.6483,0.0,0.0,4.4522,4.3282,4.2668,4.2099,4.1356,4.1931,4.2315,4.2006,4.2875,0.0,4.2754,4.3416,4.3754,4.3517,4.4193,0.0,0.0,0.0,0.0,4.9529,5.0676,5.1899,5.3306,0.0,5.3644,5.341,5.3907,5.3758,5.313,5.333,5.3285,5.2993,5.2725,5.2509,5.2381,5.2436,5.2253,5.1946,5.1946,5.2279,5.2651,5.1872,5.1315,5.091,-2.1127,-2.1901,-2.227,-2.1156,-2.2146,-2.2909,-2.2226,-1.6103,-1.4343,-2.2099,-2.1302,-2.0694,-2.2534,-2.1154,-1.9028,-1.6213,-1.4021,-1.3328,-1.4428,-1.3457,-1.3752,-1.5802,-1.4669,-1.3846,-1.3191,-1.4893,-1.5001,-1.3485,-1.7741,-1.778,-1.3884,-1.512,-1.4253,-1.1535,-0.953,-0.6542,-0.3105,-0.4875,-0.3271,0.0128,-0.3424,-0.4406,-0.362,-0.3228,-0.3098,-0.2558,0.0536,0.2004,0.3858,1.3059,1.7976,2.1413,2.8823,3.3492,3.7031,4.083,4.2802,4.4174,4.5953,4.7104,4.7664,4.6971,4.7638,4.8271,4.7392,4.7849,4.8555,4.9208,4.8944,4.866,4.8656,0.0,0.0,4.6078,4.6539,4.693,4.6832,4.6543,4.5861,4.4621,4.5152,4.4583,4.1857,4.3201,4.4046,4.3381,4.2919,0.0,0.0,0.0,0.0,0.0,5.1469,0.0,0.0,0.0,5.4334,5.43,5.4196,5.4017,5.372,5.3758,5.3757,5.3639,5.36,5.3563,5.3604,5.3289,5.2999,5.2733,5.2733,5.2536,5.2306,5.2114,5.1982,5.1772,-2.721,-2.751,-2.799,-2.8136,-2.7203,-2.6682,-2.7522,-2.4444,-2.3415,-2.725,-2.6714,-2.5592,-2.467,-2.3963,-2.292,-2.1475,-1.8109,-1.7271,-1.9928,-1.7089,-1.5564,-1.6234,-1.5062,-1.4484,-1.4641,-1.5559,-1.6518,-1.7501,-1.868,-1.8239,-1.6332,-1.4741,-1.3386,-1.2113,-0.989,-0.6251,-0.1851,-0.4038,0.0,0.0509,-0.3142,-0.3996,-0.2825,-0.2422,-0.1884,-0.1074,0.2408,0.4809,0.7322,1.4521,1.7792,2.0291,2.8674,3.4016,3.7782,4.0944,4.309,4.4806,4.6166,4.711,4.7521,4.7022,4.7451,4.7893,4.7307,4.7859,4.8561,4.8883,4.9444,4.9934,5.0184,4.9872,0.0,0.0,0.0,4.8159,4.8919,4.8555,4.7823,4.6647,4.65,4.5833,4.4228,4.4516,4.4326,4.3019,4.3004,0.0,0.0,0.0,0.0,0.0,0.0,0.0,0.0,0.0,0.0,5.4874,5.4661,5.45,5.4401,5.4265,5.4161,5.4091,5.3981,5.3981,5.3981,5.3719,5.3484,5.3318,5.3157,5.2907,5.2644,5.2545,5.2454,5.2304,-3.2809,-3.2779,-3.3259,-3.4727,-3.1985,-3.0094,-3.1749,-3.3098,-3.3261,-3.1451,-3.14,-3.0419,-2.7575,-2.767,-2.7836,-2.752,-2.3994,-2.2927,-2.5944,-2.1593,-1.8488,-1.7458,-1.559,-1.4875,-1.558,-1.5475,-1.7122,-2.048,-1.8957,-1.8255,-1.8331,-1.4331,-1.2172,-1.1597,-0.9254,0.0,0.0,0.0,-0.2378,0.0254,-0.2732,-0.3313,-0.2286,-0.1478,-0.0537,0.0803,0.5745,0.8486,1.089,1.6976,1.9038,2.0642,2.9421,3.5159,3.9177,4.1506,4.3884,4.5897,4.6799,4.7438,4.7808,4.7592,4.768,4.7773,4.7417,4.8005,4.8666,4.8744,4.9748,5.0965,5.2046,5.2178,0.0,0.0,0.0,0.0,5.0926,5.075,5.0138,4.912,4.8202,4.7318,4.6551,4.563,4.4499,4.3138,4.3751,0.0,4.6411,0.0,0.0,0.0,0.0,5.3084,5.4676,0.0,5.514,5.521,5.5028,5.4912,5.4852,5.4667,5.4505,5.4405,5.4268,5.4198,5.4163,5.4018,5.3907,5.383,5.3561,5.3363,5.3198,5.3023,5.2857,5.2717,-3.803,-3.7666,-3.7728,-3.8767,-3.8875,-3.9021,-3.9458,-4.0801,-4.0427,-3.6637,-3.7076,-3.7192,-3.5711,-3.6242,-3.4789,-2.9961,-2.9981,-3.0232,-3.0157,-2.5986,-2.3083,-2.228,-1.765,-1.4209,-1.2604,-1.3394,-1.3639,-1.3075,-1.672,-1.6979,-1.4057,-1.484,-1.2732,-0.8297,0.0,0.0,0.0,-0.1842,-0.0252,0.1963,0.0266,-0.0805,-0.1075,-0.0,0.1206,0.3201,1.0135,1.2755,1.3939,2.191,2.5294,2.7212,3.2878,3.7964,4.2247,4.4037,4.584,4.7408,4.8568,4.9274,4.9654,4.9538,4.9745,4.9862,4.9686,5.0195,5.0748,5.0898,5.1532,5.2067,5.2341,5.3886,5.4617,0.0,0.0,0.0,0.0,5.515,5.4593,5.3065,5.1373,4.9174,4.6225,4.5009,4.4437,4.4486,4.4977,0.0,0.0,0.0,0.0,5.0483,0.0,5.2103,5.3009,5.4587,5.5314,5.5301,5.5168,5.4933,5.4723,5.473,5.4673,5.4505,5.4608,5.4538,5.4472,5.4439,5.4337,5.4237,5.4055,5.3833,5.3563,5.3481,5.3359,5.3309,-3.9285,-3.8532,-3.8468,-4.0083,-4.0015,-4.0172,-4.1531,-4.2124,-4.1938,-4.0642,-4.1243,-4.0833,-3.8219,-3.8326,-3.7598,-3.5157,-3.3283,-3.3067,-3.5014,-2.8706,-2.4573,-2.3985,-1.9176,-1.5988,-1.4846,-1.506,-1.6529,-1.9209,-1.7264,-1.6989,-1.8106,-1.2715,-0.7296,0.0,0.0,-0.1573,0.2358,0.2819,0.3521,0.4341,0.2802,0.1879,0.1477,0.1876,0.4516,0.8802,1.4024,1.7871,2.1413,2.7531,2.9769,3.0872,3.6553,4.1369,4.5342,4.7348,4.8829,5.0091,5.1129,5.1199,5.0894,5.0886,5.0546,5.0164,5.0141,5.0735,5.1453,5.2078,5.3664,5.5262,5.6346,5.6165,5.6097,0.0,0.0,0.0,0.0,5.7047,5.618,5.4444,5.2268,5.0192,4.846,4.6474,4.579,4.6957,4.5148,0.0,0.0,0.0,0.0,5.0548,0.0,5.3031,5.3853,5.5045,5.5643,5.5665,5.5437,5.5556,5.5946,5.5341,5.4941,5.473,5.4799,5.4698,5.4505,5.4505,5.4405,5.4235,5.4092,5.3982,5.3832,5.3676,5.3598,5.3629,-3.9663,-3.8916,-3.8857,-4.0831,-4.0627,-4.0648,-4.1709,-4.2126,-4.2377,-4.2315,-4.297,-4.2709,-4.0828,-4.0534,-4.0546,-4.0691,-3.8145,-3.7649,-4.0247,-3.2422,-2.7384,-2.6701,-2.0725,-1.6861,-1.5853,-1.5653,-1.7213,-2.0298,-1.6182,-1.5837,-1.8763,-0.96,-0.3391,0.0,-0.1112,0.0629,0.4588,0.5159,0.5619,0.5992,0.5262,0.5002,0.5111,0.497,0.8601,1.4171,1.7679,2.2947,2.8994,3.3675,3.606,3.7742,4.0956,4.4674,4.8286,5.0092,5.1398,5.2405,5.3442,5.3161,5.2714,5.2971,5.2251,5.1559,5.1768,5.2122,5.2585,5.3414,5.5309,5.7213,5.8427,5.7911,5.7692,5.8861,0.0,0.0,0.0,5.7638,5.6508,5.4737,5.2007,5.0079,4.9596,4.7416,4.6745,4.8516,0.0,0.0,0.0,0.0,0.0,0.0,0.0,0.0,0.0,5.5345,5.5865,5.5938,5.5707,5.5861,5.6367,5.5556,5.5102,5.4941,5.4941,5.4822,5.4571,5.4571,5.4472,5.4303,5.4164,5.4092,5.4055,5.3869,5.383,5.3903,-3.9691,-3.9451,-3.9596,-4.1281,-4.1918,-4.1823,-4.0593,-4.1843,-4.2457,-4.1075,-4.1571,-4.2841,-4.4689,-4.4311,-4.4517,-4.6107,-4.5631,-4.5537,-4.5888,-3.7867,-3.2563,0.0,0.0,-1.6341,-1.4014,-1.4131,-1.3324,-1.1608,0.0,0.0,-1.3294,-0.5953,-0.2583,-0.2639,-0.0629,0.1022,0.2359,0.3597,0.5133,0.6702,0.7626,0.8676,0.9747,0.9802,1.3185,1.8464,2.1244,2.8008,3.6072,4.0079,4.5306,4.9576,4.6103,4.7711,5.106,5.2071,5.3082,5.4072,5.4994,5.5257,5.5441,5.6257,5.5508,5.4719,5.545,5.5023,5.4597,5.499,5.6113,5.7022,5.7004,5.8738,5.9607,5.8004,0.0,0.0,0.0,5.6943,5.5784,5.4002,5.0731,4.8632,4.8708,4.7058,4.6747,4.8569,0.0,0.0,0.0,0.0,0.0,5.1023,5.1803,0.0,5.3499,5.5178,5.599,5.6001,5.5864,5.571,5.5538,5.5314,5.5157,5.5113,5.5113,5.4971,5.4799,5.4799,5.4705,5.4505,5.4405,5.434,5.4308,5.4127,5.4018,5.4131,-4.0572,-3.9927,-3.9728,-4.049,-4.0185,-3.9848,-3.9903,-4.0235,-4.0824,-4.1644,-4.1771,-4.2722,-4.513,-4.404,-4.3507,0.0,-4.431,-4.4649,0.0,-3.7392,-3.2598,-3.2699,-2.339,-1.76,-1.6291,-1.4403,-1.514,-1.8729,0.0,0.0,0.0,-0.4851,-0.2351,0.0131,0.249,0.3973,0.4992,0.7848,0.9232,0.9673,1.1002,1.1454,1.2025,1.7345,2.0367,2.2642,2.8632,3.4683,4.0473,4.3991,4.7991,5.1442,5.1766,5.3107,5.47,5.5562,5.626,5.6878,5.7339,5.7279,5.719,5.7417,5.6853,5.6133,5.5772,5.5806,5.6026,5.6314,5.6849,5.7633,5.8789,5.9202,5.9394,5.9474,5.9963,0.0,5.8822,0.0,5.6723,5.495,5.3259,5.1786,5.0634,4.997,0.0,0.0,0.0,0.0,0.0,0.0,0.0,0.0,5.2547,0.0,5.4504,5.5644,5.6187,5.6201,5.6637,5.7043,5.7439,5.7905,5.7416,5.6231,5.6818,5.6332,5.5123,5.5616,5.5502,5.4933,5.4603,5.4505,5.4571,5.4371,5.4306,5.4343,-4.016,-3.9312,-3.8767,-3.8921,-3.9216,-3.9414,-3.9266,-3.9879,-4.0526,-4.1103,-4.1072,-4.1562,-4.2997,-4.2814,0.0,-4.4157,-4.413,-4.4455,-4.5679,-3.9235,-3.5676,-3.6324,-2.8745,-2.3146,-2.0351,-1.8332,0.0,-2.0151,-1.2242,-0.742,-0.5583,-0.2726,-0.0682,0.0817,0.4741,0.6537,0.6889,1.0968,1.2855,1.3234,1.4611,1.6082,1.8079,2.3135,2.6489,2.9125,3.4849,4.0202,4.4967,4.8004,5.1098,5.3887,5.5482,5.6587,5.7386,5.7606,5.8031,5.8516,5.8831,5.8875,5.8873,5.897,5.8418,5.7642,5.6852,5.6996,5.7258,5.7159,5.7821,5.8527,5.8969,5.9538,6.0052,6.0292,6.0096,5.9709,5.9174,0.0,5.6171,5.447,5.3468,0.0,0.0,5.1352,5.1513,0.0,0.0,0.0,0.0,0.0,0.0,5.2154,5.3545,0.0,5.5989,5.6552,5.698,5.7302,5.7677,5.807,5.8452,5.8893,5.8418,5.732,5.7834,5.7353,5.6255,5.6709,5.6415,5.5652,5.5337,5.5056,5.4784,5.4635,5.4538,5.4538,-3.8687,-3.7868,-3.7036,0.0,-3.8743,0.0,-3.8489,-4.022,-4.1196,-3.9717,-3.9601,-3.9636,-3.9285,-4.0794,-4.2907,-4.5449,0.0,0.0,0.0,-4.2769,-4.0733,-4.1251,-3.6914,-3.1705,-2.5745,-2.49,-2.2141,-1.7087,-1.0444,-0.7233,-0.7369,-0.0417,0.1545,-0.028,0.5968,0.8751,0.8772,1.3006,1.5827,1.7673,1.8598,2.2069,2.676,2.773,3.1536,3.6908,4.0079,4.4526,4.9309,5.186,5.4441,5.6717,5.747,5.8401,5.9102,5.8381,5.8632,5.9177,5.953,5.9916,6.0326,6.0689,6.0057,5.9158,5.8472,5.8357,5.8259,5.756,5.8817,5.9554,5.7992,5.9747,6.1193,6.0505,5.9602,5.9016,5.9096,5.6905,5.4679,0.0,0.0,0.0,0.0,5.1639,5.2617,0.0,0.0,0.0,0.0,0.0,5.1491,5.3892,5.4796,5.6012,5.7673,5.7767,5.8234,5.9069,5.8976,5.8908,5.8886,5.8678,5.851,5.841,5.8341,5.8165,5.7927,5.8004,5.743,5.6534,5.6425,5.5836,5.5028,5.4941,5.4852,5.4754,0.0,0.0,-3.6887,-3.5268,-3.7234,-3.8571,-3.7192,-3.819,-3.8836,-3.8318,-3.8114,-3.8413,-3.9675,-3.936,-4.0148,-4.3022,-4.3893,-4.4679,-4.5608,-4.1749,-3.9686,-4.0228,-3.5657,-3.2194,-3.0337,-2.5855,-2.264,-2.0751,-1.8066,-1.687,-1.6854,-0.7288,-0.1998,-0.0421,0.3937,0.9308,1.5395,1.653,2.0323,2.5613,2.4568,2.6521,3.0334,3.3423,3.6414,3.9594,4.478,4.8858,5.1921,5.3381,5.5616,5.7855,5.8307,5.899,5.9559,5.914,5.9564,6.0132,5.9938,6.0272,6.0681,6.0804,6.0324,5.9791,5.9627,5.9138,5.8715,5.8559,5.8909,5.9156,5.873,5.9244,5.9842,6.0256,5.9059,5.832,5.8955,5.7368,5.5723,0.0,5.4987,5.4762,5.3429,5.4509,5.4689,0.0,0.0,0.0,0.0,5.375,5.4317,5.4879,5.5705,5.6686,5.7779,5.8428,5.9147,5.9902,5.9903,6.0161,6.0773,6.0662,6.0195,5.9564,6.019,5.9649,5.8308,5.8896,5.8274,5.6906,5.6587,5.5973,5.5262,5.514,5.5019,5.5104,-3.6362,-3.6117,-3.5803,-3.5194,-3.6838,-3.7953,-3.7269,-3.701,-3.6949,-3.7206,-3.6438,-3.6329,-3.7399,-3.7881,-3.8889,-4.0521,-4.1574,-4.2821,-4.4306,-4.2395,-4.1368,-4.1832,-3.9799,-3.7323,-3.4404,-3.2109,-2.9206,-2.5661,-2.4943,-2.1297,-1.4782,-0.6679,-0.2405,-0.0853,1.1851,1.774,1.8665,2.5246,2.9944,3.2922,3.1888,3.4115,3.8233,4.0711,4.3519,4.6706,5.0993,5.389,5.5942,5.6868,5.8281,5.9628,5.9771,6.0007,6.0303,6.0158,6.0367,6.0535,6.0392,6.0706,6.1087,6.1158,6.0925,6.0695,6.074,6.0424,6.002,5.9646,5.994,6.0096,5.9684,5.9606,5.979,6.0236,5.8546,5.7498,5.8304,5.6922,5.5831,5.5762,5.6152,5.6082,5.5187,5.5918,5.6051,5.5048,5.5432,0.0,5.5577,5.6458,5.6638,5.584,5.7047,5.8098,5.8996,5.9837,6.0477,6.0886,6.0878,6.108,6.15,6.1408,6.1109,6.0614,6.1009,6.0595,5.963,5.9605,5.8852,5.7695,5.7402,5.6548,5.5623,5.6218,5.6243,5.5988,-3.5229,-3.4847,-3.4876,-3.5453,-3.675,-3.7691,-3.7529,-3.6054,-3.5107,-3.5501,-3.4288,-3.3624,-3.4004,-3.5876,-3.7298,-3.7903,-3.823,-3.9593,-4.2501,-4.2735,-4.2796,-4.2932,-4.4594,-4.2763,-3.7017,-3.9295,-3.7662,-3.1738,-3.1102,-2.398,-1.0713,-0.3914,-0.0,0.2047,2.2413,2.8473,2.4219,3.5657,4.0614,4.0591,4.0259,4.3081,4.7436,4.8273,5.1037,5.4805,5.6947,5.8681,6.0029,6.0667,6.1128,6.1391,6.1306,6.1209,6.1138,6.1134,6.107,6.0993,6.0848,6.1119,6.1442,6.1578,6.1567,6.1534,6.159,6.1603,6.1417,6.0723,6.1179,6.14,6.0466,6.0182,6.0059,5.9942,5.7974,5.6706,5.7391,0.0,5.5637,5.6299,5.6397,5.6425,5.6472,5.6407,5.6718,5.751,5.7672,5.8061,5.8864,5.9105,5.8631,5.742,5.8633,5.9726,6.0583,6.1313,6.1768,6.1881,6.1764,6.1744,6.1807,6.1627,6.1573,6.1603,6.1368,6.1191,6.1059,6.0113,5.9127,5.8219,5.8088,5.7159,5.6049,5.7435,5.7541,5.7095,-3.2824,-3.4538,-3.5811,-3.4547,-3.6491,-3.7524,-3.5396,-3.4207,-3.2952,-3.1431,-3.0201,-3.0219,-3.2049,-3.1742,-3.2505,-3.4984,-3.3848,-3.4944,-3.9337,-3.9128,-3.8475,-3.7673,-4.1321,-4.0885,-3.5626,-3.9791,-4.132,-3.9798,-3.597,-2.992,-2.16,-0.6925,0.6078,1.7438,2.4152,3.3319,4.3611,4.2966,4.6139,5.1357,5.0256,5.1177,5.3169,5.3922,5.6073,5.8694,5.953,6.0916,6.2315,6.2239,6.2099,6.1959,6.195,6.2105,6.2206,6.1483,6.1823,6.2313,6.1525,6.1421,6.1578,6.1517,6.1576,6.1676,6.1694,6.1632,6.1562,6.1525,6.1509,6.1295,6.0442,5.9601,5.8849,5.8218,5.7118,5.6386,5.6484,0.0,5.6241,5.6325,5.6314,5.6314,5.6325,5.6336,5.6386,5.6531,5.7312,5.7814,5.7922,5.9357,6.0399,6.0895,6.0436,6.0613,6.1484,6.164,6.2069,6.28,6.2052,6.208,6.2764,6.1946,6.1985,6.264,6.181,6.1376,6.1213,6.0278,5.8913,5.739,5.731,5.7093,5.6819,5.7021,5.7412,5.8016,-3.1788,-3.2396,-3.2863,-3.2819,-3.3877,-3.4306,-3.3218,-3.0792,-2.898,-2.8918,-2.7057,-2.626,-2.7686,-2.8114,-2.8424,-2.8707,-2.7899,-2.7507,-2.7604,-3.1789,-3.4,-3.3545,-3.7088,-3.7584,-3.4705,-3.8978,-3.9776,-3.6623,-3.5482,-2.8693,-1.6406,-0.274,1.0759,2.4014,3.4747,4.2953,4.8855,5.2287,5.5275,5.7525,5.6221,5.6894,5.8554,5.8343,6.0049,6.2561,6.2762,6.3473,6.436,6.4401,6.4058,6.3687,6.3676,6.3536,6.3208,6.2831,6.2452,6.2071,6.1676,6.1564,6.1612,6.1616,6.1631,6.1716,6.1713,6.1678,6.1647,6.1603,6.1528,6.1394,6.0989,6.0048,5.9241,5.9024,5.7392,0.0,0.0,5.6188,5.5811,5.6187,5.6291,5.6317,5.6317,5.6302,5.6481,5.6947,5.7429,5.8277,5.9679,6.0126,6.1166,6.2999,6.2239,6.1754,6.1694,6.1709,6.1913,6.2302,6.2382,6.2612,6.2982,6.3003,6.3208,6.3553,6.3052,6.2549,6.1924,6.0483,5.9392,5.8604,5.8085,5.8142,5.8546,5.8946,5.9303,5.9719,-3.0223,-3.0027,-2.9775,-3.0591,-3.0627,-3.0334,-2.9766,-2.609,-2.3863,-2.4937,-2.2483,-2.0972,-2.159,-2.2957,-2.2903,-2.0859,-2.0589,-1.8981,-1.5091,-2.0529,-2.465,-2.6565,-2.7849,-2.8521,-2.8474,-3.2272,-3.2314,-2.8219,-2.902,-2.1473,-0.6237,0.6066,1.867,3.1635,4.5918,5.2419,5.3159,6.0449,6.2981,6.1906,6.0958,6.1571,6.2934,6.225,6.3427,6.5418,6.5373,6.5583,6.5879,6.6096,6.5675,6.5072,6.5116,6.4719,6.417,6.3951,6.3026,6.2104,6.2205,6.2201,6.2169,6.2212,6.2058,6.1971,6.2167,6.2063,6.1907,6.181,6.1719,6.1628,6.1419,6.0522,5.9719,5.9512,0.0,0.0,0.0,5.6223,5.5835,5.6614,5.6985,5.7144,5.7144,5.7159,5.7534,5.8363,5.8465,5.946,6.1662,6.1401,6.2084,6.4072,6.3569,6.2765,6.1712,6.1871,6.2094,6.2302,6.2768,6.3202,6.3629,6.404,6.4325,6.4496,6.4179,6.3648,6.2899,6.1235,6.0422,6.014,5.9452,5.9668,6.0461,6.0828,6.1074,6.1241,-2.6953,-2.811,-2.8878,-2.8257,-2.7328,-2.5982,-2.3904,-1.9811,-1.7261,-1.777,-1.4937,-1.2905,-1.3181,-1.4639,-1.451,-1.192,-1.1296,-0.971,-0.6356,-0.3832,-0.5621,-1.2881,-0.9444,-0.8623,-1.1311,-1.475,-1.6264,-1.5915,-1.3447,-0.6614,0.4613,1.9945,3.3833,4.63,5.3003,5.8847,6.373,6.5215,6.5736,6.5534,6.5566,6.551,6.5474,6.5698,6.5995,6.6318,6.6439,6.6525,6.6633,6.6633,6.6049,6.5271,6.5278,6.525,6.5016,6.4077,6.3621,6.3514,6.3759,6.3776,6.3767,6.3815,6.3164,6.2764,6.3636,6.321,6.2603,6.2587,6.246,6.2134,6.1423,6.0419,5.9225,5.7815,0.0,0.0,5.6205,5.672,5.7417,5.8217,5.9121,5.962,5.962,5.9769,6.0109,6.0887,6.1097,6.1627,6.2562,6.3339,6.3819,6.4025,6.4003,6.3224,6.1612,6.2391,6.324,6.4106,6.3377,6.3845,6.5364,6.4641,6.4687,6.5346,6.456,6.412,6.3904,6.2896,6.1966,6.1205,6.1128,6.1585,6.2198,6.1407,6.1524,6.2,-2.266,-2.1984,-2.0712,-1.8993,-1.8653,-1.7707,-1.4388,-1.2102,-1.062,-1.004,-0.7064,-0.4642,-0.3748,-0.3156,-0.1639,0.0823,0.1899,0.4184,0.8293,1.0839,0.7621,-0.2372,0.023,0.2119,0.2612,-0.1397,-0.0861,0.4557,0.6051,1.2172,2.265,3.4692,4.5269,5.4285,5.8968,6.2502,6.4986,6.5767,6.6091,6.6081,6.6108,6.6439,6.6907,6.6446,6.6658,6.7216,6.6797,6.6638,6.663,6.6655,6.6393,6.6087,6.598,6.5926,6.5839,6.543,6.5095,6.4956,6.5255,6.4511,6.3751,6.3842,6.3598,6.3443,6.3845,6.3648,6.3224,6.2637,6.243,6.2104,6.1273,6.071,6.0222,5.9707,0.0,5.8585,5.8394,5.8162,5.8298,5.9128,5.9128,5.9243,5.9782,5.9459,5.9584,6.0406,6.0565,6.1434,6.3351,6.4818,6.5127,6.4013,6.5072,6.4831,6.3185,6.3522,6.3897,6.4241,6.4492,6.4935,6.5528,6.5234,6.5258,6.5546,6.5166,6.47,6.4111,6.372,6.3352,6.2924,6.238,6.2944,6.3951,6.2538,6.2817,6.3729,-1.657,-1.4884,-1.247,-0.9998,-0.9742,-0.8765,-0.5344,-0.3817,-0.2694,-0.1694,0.1409,0.4213,0.584,0.7533,0.9385,1.1932,1.3678,1.6298,2.0354,2.3907,2.1457,1.1814,1.275,1.5276,1.8656,1.4052,1.5299,2.2981,2.3753,2.8633,3.7341,4.5902,5.3311,5.9586,6.1939,6.383,6.5293,6.584,6.6108,6.6209,6.6156,6.663,6.7255,6.656,6.6757,6.7347,6.6837,6.6588,6.6549,6.6546,6.6504,6.6446,6.6299,6.6167,6.6123,6.6036,6.5846,6.5663,6.5846,6.5041,6.4188,6.4423,6.4248,6.4131,6.4455,6.4283,6.3785,6.2858,6.2562,6.2188,6.1081,6.0757,6.0681,6.0552,6.0157,5.9842,5.9682,5.9353,5.9331,5.9948,5.978,5.9881,6.0441,6.0131,6.0184,6.1057,6.0942,6.174,6.3759,6.5089,6.5194,6.4001,6.5401,6.5633,6.4488,6.4558,6.4599,6.4613,6.4989,6.5321,6.5534,6.531,6.5194,6.5208,6.515,6.4769,6.4224,6.4471,6.4499,6.4429,6.4079,6.4623,6.5421,6.3969,6.4116,6.479,-0.8494,-0.72,-0.4797,-0.2544,-0.1132,0.0425,0.2702,0.4994,0.6713,0.7389,1.0505,1.3464,1.581,1.646,1.7868,2.0429,2.298,2.5592,2.8639,3.5128,3.6568,3.1021,3.0171,3.2324,3.7854,3.2277,3.2163,3.7988,3.8965,4.1923,4.7019,5.2544,5.7785,6.2521,6.1461,6.2822,6.5808,6.5958,6.6066,6.6178,6.6252,6.6373,6.6501,6.639,6.64,6.6507,6.6507,6.6489,6.6514,6.6422,6.6373,6.6281,6.6144,6.5967,6.5795,6.5635,6.5532,6.5413,6.5413,6.5352,6.5413,6.5895,6.5303,6.4845,6.5774,6.5226,6.4257,6.3399,6.3115,6.2536,6.0904,6.0571,6.0291,5.9642,6.0195,6.0416,5.9509,6.0147,6.0685,6.0685,6.1535,6.2066,6.2105,6.2277,6.2704,6.345,6.2897,6.2874,6.374,6.3851,6.3922,6.3922,6.473,6.5241,6.5284,6.5377,6.5433,6.5496,6.4677,6.4774,6.557,6.468,6.4297,6.4291,6.4271,6.4241,6.4248,6.5145,6.5455,6.55,6.6357,6.6657,6.6504,6.5622,6.5202,6.487,-0.0142,0.1694,0.4648,0.8149,0.7912,0.8781,1.3964,1.3751,1.3916,1.6254,1.9403,2.2405,2.4834,2.781,3.0176,3.1702,3.4348,3.6832,3.9031,4.2663,4.3713,4.1509,3.9823,4.0432,4.3765,4.3539,4.5096,4.8659,5.1611,5.4047,5.5945,5.8619,6.0981,6.2913,6.2184,6.2761,6.4353,6.5199,6.5558,6.5551,6.6453,6.7161,6.7708,6.7753,6.8161,6.8584,6.7926,6.7464,6.7116,6.7016,6.6587,6.6157,6.6474,6.6835,6.7156,6.7255,6.7038,6.6844,6.7108,6.7011,6.6641,6.5848,6.5471,6.5383,6.5718,6.559,6.5141,6.4296,6.4077,6.3526,6.1693,6.136,6.1119,6.0329,6.0406,6.0482,6.0265,6.0457,6.0866,6.153,6.131,6.1358,6.2066,6.1692,6.1734,6.2502,6.3051,6.3709,6.4522,6.4692,6.4726,6.4726,6.5025,6.4945,6.4468,6.5072,6.5728,6.6322,6.5517,6.5267,6.5502,6.468,6.3984,6.3398,6.3377,6.3349,6.3364,6.4223,6.4895,6.5416,6.5748,6.6195,6.654,6.5672,6.5686,6.5906,0.9439,1.1518,1.4302,1.7381,1.6884,1.7485,2.17,2.1145,2.112,2.3842,2.664,2.9146,3.1392,3.4677,3.7188,3.8258,4.1153,4.3457,4.4487,4.6134,4.6943,4.6451,4.5952,4.6432,4.8071,5.0077,5.257,5.5494,5.8236,6.0517,6.2151,6.2089,6.2982,6.4651,6.3323,6.3393,6.461,6.5322,6.5729,6.5893,6.672,6.7438,6.8014,6.807,6.8444,6.88,6.8317,6.7898,6.7526,6.7513,6.7088,6.6633,6.6965,6.7273,6.7559,6.7664,6.7531,6.7388,6.7566,6.723,6.663,6.5813,6.5803,6.5906,6.5618,6.5569,6.535,6.4451,6.4182,6.3779,6.2748,6.2527,6.2375,6.1936,6.2462,6.2538,6.16,6.1743,6.2076,6.2349,6.139,6.1055,6.1911,6.135,6.1125,6.167,6.2277,6.2839,6.3342,6.3824,6.4072,6.4072,6.4466,6.4644,6.4531,6.4753,6.5345,6.6195,6.5081,6.4671,6.4938,6.381,6.2965,6.2499,6.249,6.2466,6.2485,6.3377,6.4014,6.4462,6.5221,6.5553,6.5678,6.5834,6.5995,6.592,1.9516,2.1667,2.3728,2.5041,2.5351,2.5779,2.6899,2.6998,2.7883,3.0245,3.242,3.4328,3.5961,3.8303,4.0103,4.1314,4.4676,4.6578,4.6292,4.7047,4.7541,4.7494,4.9249,5.0492,5.112,5.3017,5.569,5.9097,6.0181,6.2395,6.5573,6.3484,6.4129,6.7008,6.4662,6.4433,6.5788,6.5975,6.6244,6.6781,6.7051,6.7385,6.773,6.7817,6.785,6.7877,6.8112,6.8005,6.7795,6.7852,6.7763,6.7604,6.7498,6.7501,6.754,6.7468,6.7468,6.743,6.7316,6.671,6.6067,6.5953,6.6248,6.6383,6.5467,6.5283,6.5029,6.4171,6.382,6.3679,6.3954,6.3921,6.3921,6.4045,6.5372,6.5563,6.3238,6.368,6.3923,6.3197,6.185,6.1236,6.1761,6.1286,6.0981,6.1103,6.1134,6.1157,6.1234,6.2104,6.2624,6.2624,6.3507,6.4333,6.5087,6.4428,6.4566,6.5455,6.3865,6.3455,6.404,6.2496,6.1772,6.1713,6.1718,6.1707,6.1754,6.2641,6.3006,6.3163,6.4762,6.4948,6.453,6.605,6.6096,6.5426,2.6446,2.8956,3.0791,3.0263,3.0446,3.1191,3.2787,3.2478,3.2797,3.4862,3.7242,3.9267,4.0354,4.2549,4.4379,4.5342,4.8154,4.965,4.9248,4.9708,4.997,4.9896,5.119,5.2659,5.4352,5.5256,5.7059,5.9762,6.0637,6.2353,6.4897,6.3858,6.465,6.6874,6.5215,6.5009,6.5897,6.5896,6.6075,6.6425,6.7288,6.7758,6.7952,6.883,6.9095,6.8977,6.8975,6.8755,6.8403,6.7859,6.8019,6.841,6.8262,6.8602,6.9053,6.9051,6.8929,6.8659,6.8138,6.8207,6.8161,6.6921,6.6745,6.6522,6.5154,6.4985,6.5047,6.4828,6.4757,6.4757,6.4693,6.4658,6.4693,6.4795,6.5166,6.5302,6.4832,6.4908,6.481,6.4172,6.3657,6.2995,6.2117,6.1959,6.2182,6.2905,6.2352,6.2295,6.2909,6.3204,6.3381,6.3458,6.4251,6.4519,6.4202,6.4104,6.448,6.5405,6.4419,6.3715,6.326,6.2886,6.2349,6.1694,6.1717,6.1711,6.1759,6.2652,6.3377,6.3967,6.4318,6.516,6.6117,6.5787,6.6,6.6368,3.2062,3.3793,3.5086,3.4718,3.4882,3.5352,3.5928,3.6088,3.663,3.8208,4.0219,4.1977,4.3424,4.4995,4.6501,4.7937,4.9776,5.0751,5.0525,5.0817,5.1208,5.1659,5.2711,5.4157,5.5873,5.6553,5.7902,6.0001,6.1003,6.2455,6.4218,6.4076,6.4882,6.6404,6.5457,6.5402,6.6062,6.612,6.6427,6.6926,6.7682,6.8099,6.8346,6.9064,6.9171,6.9034,6.916,6.9073,6.8784,6.8369,6.8361,6.8532,6.8654,6.8871,6.9078,6.9246,6.916,6.8997,6.8628,6.8472,6.8241,6.7373,6.6898,6.6469,6.5426,6.5008,6.4813,6.485,6.4815,6.5042,6.595,6.576,6.5758,6.659,6.6777,6.6695,6.6417,6.6341,6.6102,6.5541,6.467,6.3733,6.2657,6.2977,6.3271,6.332,6.2991,6.2783,6.2799,6.3295,6.3611,6.367,6.4097,6.4578,6.5087,6.5164,6.5272,6.5384,6.4177,6.378,6.4145,6.292,6.2149,6.1681,6.1711,6.1717,6.174,6.2193,6.2641,6.3052,6.3428,6.3842,6.4363,6.5124,6.5912,6.6657,3.6738,3.7843,3.858,3.8291,3.8602,3.8698,3.7954,3.8744,3.9873,4.098,4.2575,4.4177,4.5926,4.6846,4.8134,5.0077,5.0869,5.1291,5.1366,5.1493,5.1955,5.3098,5.3999,5.514,5.6529,5.7371,5.8487,6.0087,6.1201,6.2445,6.3791,6.4288,6.5043,6.5914,6.5668,6.5859,6.638,6.6572,6.7004,6.772,6.7996,6.8334,6.865,6.8846,6.8754,6.8613,6.8983,6.9072,6.8983,6.8929,6.8697,6.842,6.8846,6.8754,6.8565,6.8892,6.8929,6.8838,6.8688,6.824,6.7755,6.7542,6.7038,6.6506,6.6172,6.5423,6.486,6.4823,6.4784,6.531,6.6976,6.671,6.6747,6.8338,6.8489,6.8223,6.78,6.7536,6.7224,6.6726,6.5214,6.3934,6.3302,6.3817,6.3959,6.3384,6.3322,6.3051,6.2474,6.3268,6.3724,6.359,6.3942,6.4754,6.6144,6.6377,6.6309,6.6022,6.4207,6.3928,6.4989,6.2875,6.1832,6.1681,6.1704,6.1717,6.1715,6.185,6.191,6.1972,6.2662,6.2563,6.2305,6.4569,6.589,6.6569,4.0913,4.2724,4.3169,4.0384,4.1167,4.1761,4.0083,4.1191,4.2637,4.3526,4.6116,4.8069,4.8653,5.03,5.1816,5.2698,5.3024,5.3032,5.2957,5.3091,5.3488,5.4277,5.5306,5.6184,5.7024,5.818,5.9298,6.0226,6.0787,6.2099,6.4076,6.4738,6.5403,6.6197,6.6632,6.6867,6.7097,6.7097,6.7451,6.8018,6.793,6.8033,6.8358,6.8371,6.8321,6.8222,6.8468,6.8744,6.8929,6.8983,6.8846,6.8697,6.8707,6.8744,6.866,6.8744,6.8744,6.8548,6.7878,6.8101,6.8362,6.7691,6.7485,6.7427,6.7404,6.6737,6.6078,6.5527,6.594,6.6503,6.6733,6.6776,6.716,6.8337,6.7997,6.7806,6.8522,6.799,6.7262,6.6586,6.5116,6.4046,6.3902,6.3504,6.3537,6.4178,6.3668,6.3614,6.4316,6.4407,6.4209,6.3629,6.4938,6.5564,6.5291,6.604,6.7169,6.8564,6.6213,6.445,6.3332,6.2987,6.2407,6.172,6.1686,6.1707,6.1757,6.2517,6.2813,6.2847,6.287,6.3279,6.3959,6.5026,6.5906,6.662,4.2526,4.3441,4.3661,4.2188,4.2438,4.2463,4.1353,4.2125,4.333,4.4483,4.6114,4.7763,4.9415,5.1802,5.3221,5.3489,5.4046,5.4192,5.3614,5.3909,5.4503,5.556,5.6429,5.7121,5.7746,5.8395,5.9209,6.0141,6.082,6.177,6.3124,6.4183,6.5043,6.5633,6.5985,6.6391,6.6691,6.6595,6.6889,6.7451,6.756,6.7826,6.8208,6.8272,6.8222,6.8259,6.8358,6.8408,6.8457,6.8517,6.8371,6.8171,6.8468,6.8468,6.8371,6.865,6.865,6.8528,6.824,6.8389,6.8528,6.8203,6.8176,6.7989,6.7589,6.7551,6.7299,6.625,6.6373,6.6641,6.6687,6.6394,6.6515,6.7541,6.7127,6.7009,6.7952,6.7759,6.7262,6.6493,6.583,6.5404,6.5275,6.4711,6.4488,6.487,6.3789,6.3092,6.3092,6.3214,6.313,6.2849,6.4535,6.5314,6.5061,6.6916,6.8047,6.8356,6.7319,6.6176,6.502,6.3637,6.2524,6.172,6.172,6.1697,6.1716,6.2102,6.2283,6.2322,6.2769,6.3754,6.4918,6.4754,6.55,6.6645]},{"header":{"parameterUnit":"m.s-1","parameterCategory":1,"la1":30.6,"la2":28.766,"lo1":-90.7593,"lo2":-88.6598,"dy":0.0162,"dx":0.0183,"nx":116,"ny":114,"refTime":"2024-04-07T00:00:00:Z","depth":0,"parameterNumber":3,"parameterNumberName":"V-component_of_WINDS"},"data":[0.0,0.0,0.0,0.0,0.0,0.0,0.0,0.0,0.0,0.0,0.0,0.0,0.0,0.0,0.0,0.0,0.0,0.0,0.0,0.0,0.0,0.0,0.0,0.0,0.0,0.0,0.0,0.0,0.0,0.0,0.0,0.0,0.0,0.0,0.0,0.0,0.0,0.0,0.0,0.0,0.0,0.0,0.0,0.0,0.0,0.0,0.0,0.0,0.0,0.0,0.0,0.0,0.0,0.0,0.0,0.0,0.0,0.0,0.0,0.0,0.0,0.0,0.0,0.0,0.0,0.0,0.0,0.0,0.0,0.0,0.0,0.0,0.0,0.0,0.0,0.0,0.0,0.0,0.0,0.0,0.0,0.0,0.0,0.0,0.0,0.0,0.0,0.0,0.0,0.0,0.0,0.0,0.0,0.0,0.0,0.0,0.0,0.0,0.0,0.0,0.0,0.0,0.0,0.0,0.0,0.0,0.0,0.0,0.0,0.0,0.0,0.0,0.0,0.0,0.0,0.0,0.0,0.0,0.0,0.0,0.0,0.0,0.0,0.0,0.0,0.0,0.0,0.0,0.0,0.0,0.0,0.0,0.0,0.0,0.0,0.0,0.0,0.0,0.0,0.0,0.0,0.0,0.0,0.0,0.0,0.0,0.0,0.0,0.0,0.0,0.0,0.0,0.0,0.0,0.0,0.0,0.0,0.0,0.0,0.0,0.0,0.0,0.0,0.0,0.0,0.0,0.0,0.0,0.0,0.0,0.0,0.0,0.0,0.0,0.0,0.0,0.0,0.0,0.0,0.0,0.0,0.0,0.0,0.0,0.0,0.0,0.0,0.0,0.0,0.0,0.0,0.0,0.0,0.0,0.0,0.0,0.0,0.0,0.0,0.0,0.0,0.0,0.0,0.0,0.0,0.0,0.0,0.0,0.0,0.0,0.0,0.0,0.0,0.0,0.0,0.0,0.0,0.0,0.0,0.0,0.0,0.0,0.0,0.0,0.0,0.0,0.0,0.0,0.0,0.0,0.0,0.0,0.0,0.0,0.0,0.0,0.0,0.0,0.0,0.0,0.0,0.0,0.0,0.0,0.0,0.0,0.0,0.0,0.0,0.0,0.0,0.0,0.0,0.0,0.0,0.0,0.0,0.0,0.0,0.0,0.0,0.0,0.0,0.0,0.0,0.0,0.0,0.0,0.0,0.0,0.0,0.0,0.0,0.0,0.0,0.0,0.0,0.0,0.0,0.0,0.0,0.0,0.0,0.0,0.0,0.0,0.0,0.0,0.0,0.0,0.0,0.0,0.0,0.0,0.0,0.0,0.0,0.0,0.0,0.0,0.0,0.0,0.0,0.0,0.0,0.0,0.0,0.0,0.0,0.0,0.0,0.0,0.0,0.0,0.0,0.0,0.0,0.0,0.0,0.0,0.0,0.0,0.0,0.0,0.0,0.0,0.0,0.0,0.0,0.0,0.0,0.0,0.0,0.0,0.0,0.0,0.0,0.0,0.0,0.0,0.0,0.0,0.0,0.0,0.0,0.0,0.0,0.0,0.0,0.0,0.0,0.0,0.0,0.0,0.0,0.0,0.0,0.0,0.0,0.0,0.0,0.0,0.0,0.0,0.0,0.0,0.0,0.0,0.0,0.0,0.0,0.0,0.0,0.0,0.0,0.0,0.0,0.0,0.0,0.0,0.0,0.0,0.0,0.0,0.0,0.0,0.0,0.0,0.0,0.0,0.0,0.0,0.0,0.0,0.0,0.0,0.0,0.0,0.0,0.0,0.0,0.0,0.0,0.0,0.0,0.0,0.0,0.0,0.0,0.0,0.0,0.0,0.0,0.0,0.0,0.0,0.0,0.0,0.0,0.0,0.0,0.0,0.0,0.0,0.0,0.0,0.0,0.0,0.0,0.0,0.0,0.0,0.0,0.0,0.0,0.0,0.0,0.0,0.0,0.0,0.0,0.0,0.0,0.0,0.0,0.0,0.0,0.0,0.0,0.0,0.0,0.0,0.0,0.0,0.0,0.0,0.0,0.0,0.0,0.0,0.0,0.0,0.0,0.0,0.0,0.0,0.0,0.0,0.0,0.0,0.0,0.0,0.0,0.0,0.0,0.0,0.0,0.0,0.0,0.0,0.0,0.0,0.0,0.0,0.0,0.0,0.0,0.0,0.0,0.0,0.0,0.0,0.0,0.0,0.0,0.0,0.0,0.0,0.0,0.0,0.0,0.0,0.0,0.0,0.0,0.0,0.0,0.0,0.0,0.0,0.0,0.0,0.0,0.0,0.0,0.0,0.0,0.0,0.0,0.0,0.0,0.0,0.0,0.0,0.0,0.0,0.0,0.0,0.0,0.0,0.0,0.0,0.0,0.0,0.0,0.0,0.0,0.0,0.0,0.0,0.0,0.0,0.0,0.0,0.0,0.0,0.0,0.0,0.0,0.0,0.0,0.0,0.0,0.0,0.0,0.0,0.0,0.0,0.0,0.0,0.0,0.0,0.0,0.0,0.0,0.0,0.0,0.0,0.0,0.0,0.0,0.0,0.0,0.0,0.0,0.0,0.0,0.0,0.0,0.0,0.0,0.0,0.0,0.0,0.0,0.0,0.0,0.0,0.0,0.0,0.0,0.0,0.0,0.0,0.0,0.0,0.0,0.0,0.0,0.0,0.0,0.0,0.0,0.0,0.0,0.0,0.0,0.0,0.0,0.0,0.0,0.0,0.0,0.0,0.0,0.0,0.0,0.0,0.0,0.0,0.0,0.0,0.0,0.0,0.0,0.0,0.0,0.0,0.0,0.0,0.0,0.0,0.0,0.0,0.0,0.0,0.0,0.0,0.0,0.0,0.0,0.0,0.0,0.0,0.0,0.0,0.0,0.0,0.0,0.0,0.0,0.0,0.0,0.0,0.0,0.0,0.0,0.0,0.0,0.0,0.0,0.0,0.0,0.0,0.0,0.0,0.0,0.0,0.0,0.0,0.0,0.0,0.0,0.0,0.0,0.0,0.0,0.0,0.0,0.0,0.0,0.0,0.0,0.0,0.0,0.0,0.0,0.0,0.0,0.0,0.0,0.0,0.0,0.0,0.0,0.0,0.0,0.0,0.0,0.0,0.0,0.0,0.0,0.0,0.0,0.0,0.0,0.0,0.0,0.0,0.0,0.0,0.0,0.0,0.0,0.0,0.0,0.0,0.0,0.0,0.0,0.0,0.0,0.0,0.0,0.0,0.0,0.0,0.0,0.0,0.0,0.0,0.0,0.0,0.0,0.0,0.0,0.0,0.0,0.0,0.0,0.0,0.0,0.0,0.0,0.0,0.0,0.0,0.0,0.0,0.0,0.0,0.0,0.0,0.0,0.0,0.0,0.0,0.0,0.0,0.0,0.0,0.0,0.0,0.0,0.0,0.0,0.0,0.0,0.0,0.0,0.0,0.0,0.0,0.0,0.0,0.0,0.0,0.0,0.0,0.0,0.0,0.0,0.0,0.0,0.0,0.0,0.0,0.0,0.0,0.0,0.0,0.0,0.0,0.0,0.0,0.0,0.0,0.0,0.0,0.0,0.0,0.0,0.0,0.0,0.0,0.0,0.0,0.0,0.0,0.0,0.0,0.0,0.0,0.0,0.0,0.0,0.0,0.0,0.0,0.0,0.0,0.0,0.0,0.0,0.0,0.0,0.0,0.0,0.0,0.0,0.0,0.0,0.0,0.0,0.0,0.0,0.0,0.0,0.0,0.0,0.0,0.0,0.0,0.0,0.0,0.0,0.0,0.0,0.0,0.0,0.0,0.0,0.0,0.0,0.0,0.0,0.0,0.0,0.0,0.0,0.0,0.0,0.0,0.0,0.0,0.0,0.0,0.0,0.0,0.0,0.0,0.0,0.0,0.0,0.0,0.0,0.0,0.0,0.0,0.0,0.0,0.0,0.0,0.0,0.0,0.0,0.0,0.0,0.0,0.0,0.0,0.0,0.0,0.0,0.0,0.0,0.0,0.0,0.0,0.0,0.0,0.0,0.0,0.0,0.0,0.0,0.0,0.0,0.0,0.0,0.0,0.0,0.0,0.0,0.0,0.0,0.0,0.0,0.0,0.0,0.0,0.0,0.0,0.0,0.0,0.0,0.0,0.0,0.0,0.0,0.0,0.0,0.0,0.0,0.0,0.0,0.0,0.0,0.0,0.0,0.0,0.0,0.0,0.0,0.0,0.0,0.0,0.0,0.0,0.0,0.0,0.0,0.0,0.0,0.0,0.0,0.0,0.0,0.0,0.0,0.0,0.0,0.0,0.0,0.0,0.0,0.0,0.0,0.0,0.0,0.0,0.0,0.0,0.0,0.0,0.0,0.0,0.0,0.0,0.0,0.0,0.0,0.0,0.0,0.0,0.0,0.0,0.0,0.0,0.0,0.0,0.0,0.0,0.0,0.0,0.0,0.0,0.0,0.0,0.0,0.0,0.0,0.0,0.0,0.0,0.0,0.0,0.0,0.0,0.0,0.0,0.0,0.0,0.0,0.0,0.0,0.0,0.0,0.0,0.0,0.0,0.0,0.0,0.0,0.0,0.0,0.0,0.0,0.0,0.0,0.0,0.0,0.0,0.0,0.0,0.0,0.0,0.0,0.0,0.0,0.0,0.0,0.0,0.0,0.0,0.0,0.0,0.0,0.0,0.0,0.0,0.0,0.0,0.0,0.0,0.0,0.0,0.0,0.0,0.0,0.0,0.0,0.0,0.0,0.0,0.0,0.0,0.0,0.0,0.0,0.0,0.0,0.0,0.0,0.0,0.0,0.0,0.0,0.0,0.0,0.0,0.0,0.0,0.0,0.0,0.0,0.0,0.0,0.0,0.0,0.0,0.0,0.0,0.0,0.0,0.0,0.0,0.0,0.0,0.0,0.0,0.0,0.0,0.0,0.0,0.0,0.0,0.0,0.0,0.0,0.0,0.0,0.0,0.0,0.0,0.0,0.0,0.0,0.0,0.0,0.0,0.0,0.0,0.0,0.0,0.0,0.0,0.0,0.0,0.0,0.0,0.0,0.0,0.0,0.0,0.0,0.0,0.0,0.0,0.0,0.0,0.0,0.0,0.0,0.0,0.0,0.0,0.0,0.0,0.0,0.0,0.0,0.0,0.0,0.0,0.0,0.0,0.0,0.0,0.0,0.0,0.0,0.0,0.0,0.0,0.0,0.0,0.0,0.0,0.0,0.0,0.0,0.0,0.0,0.0,0.0,0.0,0.0,0.0,0.0,0.0,0.0,0.0,0.0,0.0,0.0,0.0,0.0,0.0,0.0,0.0,0.0,0.0,0.0,0.0,0.0,0.0,0.0,0.0,0.0,0.0,0.0,0.0,0.0,0.0,0.0,0.0,0.0,0.0,0.0,0.0,0.0,0.0,0.0,0.0,0.0,0.0,0.0,0.0,0.0,0.0,0.0,0.0,0.0,0.0,0.0,0.0,0.0,0.0,0.0,0.0,0.0,0.0,0.0,0.0,0.0,0.0,0.0,0.0,0.0,0.0,0.0,0.0,0.0,0.0,0.0,0.0,0.0,0.0,0.0,0.0,0.0,0.0,0.0,0.0,0.0,0.0,0.0,0.0,0.0,0.0,0.0,0.0,0.0,0.0,0.0,0.0,0.0,0.0,0.0,0.0,0.0,0.0,0.0,0.0,0.0,0.0,0.0,0.0,0.0,0.0,0.0,0.0,0.0,0.0,0.0,0.0,0.0,0.0,0.0,0.0,0.0,0.0,0.0,0.0,0.0,0.0,0.0,0.0,0.0,0.0,0.0,0.0,0.0,0.0,0.0,0.0,0.0,0.0,0.0,0.0,0.0,0.0,0.0,0.0,0.0,0.0,0.0,0.0,0.0,0.0,0.0,0.0,0.0,0.0,0.0,0.0,0.0,0.0,0.0,0.0,0.0,0.0,0.0,0.0,0.0,0.0,0.0,0.0,0.0,0.0,0.0,0.0,0.0,0.0,0.0,0.0,0.0,0.0,0.0,0.0,0.0,0.0,0.0,0.0,0.0,0.0,0.0,0.0,0.0,0.0,0.0,0.0,0.0,0.0,0.0,0.0,0.0,0.0,0.0,0.0,0.0,0.0,0.0,0.0,0.0,0.0,0.0,0.0,-4.1951,0.0,0.0,0.0,0.0,0.0,0.0,0.0,0.0,0.0,0.0,0.0,0.0,0.0,0.0,0.0,0.0,0.0,0.0,0.0,0.0,0.0,0.0,0.0,0.0,-0.378,-0.4132,-0.4821,-0.5603,-0.6429,-0.7274,0.0,0.0,0.0,0.0,0.0,-1.6971,-1.8282,-1.966,-2.111,-2.2866,-2.4053,-2.4837,-2.5142,-2.4605,-2.3462,0.0,0.0,0.0,0.0,0.0,0.0,0.0,0.0,0.0,0.0,0.0,0.0,0.0,0.0,0.0,0.0,0.0,0.0,0.0,0.0,0.0,0.0,0.0,0.0,0.0,0.0,0.0,0.0,0.0,0.0,0.0,0.0,0.0,0.0,0.0,0.0,0.0,0.0,0.0,0.0,0.0,0.0,0.0,0.0,0.0,0.0,0.0,0.0,0.0,0.0,0.0,0.0,0.0,0.0,0.0,0.0,0.0,0.0,0.0,0.0,0.0,0.0,0.0,0.0,0.0,0.0,0.0,0.0,0.0,0.0,0.0,-4.3897,0.0,0.0,0.0,0.0,0.0,0.0,0.0,0.0,0.0,0.0,0.0,0.0,0.0,0.0,0.0,0.0,0.0,0.0,0.0,0.0,0.0,-0.1187,-0.1489,-0.2381,-0.3044,-0.3266,-0.4882,-0.6375,-0.7689,-0.9317,0.0,0.0,0.0,-1.8027,-2.0577,-2.0778,-2.2115,-2.4708,-2.5969,-2.7669,-2.9833,-3.1601,-3.0939,-2.8251,-2.7727,0.0,0.0,0.0,0.0,0.0,0.0,0.0,0.0,0.0,0.0,0.0,0.0,0.0,0.0,0.0,0.0,0.0,0.0,0.0,0.0,0.0,0.0,0.0,0.0,0.0,0.0,0.0,0.0,0.0,0.0,0.0,0.0,0.0,0.0,0.0,0.0,0.0,0.0,0.0,0.0,0.0,0.0,0.0,0.0,0.0,0.0,0.0,0.0,0.0,0.0,0.0,0.0,0.0,0.0,0.0,0.0,0.0,0.0,0.0,0.0,0.0,0.0,0.0,-4.9629,-4.9354,-4.8475,-4.8472,-4.8943,-4.9663,-4.88,-4.8769,-4.908,-4.6073,0.0,0.0,0.0,0.0,0.0,0.0,0.0,0.0,0.0,0.0,0.0,0.0,0.0,0.0,0.0,0.0,0.0,0.0,0.0,0.0063,0.0,-0.1133,-0.2039,-0.2387,-0.4916,-0.7275,-0.8991,-1.0805,-1.333,-1.6621,-1.8977,-2.0873,-2.232,-2.4516,-2.6025,-2.671,-2.9804,-3.2019,-3.3414,-3.3864,-3.4819,-3.6065,-3.3222,-3.1357,-3.0362,0.0,0.0,0.0,0.0,0.0,0.0,0.0,0.0,0.0,0.0,0.0,0.0,0.0,0.0,0.0,0.0,0.0,0.0,0.0,0.0,0.0,0.0,0.0,0.0,0.0,0.0,0.0,0.0,0.0,0.0,0.0,0.0,0.0,0.0,0.0,0.0,0.0,0.0,0.0,0.0,0.0,-4.3542,-4.4456,0.0,0.0,0.0,0.0,0.0,0.0,0.0,0.0,0.0,0.0,0.0,0.0,0.0,-5.0767,-5.2348,-5.4116,-5.4629,-5.3941,-5.5522,-5.5472,-5.4048,-5.4047,-5.4131,-5.4234,-5.407,0.0,-4.8541,-4.7327,0.0,0.0,0.0,0.0,0.0,0.0,0.0,0.0,0.0,0.0,0.0,0.0,0.0,0.0,0.0,0.0,0.0,0.0,0.0,0.0,0.0,-0.014,-0.1814,-0.2734,-0.7308,-1.0408,-1.1136,-1.3671,-1.6417,-1.9149,-2.1381,-2.3529,-2.5592,-2.7372,-2.9524,-3.2056,-3.4428,-3.585,-3.6429,-3.7171,-3.789,-3.847,-3.8058,-3.6705,-3.4655,-3.3168,0.0,0.0,0.0,0.0,0.0,0.0,0.0,0.0,0.0,0.0,0.0,0.0,0.0,0.0,0.0,0.0,0.0,0.0,0.0,0.0,0.0,0.0,0.0,0.0,0.0,0.0,0.0,0.0,0.0,0.0,0.0,0.0,0.0,0.0,0.0,0.0,0.0,0.0,0.0,-4.327,-4.5413,-4.5192,-4.4471,-4.3475,0.0,0.0,0.0,0.0,0.0,0.0,0.0,0.0,0.0,-5.2949,-5.3571,-5.4465,-5.5653,-5.7014,-5.7263,-5.6441,-5.7226,-5.7026,-5.5879,-5.5375,-5.5179,-5.5134,-5.4635,-5.3364,-5.1466,-4.9985,-4.8222,-4.6328,0.0,0.0,0.0,0.0,-4.4651,-4.4931,0.0,0.0,0.0,0.0,0.0,0.0,0.0,0.0,0.0,0.0,0.0,0.0,0.4196,0.0983,-0.1758,-0.2986,-0.9421,-1.3654,-1.438,-1.7501,-2.0266,-2.2383,-2.4,-2.5967,-2.8404,-3.0232,-3.29,-3.6519,-3.7976,-3.8937,-3.9375,-4.0157,-4.0521,-4.0569,-4.1738,-4.09,-3.8505,-3.6537,-3.5136,-3.3993,0.0,0.0,0.0,0.0,0.0,0.0,0.0,0.0,0.0,0.0,0.0,0.0,0.0,0.0,0.0,0.0,0.0,0.0,0.0,0.0,0.0,0.0,0.0,0.0,0.0,0.0,0.0,0.0,0.0,0.0,0.0,0.0,0.0,0.0,0.0,0.0,0.0,-4.5669,-4.7395,-4.6369,-4.7155,-4.6908,0.0,0.0,0.0,0.0,0.0,0.0,-5.2691,-5.329,-5.4516,-5.6562,-5.7053,-5.7702,-5.8616,-5.9272,-5.9339,-5.8709,-5.8733,-5.828,-5.7493,-5.6835,-5.6406,-5.6171,-5.5504,-5.5148,-5.4796,-5.2707,-5.1083,-4.9846,-4.8826,-4.7508,-4.6371,-4.7678,-4.8029,-4.8113,0.0,0.0,0.0,0.0,0.0,0.0,0.0,0.0,0.0,0.0,0.0,0.3706,0.7033,0.2387,-0.1523,-0.2771,-1.0092,-1.5921,-1.9026,-2.2246,-2.4867,-2.6709,-2.7127,-2.8219,-3.0052,-3.3534,-3.6279,-3.829,-3.9509,-4.0917,-4.2469,-4.2072,-4.2801,-4.4386,-4.3728,-4.2393,-4.0643,-4.046,-3.9422,-3.7647,-3.4389,0.0,0.0,0.0,0.0,0.0,0.0,0.0,0.0,0.0,0.0,0.0,0.0,0.0,0.0,0.0,0.0,0.0,0.0,0.0,0.0,0.0,0.0,0.0,0.0,0.0,0.0,0.0,0.0,0.0,0.0,0.0,0.0,0.0,0.0,0.0,0.0,0.0,0.0,-4.9181,-5.0587,0.0,0.0,0.0,0.0,-5.2794,-5.3812,-5.5504,-5.8086,-5.7585,-5.8428,-6.1019,-6.0438,-6.0495,-6.1378,-6.1504,-6.1548,-6.1482,-6.1518,-6.1034,-6.021,-6.0163,-5.9699,-5.8909,-5.8853,-5.8352,-5.7421,-5.4836,-5.2331,-5.0153,-5.0898,-4.9176,-4.6582,-4.9068,-4.9439,-4.9099,0.0,0.0,0.0,0.0,0.0,0.2523,-0.0157,-0.0263,0.0,0.0,0.0232,0.0424,0.0591,-0.3311,-0.6991,-0.9608,-1.5052,-1.9839,-2.3393,-2.4867,-2.6513,-2.8417,-2.8356,-2.9894,-3.3332,-3.5595,-3.7877,-4.0176,-4.0952,-4.1894,-4.3009,-4.2959,-4.3311,-4.409,-4.4309,-4.4367,-4.4276,-4.3036,-4.2159,-4.1418,-3.8545,-3.6494,0.0,0.0,0.0,0.0,0.0,0.0,0.0,0.0,0.0,0.0,0.0,0.0,0.0,0.0,0.0,0.0,0.0,0.0,0.0,0.0,0.0,0.0,0.0,0.0,0.0,0.0,0.0,0.0,0.0,0.0,0.0,0.0,0.0,0.0,0.0,0.0,0.0,-5.1915,-5.3918,0.0,-5.2916,-5.4516,-5.5981,-5.6725,-5.8579,-6.0134,-6.1253,-6.1584,-6.2201,-6.3187,-6.2457,-6.2173,-6.2497,-6.1952,-6.1716,-6.1697,-6.1686,-6.1509,-6.1159,-6.0633,-6.0204,-5.984,-5.9285,-5.8866,-5.8475,-5.6948,-5.5156,-5.3395,-5.3711,-5.2773,-5.1367,-5.2889,-5.3242,-5.3123,0.0,0.0,0.0,0.0,0.0,0.3352,-0.0606,-0.1214,-0.1711,-0.298,-0.2437,-0.2139,-0.2587,-0.6202,-0.988,-1.3001,-1.8376,-2.3034,-2.6349,-2.7365,-2.8363,-2.9479,-2.9871,-3.1883,-3.5752,-3.7234,-3.9223,-4.1838,-4.1917,-4.2692,-4.4122,-4.4006,-4.4163,-4.4596,-4.5102,-4.5858,-4.6629,-4.5701,-4.5156,-4.472,-4.2418,-4.0457,-3.8674,0.0,0.0,0.0,0.0,0.0,0.0,0.0,0.0,0.0,0.0,0.0,0.0,0.0,0.0,0.0,0.0,0.0,0.0,0.0,0.0,0.0,0.0,0.0,0.0,0.0,0.0,0.0,0.0,0.0,0.0,0.0,0.0,0.0,0.0,-5.2949,-5.4933,-5.4303,-5.7095,-5.8368,-5.6596,-5.8451,-6.011,-6.0864,-6.2438,-6.3565,-6.407,-6.4669,-6.4916,-6.463,-6.4138,-6.371,-6.3391,-6.283,-6.2544,-6.253,-6.2239,-6.2056,-6.1985,-6.1136,-6.0729,-6.0663,-6.0058,-5.9629,-5.9338,-5.8749,-5.7492,-5.5967,-5.5716,-5.4927,-5.4006,-5.4935,-5.5095,-5.4888,0.0,0.0,0.0,0.0,0.0,0.4935,-0.0617,-0.2085,-0.2533,-0.2606,-0.3645,-0.3635,-0.1847,-0.6001,-0.9938,-1.2497,-1.9835,-2.536,-2.7769,-2.9793,-3.0602,-3.0091,-3.1865,-3.42,-3.7074,-3.8385,-4.0339,-4.3047,-4.2395,-4.3402,-4.5847,-4.5266,-4.5473,-4.6287,-4.6246,-4.6697,-4.7567,-4.8415,-4.833,-4.7421,-4.5816,-4.4101,-4.2263,0.0,0.0,0.0,0.0,0.0,0.0,0.0,0.0,0.0,0.0,0.0,0.0,0.0,0.0,0.0,0.0,0.0,0.0,0.0,0.0,0.0,0.0,0.0,0.0,0.0,0.0,0.0,0.0,0.0,0.0,0.0,0.0,0.0,-5.3447,-5.651,-5.807,-5.642,-6.0127,-6.2104,-6.0336,-6.1663,-6.3379,-6.5206,-6.5289,-6.5673,-6.6658,-6.6777,-6.6444,-6.5586,-6.5543,-6.5109,-6.425,-6.4202,-6.4209,-6.4177,-6.3335,-6.2921,-6.2805,-6.1967,-6.1534,-6.1421,-6.1433,-6.0953,-6.0123,-6.0123,-5.9114,-5.7509,-5.6808,-5.5475,-5.408,-5.4918,-5.4702,-5.4087,0.0,0.0,0.0,0.1815,0.1431,-0.0048,-0.3044,-0.3401,-0.3691,-0.4854,-0.6567,-0.7907,-0.87,-1.1734,-1.5286,-1.9093,-2.2855,-2.6207,-2.8935,-2.9176,-2.9828,-3.1296,-3.4438,-3.6679,-3.7802,-3.9163,-4.0611,-4.2074,-4.2033,-4.307,-4.5101,-4.5,-4.5421,-4.6287,-4.6288,-4.6739,-4.7546,-4.8437,-4.904,-4.9337,-4.888,-4.7637,-4.5963,0.0,0.0,0.0,0.0,0.0,0.0,0.0,0.0,0.0,0.0,0.0,0.0,0.0,0.0,0.0,0.0,0.0,0.0,0.0,0.0,0.0,0.0,0.0,0.0,0.0,0.0,0.0,0.0,0.0,0.0,0.0,-5.4463,-5.7038,-5.7129,-5.9116,-6.0832,-6.1624,-6.334,-6.4264,-6.3818,-6.4784,-6.5693,-6.6192,-6.627,-6.6446,-6.6756,-6.7381,-6.734,-6.6474,-6.6449,-6.5985,-6.5098,-6.4441,-6.4091,-6.3986,-6.3741,-6.3586,-6.3532,-6.3284,-6.2773,-6.2112,-6.2167,-6.1701,-6.0854,-6.0267,-5.9754,-5.9163,-5.778,-5.6547,-5.5578,-5.5897,-5.5901,-5.5745,0.0,0.0,0.0,0.1585,-0.0193,-0.2006,-0.3218,-0.3506,-0.4196,-0.5862,-0.7808,-0.9793,-1.1898,-1.4706,-1.7934,-2.1753,-2.4094,-2.6318,-2.8463,-2.8952,-3.0312,-3.2977,-3.5526,-3.7396,-3.8539,-3.957,-4.0578,-4.1656,-4.1875,-4.297,-4.4751,-4.4844,-4.5416,-4.6284,-4.6289,-4.6549,-4.7094,-4.8293,-4.9106,-4.9613,-5.0347,-4.9805,-4.8552,-4.8078,-4.6601,-4.4684,-4.4042,-4.2659,-4.1168,-4.1211,0.0,0.0,0.0,0.0,0.0,0.0,0.0,0.0,0.0,0.0,0.0,0.0,0.0,0.0,0.0,0.0,0.0,0.0,0.0,0.0,0.0,0.0,0.0,0.0,-5.7781,-6.0411,-6.1794,-6.2881,-6.375,-6.4401,-6.5892,-6.6697,-6.6399,-6.6867,-6.7217,-6.7218,-6.6936,-6.6915,-6.7302,-6.8148,-6.8189,-6.7319,-6.7608,-6.7314,-6.6385,-6.5543,-6.5233,-6.546,-6.4706,-6.4349,-6.4283,-6.386,-6.3168,-6.2337,-6.2356,-6.1892,-6.1022,-6.0615,-6.0187,0.0,0.0,0.0,0.0,0.0,-5.6846,-5.6864,0.0,0.0,0.0,0.1518,-0.0387,-0.1523,-0.2016,-0.2888,-0.4158,-0.6037,-0.7957,-1.0087,-1.2674,-1.5642,-1.8679,-2.1825,-2.411,-2.592,-2.7211,-2.9091,-3.1507,-3.4516,-3.5624,-3.7103,-3.908,-3.9595,-4.0324,-4.1359,-4.1624,-4.2705,-4.4499,-4.4659,-4.5211,-4.6117,-4.6171,-4.6166,-4.6264,-4.8049,-4.8816,-4.895,-5.0707,-5.0937,-5.0254,-5.025,-4.8821,-4.6992,-4.7731,-4.4948,-4.1381,-4.4621,0.0,0.0,0.0,0.0,0.0,0.0,0.0,0.0,0.0,0.0,0.0,0.0,0.0,0.0,0.0,0.0,0.0,0.0,0.0,0.0,0.0,0.0,0.0,0.0,-6.0772,-6.3192,-6.6407,-6.6969,-6.6723,-6.5867,-6.7786,-6.8911,-6.8213,-6.8154,-6.8132,-6.8119,-6.737,-6.7261,-6.8031,0.0,0.0,0.0,0.0,-6.8744,-6.7704,-6.6975,-6.6927,-6.7575,-6.5893,-6.5102,-6.5045,-6.417,-6.3196,-6.2282,-6.2304,-6.1781,-6.0888,-6.0955,-6.0513,-5.9763,-5.9,-5.8692,-5.8575,-5.7814,-5.7546,-5.7456,0.0,0.0,0.0,0.4412,0.3056,0.1159,-0.1435,-0.2442,-0.3809,-0.6371,-0.791,-0.9893,-1.2806,-1.5021,-1.8047,-2.2444,-2.342,-2.4969,-2.77,-3.0035,-3.214,-3.4071,-3.6185,-3.7733,-3.8536,-3.9117,-3.9551,-3.9823,-4.0137,-4.1332,-4.3255,-4.3501,-4.4128,-4.5021,-4.5835,-4.5855,-4.5427,-4.7808,-4.8782,-4.8936,-5.0658,-5.1265,-5.1141,-5.1154,-5.0857,-5.0429,-5.061,-5.0442,-5.0126,-5.0165,-4.9514,-4.843,-4.6835,-4.4414,0.0,0.0,0.0,0.0,0.0,0.0,0.0,0.0,0.0,0.0,0.0,0.0,0.0,0.0,0.0,0.0,0.0,0.0,0.0,-6.0689,-6.3682,-6.6252,-6.756,-6.8963,-6.9509,-6.8642,-6.8922,-6.9187,-6.9132,-6.9113,-6.8857,-6.8163,-6.7924,-6.7898,-6.8,-6.8865,-6.8943,-6.7956,-6.9383,-6.9313,-6.7653,-6.7423,-6.7348,-6.7441,0.0,0.0,-6.5649,-6.5397,-6.4372,-6.2847,-6.29,-6.2106,-6.0734,-6.0804,-6.0773,-6.0509,-5.9109,-5.8565,-5.854,-5.7705,-5.7443,-5.7349,0.0,0.0,0.0,0.5686,0.4626,0.3249,0.1253,-0.053,-0.2386,-0.4381,-0.6587,-0.9161,-1.2285,-1.4369,-1.6884,-2.0307,-2.2582,-2.4883,-2.7387,-3.0101,-3.2433,-3.433,-3.6107,-3.7362,-3.7889,-3.8376,-3.8699,-3.8931,-3.9312,-4.0295,-4.1801,-4.2569,-4.3413,-4.4355,-4.5346,-4.5866,-4.6066,-4.7861,-4.9126,-5.0019,-5.0863,-5.1508,-5.1953,-5.1992,-5.1718,-5.1474,-5.2347,-5.2772,-5.2819,-5.2241,-5.1481,-5.0545,-4.9256,-4.7341,-4.5348,0.0,0.0,0.0,0.0,0.0,0.0,0.0,0.0,0.0,0.0,0.0,0.0,0.0,0.0,-5.5703,-5.7886,0.0,-6.1518,-6.3748,-6.5592,-6.7344,-6.9107,-6.9717,-6.9685,-6.8812,-6.941,-6.9779,-6.9416,-6.9406,-6.9218,-6.8781,-6.8362,-6.8248,-6.8639,-6.8642,-6.8833,-6.9189,-6.9507,-6.9179,-6.82,-6.7696,-6.7398,-6.7286,-6.6304,-6.582,-6.5717,-6.5608,-6.5035,-6.4114,-6.336,-6.2508,-6.1666,-6.093,-6.071,-6.0712,-5.9468,-5.9089,-5.9108,-5.8237,-5.771,-5.7288,0.0,0.0,0.0,0.6071,0.5165,0.4544,0.3681,0.1426,-0.0786,-0.2261,-0.5291,-0.8419,-1.1383,-1.3603,-1.5725,-1.7981,-2.192,-2.5061,-2.6792,-2.9825,-3.2433,-3.4457,-3.565,-3.6516,-3.7066,-3.7435,-3.7851,-3.8204,-3.8674,-3.9488,-4.0575,-4.1781,-4.2814,-4.3657,-4.4793,-4.5804,-4.6684,-4.7855,-4.9395,-5.1026,-5.1025,-5.16,-5.2411,-5.2283,-5.1826,-5.1453,-5.3033,-5.3208,-5.2733,-5.2875,-5.2344,-5.1542,-5.1001,-5.0139,-4.8844,-4.6434,-4.6014,0.0,0.0,0.0,0.0,0.0,0.0,0.0,0.0,-5.0033,-5.1561,-5.5735,-5.7419,-5.9054,-6.1974,-6.2668,-6.3702,-6.6535,-6.7268,-6.8093,-6.9919,-7.003,-6.945,-6.8222,-6.9419,-7.0128,-6.945,-6.9562,-6.9491,-6.9152,-6.8658,-6.8632,-6.9272,-6.8603,-6.8822,-7.02,-6.9561,-6.8992,-6.8568,-6.7789,-6.7371,-6.7215,-6.6244,-6.5793,-6.5876,-6.5733,-6.5581,-6.5378,-6.3574,-6.2612,-6.2162,-6.0999,-6.061,-6.0704,-6.0035,-5.9798,-5.965,-5.8626,-5.7889,-5.7279,0.0,0.0,0.0,0.0,0.0,0.428,0.3244,0.1928,0.0284,-0.1911,-0.5217,-0.8187,-1.042,-1.2608,-1.4981,-1.778,-2.1843,-2.4832,-2.6062,-2.9326,-3.1951,-3.3604,-3.4778,-3.5576,-3.5882,-3.6441,-3.6876,-3.7177,-3.7853,-3.8841,-4.0023,-4.1274,-4.2068,-4.2552,-4.4269,-4.5245,-4.5663,-4.7395,-4.915,-5.0735,-5.0751,-5.13,-5.2036,-5.1231,-5.0995,-5.1229,-5.2158,-5.2008,-5.1629,-5.3156,-5.3164,-5.2648,-5.3269,-5.2389,-5.0767,-4.8919,-4.7332,-4.5818,-4.405,-4.4298,-4.5767,-4.8759,-4.902,-5.0114,0.0,-5.7167,-5.7663,-6.1217,-6.3253,-6.4754,-6.5922,-6.6789,-6.7477,-6.7881,-6.9256,-6.984,-6.8566,-7.0327,-7.0792,-6.8396,-6.8964,-6.9504,-6.9411,-7.0104,-6.9921,-6.8353,-6.8878,-6.9276,-6.9302,-6.9241,-6.9236,-6.9264,-6.9901,-6.9414,-6.7772,-6.758,-6.7459,-6.7354,-6.6429,-6.6269,-6.6842,-6.6701,-6.6421,-6.5973,-6.3579,-6.178,-6.0561,-6.0556,-6.0635,-6.071,-6.0718,-6.0362,-5.9611,-5.795,-5.7332,-5.719,0.0,0.0,0.0,0.0,0.0,0.599,0.6037,0.4415,0.2322,-0.0123,-0.2617,-0.5392,-0.8579,-1.0655,-1.3039,-1.5997,-1.9703,-2.2541,-2.4037,-2.8135,-3.0836,-3.1667,-3.3077,-3.4137,-3.4607,-3.5363,-3.6131,-3.6878,-3.7658,-3.8579,-3.9698,-4.1019,-4.1878,-4.2247,-4.3788,-4.5142,-4.6315,-4.7198,-4.8914,-5.1025,-5.0521,-5.0891,-5.1624,-5.0238,-4.966,-4.9642,-5.0177,-5.0322,0.0,-5.1018,-5.1201,-5.1403,-5.2767,-5.1698,-4.9752,-4.8993,-4.8309,-4.7812,-4.8106,-4.8426,-4.9157,-5.1137,-5.2049,-5.3689,-5.8048,-5.8732,-5.959,-6.3544,-6.4929,-6.5816,-6.7199,-6.7374,-6.7781,-6.9319,-6.9354,-6.9455,-7.024,-7.0436,-7.028,-6.9684,-6.9477,-6.9399,-6.9411,-6.928,-6.9294,-6.9609,-6.9479,-6.9611,-7.0089,-6.9639,-6.9518,-6.9901,-6.9747,-6.9031,-6.7736,-6.7653,-6.7348,-6.6825,-6.634,-6.6488,-6.717,-6.7123,-6.6679,-6.5961,-6.4928,-6.3295,-6.1381,-6.0964,-6.0827,-6.0905,-6.0461,-6.0092,-5.9702,-5.8449,-5.7731,-5.7262,0.0,0.0,0.0,0.0,0.0,0.7405,0.786,0.5835,0.3549,0.1488,-0.1017,-0.411,-0.8128,-0.9828,-1.1835,-1.4586,-1.7567,-2.0229,-2.2444,-2.6398,-2.912,-3.0096,-3.1471,-3.2586,-3.336,-3.4088,-3.5063,-3.6241,-3.705,-3.8021,-3.9141,-4.0617,-4.1504,-4.1975,-4.3258,-4.4755,-4.6375,-4.6807,-4.8428,-5.0692,-4.991,-5.0114,-5.0761,-4.9086,-4.8099,-4.7716,-4.8037,-4.826,-4.829,-4.801,-4.822,-4.8867,-5.0409,-4.977,-4.8482,-4.8724,-4.8669,-4.8897,-5.0547,-5.1185,-5.1726,-5.3074,-5.4651,-5.6535,-5.8897,-5.9576,-6.0807,-6.4661,-6.5463,-6.603,-6.7989,-6.7656,-6.779,-6.9912,-6.9426,-6.9327,-7.0732,-7.0459,-7.0147,-7.0309,-6.9996,-6.9762,-6.9762,-6.9195,-6.9247,-7.0269,-6.9997,-7.0015,-7.066,-7.0043,-6.9926,-7.0513,-6.9857,-6.9071,-6.8177,-6.7899,-6.7409,-6.6772,-6.6433,-6.6687,-6.7423,-6.7771,-6.7346,-6.6263,-6.6234,-6.4707,-6.2162,-6.1555,-6.1214,-6.107,-6.0444,-6.0298,-6.025,-5.9381,-5.8381,-5.7327,0.0,0.0,0.0,0.0,0.0,0.7695,0.7269,0.509,0.3159,0.246,-0.1557,-0.5857,-0.9981,-1.0902,-1.2114,-1.424,-1.6107,-1.8599,-2.1896,-2.4278,-2.6703,-2.9336,-3.0093,-3.1041,-3.2345,-3.2478,-3.3328,-3.4864,-3.5699,-3.6853,-3.8164,-3.9799,-4.0882,-4.1576,-4.2632,-4.3828,-4.5049,-4.6057,-4.7623,-4.9309,-4.8551,-4.8762,-4.9251,-4.7596,-4.6382,-4.5648,-4.5961,-4.5658,-4.5036,-4.4369,-4.4478,-4.5051,-4.6054,-4.6905,-4.7725,-4.8541,-4.82,-4.7897,-4.9581,-5.0693,-5.2005,-5.4489,-5.6413,-5.8175,-5.9857,-6.0902,-6.2266,-6.4879,-6.5463,-6.6282,-6.8817,-6.8609,-6.8351,-6.9185,-7.006,-7.0075,-6.8444,-7.0284,-7.1228,-6.9639,-7.0152,-7.066,-7.066,-7.0621,-7.027,-6.9494,-7.0194,-7.065,-7.0699,-7.066,-7.0642,-7.0606,-7.0567,-7.0121,-6.9177,-6.8307,-6.785,-6.7767,-6.6897,-6.6864,-6.7618,-6.8922,-6.869,-6.7238,-6.7049,-6.5142,-6.2172,-6.2236,-6.1852,-6.1205,-6.1291,-6.1382,-6.1367,-6.0565,-5.906,-5.7363,0.0,0.0,0.0,0.0,0.0,0.0,0.6948,0.5283,0.3523,0.1892,-0.2308,0.0,0.0,0.0,0.0,0.0,-1.4721,-1.6739,-1.9249,-2.2416,-2.4936,-2.6622,-2.847,-2.9907,-3.0749,-3.201,-3.3432,-3.4867,-3.6307,-3.7803,-3.9255,-4.0412,-4.1278,-4.1899,-4.2472,-4.3358,-4.4528,-4.4856,-4.6064,-4.7826,-4.7599,-4.8076,-4.8627,-4.6499,-4.537,-4.4653,0.0,-4.29,-4.3916,-4.2667,-4.3335,-4.478,-4.576,-4.593,-4.6048,-4.7445,-4.8092,-4.885,-5.1115,-5.2799,-5.4528,-5.7141,-5.9105,-6.0984,-6.324,-6.3982,-6.4574,-6.6031,-6.5886,-6.5931,-6.7335,-6.6915,-6.7032,-6.9002,-6.9116,-6.938,-7.0458,-7.0909,-7.1078,-7.1072,-7.1357,-7.1558,-7.1558,-7.0504,-7.0191,-7.105,-7.0855,-7.0931,-7.1519,-7.1558,-7.1,-6.9787,-7.0323,-6.9951,-6.8437,-6.8174,-6.8024,-6.7982,-6.7126,-6.711,-6.7968,-6.8409,-6.8327,-6.7773,-6.6603,-6.5426,-6.4321,-6.3192,-6.258,-6.2338,-6.2396,-6.2054,-6.1478,-6.0621,-5.9949,-5.9212,0.0,0.0,0.0,0.0,0.0,0.0,0.0,0.0,0.0,0.0,0.0,0.0,0.0,0.0,0.0,0.0,0.0,-1.5388,-1.7718,-2.0318,-2.2452,-2.4104,-2.5923,-2.7482,-2.8612,-3.0017,-3.1585,-3.3349,-3.5281,-3.6947,-3.8555,-4.0007,-4.1036,-4.1622,-4.205,-4.2844,-4.388,-4.4108,-4.5028,-4.6316,-4.6212,-4.6361,-4.6397,-4.4515,-4.3453,0.0,-4.1051,-4.1111,-4.1827,-4.0368,-4.133,-4.3189,-4.3559,-4.4649,-4.6053,-4.7437,-4.8932,-5.0777,-5.3635,-5.5264,-5.6675,-5.8975,-6.0605,-6.2087,-6.3767,-6.4346,-6.4815,-6.5736,-6.5205,-6.4864,-6.5675,-6.4887,-6.4996,-6.755,-6.7516,-6.8053,-7.0661,-7.0831,-7.1,-7.1858,-7.1982,-7.1993,-7.2002,-7.0977,-7.0787,-7.1932,-7.148,-7.1403,-7.1953,-7.1987,-7.1474,-7.0317,-7.0844,-7.0603,-6.9419,-6.9139,-6.8718,-6.8083,-6.7242,-6.7297,-6.8105,-6.7793,-6.7849,-6.8019,-6.6956,-6.6126,-6.5457,-6.4359,-6.3722,-6.3358,-6.3403,-6.3052,-6.2428,-6.1563,-6.129,-6.0978,0.0,0.0,0.0,0.0,0.0,0.0,0.0,0.0,0.0,0.0,0.0,0.0,0.0,0.0,0.0,0.0,0.0,0.0,-1.7144,-1.7991,-1.9494,-2.192,-2.2798,-2.419,-2.6153,-2.6665,-2.8152,-3.0505,-3.2656,-3.4516,-3.6152,-3.8505,-4.0,-4.0664,-4.1331,-4.2105,-4.2943,-4.3685,-4.4289,-4.4653,-4.4325,-4.3756,-4.2922,-4.1938,-4.0906,-4.0084,-4.0917,-4.0354,-3.9085,-3.7843,-3.887,-4.0612,-4.0247,-4.3491,-4.766,-4.8662,-5.0772,-5.3485,-5.6738,-5.777,-5.8353,-6.0091,-6.1158,-6.1754,-6.1855,-6.2467,-6.3187,-6.4013,-6.3427,-6.302,-6.3741,-6.2672,-6.2508,-6.4957,-6.5535,-6.6571,-6.9114,-7.02,-7.1065,-7.1903,-7.1987,-7.1997,-7.202,-7.2006,-7.2014,-7.1992,-7.1991,-7.1991,-7.1993,-7.1987,-7.1987,-7.1948,-7.1987,-7.1987,-7.1948,-7.1089,-6.9823,-6.8086,-6.7289,-6.7308,-6.801,-6.719,-6.7264,-6.8049,-6.8005,-6.7107,-6.5663,-6.5624,-6.5067,-6.4268,-6.4325,-6.4286,-6.4124,-6.3316,-6.2998,-6.2518,0.0,0.0,0.0,0.0,0.0,0.0,0.0,0.0,0.0,0.0,0.0,0.0,0.0,0.0,0.0,0.0,0.0,0.0,-1.592,-1.7417,-1.9059,-2.1054,-2.2665,-2.4078,-2.5387,-2.6823,-2.8152,-2.9376,-3.1294,-3.3201,-3.5175,-3.6307,-3.7562,-3.8848,-3.9101,-3.951,-4.0079,-4.0149,-4.082,-4.1831,-4.2465,-4.3068,-4.3523,-4.2772,-4.1941,-4.1141,-4.0419,-4.0043,-3.9946,-4.0396,-4.224,-4.4669,-4.6616,-4.8516,-5.0364,-5.1903,-5.379,-5.5551,-5.6407,-5.816,-6.0153,-6.1822,-6.2906,-6.3725,-6.4372,-6.4209,-6.3577,-6.2506,-6.1095,-5.9864,-5.9451,-6.059,-6.2032,-6.3302,-6.6229,-6.8834,-7.0107,-7.1104,-7.1741,-7.1963,-7.2015,-7.2006,-7.199,-7.1992,-7.199,-7.1986,-7.2017,-7.2006,-7.1987,-7.1987,-7.1708,-7.1033,-7.1669,-7.1675,-7.105,-7.0809,-6.9835,-6.8101,-6.7297,-6.7021,-6.7185,-6.6327,-6.6366,-6.7107,-6.6433,-6.6277,-6.6444,-6.579,-6.5406,-6.5223,-6.5217,-6.4833,-6.4174,-6.331,-6.2998,-6.2691,0.0,0.0,0.0,0.0,0.0,0.0,0.0,0.0,0.0,0.0,0.0,0.0,0.0,0.0,0.0,0.0,0.0,0.0,0.0,-1.6256,-1.7653,-1.9064,-2.0558,-2.2061,-2.3517,-2.4866,-2.6205,-2.7626,-2.9459,-3.1232,-3.2866,-3.4484,-3.5976,-3.7219,-3.778,-3.8494,-3.9133,-3.8525,-3.9311,0.0,0.0,-4.1333,-4.2526,-4.2073,-4.1649,-4.1178,-4.0313,-4.0933,-4.237,-4.427,-4.5724,-4.7163,-4.9596,-5.1392,-5.3004,-5.4754,-5.629,-5.7663,-5.8799,-5.9971,-6.1227,-6.2563,-6.3249,-6.3514,-6.3318,-6.3155,-6.2438,-6.036,-5.8864,-5.7641,-5.6761,-5.8102,-5.9872,-6.1487,-6.4808,-6.7832,-6.9816,-7.0844,-7.1558,-7.193,-7.2017,-7.1992,-7.1986,-7.2014,-7.2006,-7.2006,-7.201,-7.2002,-7.1987,-7.1987,-7.1786,-7.1273,-7.1747,-7.1753,-7.1285,-7.0881,-7.0025,-6.864,-6.7453,-6.6865,-6.6834,-6.5965,-6.6004,-6.6756,0.0,-6.6349,-6.6745,-6.6265,-6.6076,-6.6121,-6.6082,-6.5775,-6.5312,-6.4448,-6.4135,-6.3945,0.0,0.0,0.0,0.0,0.0,0.0,0.0,0.0,0.0,0.0,-0.6358,-0.7186,0.0,0.0,0.0,0.0,0.0,0.0,0.0,0.0,-1.6058,-1.7041,-1.8043,-1.9419,-2.1412,-2.2237,-2.3554,-2.5494,-2.748,-2.8996,-3.0094,-3.2699,-3.4465,-3.5564,-3.6601,-3.7739,-3.8717,-3.7729,-3.8631,-4.0607,-3.9051,-3.9434,-4.0958,0.0,-4.0926,-4.0883,-4.0698,-4.2379,-4.5155,-4.8295,-4.9081,-4.9122,-5.1315,-5.3514,-5.5586,-5.7273,-5.8381,-5.9619,-6.1783,-6.204,-6.1879,-6.2711,-6.296,-6.2542,-6.0783,-6.0776,-6.0371,-5.783,-5.6497,-5.5581,-5.4826,-5.5588,-5.7166,-5.9807,-6.2524,-6.5468,-6.8903,-7.0158,-7.1016,-7.1909,-7.1991,-7.1997,-7.1997,-7.1993,-7.1987,-7.1987,-7.2014,-7.2017,-7.1987,-7.1987,-7.1993,-7.1997,-7.1993,-7.1993,-7.1993,-7.1134,-7.024,-6.9394,-6.7835,-6.6969,-6.6756,-6.6037,-6.6076,-6.6795,-6.6784,0.0,-6.6817,-6.6784,-6.6784,-6.6817,-6.6784,-6.6717,-6.6522,-6.5736,-6.5346,-6.5116,0.0,0.0,0.0,0.0,0.0,0.0,0.0,0.0,0.0,0.0,-0.6897,-0.7902,0.0,0.0,0.0,0.0,0.0,0.0,0.0,0.0,0.0,-1.7419,-1.8226,-1.9298,-2.057,-2.2046,-2.3109,-2.3813,-2.563,-2.7324,-2.8845,-2.9827,-3.1444,-3.342,-3.3762,-3.4559,-3.5685,-3.5732,-3.6571,-3.7909,-3.8789,-3.9757,-4.0778,-4.1873,0.0,0.0,-4.2087,-4.3303,-4.5278,-4.9605,-5.1606,-5.2797,-5.6136,-5.7505,-5.8046,-5.916,-6.0127,-6.0812,-6.0694,-6.1617,-6.2687,-6.2875,-6.3444,-6.3319,-6.0932,-5.9411,-5.7726,-5.512,-5.3312,-5.2168,-5.2012,-5.3852,-5.6283,-5.8903,-6.2083,-6.5418,-6.8903,-7.0167,-7.1026,-7.1909,-7.1988,-7.1989,-7.1984,-7.2006,-7.1987,-7.1987,-7.1993,-7.1993,-7.1987,-7.1987,-7.2006,-7.199,-7.2017,-7.201,-7.2014,-7.1155,-7.0253,-6.9377,-6.8444,-6.7542,-6.6795,-6.6717,-6.6717,-6.6795,-6.6795,0.0,-6.679,-6.6805,-6.6811,-6.679,-6.6805,-6.6382,-6.5697,-6.4776,-6.4001,-6.3321,0.0,0.0,0.0,0.0,0.0,0.0,0.0,0.0694,-0.2055,-0.4894,-0.6652,-0.7837,-0.8414,-0.9194,-1.0238,0.0,0.0,0.0,0.0,0.0,0.0,0.0,0.0,0.0,-2.006,-2.1272,-2.2375,-2.3367,0.0,-2.5993,-2.7407,-2.8389,-2.996,-3.1946,-3.2528,-3.3275,-3.4131,-3.4858,-3.5891,-3.7182,-3.8556,-3.9989,-4.1294,0.0,0.0,0.0,-4.3119,-4.427,-4.5885,-4.9061,-5.1376,-5.3568,-5.7251,-5.9031,-5.9804,-5.9823,-6.0528,-6.1429,-6.2018,-6.2168,-6.2484,-6.3877,-6.3487,-6.1997,-5.9053,-5.7338,-5.5545,-5.2493,-5.1193,-5.0743,-5.1203,-5.3058,-5.5067,-5.6797,-6.0333,-6.3784,-6.6366,-6.8648,-7.037,-7.1206,-7.1708,-7.1992,-7.1991,-7.1984,-7.2006,-7.1987,-7.201,-7.2014,-7.1987,-7.1987,-7.201,-7.1992,-7.199,-7.1788,-7.1343,-7.046,-6.9605,-6.8778,-6.7902,-6.7303,-6.6834,-6.6834,-6.6844,-6.6852,-6.68,0.0,-6.6795,-6.6778,-6.6817,-6.6784,-6.6817,-6.6316,-6.5546,-6.51,-6.4403,-6.3672,0.0,0.0,0.0,0.0,0.0,0.0,0.3809,0.128,-0.1568,-0.4648,-0.6495,-0.7892,-0.8922,-0.977,-1.0731,0.0,0.0,0.0,0.0,0.0,0.0,0.0,0.0,0.0,0.0,0.0,0.0,-2.3228,-2.4156,0.0,0.0,0.0,0.0,0.0,-3.1647,-3.2478,-3.3258,-3.4314,-3.5613,0.0,0.0,-4.0009,0.0,0.0,0.0,0.0,0.0,-4.4899,-4.6126,-4.8199,-5.0288,-5.2571,-5.5874,-5.8431,-6.0036,-5.9475,-6.0106,-6.1345,-6.2782,-6.2522,-6.2262,-6.4309,-6.3164,-6.0643,-5.7245,-5.5492,-5.368,-5.0654,-4.9861,-5.0026,-5.1101,-5.2411,-5.3806,-5.5216,-5.8331,-6.1509,-6.4174,-6.7043,-6.9312,-7.0543,-7.1464,-7.1986,-7.1989,-7.1992,-7.1986,-7.2002,-7.1984,-7.1986,-7.2006,-7.2014,-7.1988,-7.199,-7.1835,-7.1405,-7.0722,-6.9646,-6.8789,-6.8164,-6.7297,-6.6891,-6.6891,-6.6844,-6.6852,-6.6904,-6.6856,-6.6805,0.0,-6.6834,-6.6829,-6.6817,-6.679,-6.617,-6.5312,-6.5306,-6.4643,-6.3828,0.0,0.0,0.0,0.0,0.0,0.0,0.5716,0.1842,-0.2164,-0.5139,-0.6993,-0.8563,-0.999,-1.0542,-1.1348,0.0,0.0,0.0,0.0,0.0,0.0,0.0,0.0,0.0,0.0,0.0,0.0,-2.3025,-2.4349,0.0,0.0,0.0,0.0,0.0,0.0,-3.135,-3.252,-3.3893,0.0,0.0,0.0,0.0,0.0,0.0,0.0,0.0,0.0,-4.4561,-4.5281,-4.8057,-4.919,-4.9816,-5.177,-5.4726,-5.7506,-5.7676,-5.8862,-6.0172,-6.0487,-6.16,-6.2729,-6.2885,-6.2268,-6.0663,-5.7196,-5.4567,-5.231,-5.0472,-4.94,-4.9325,-5.0906,-5.1373,-5.2581,-5.5677,-5.6572,-5.8889,-6.4604,-6.636,-6.7955,-7.0426,-7.1485,-7.1993,-7.1997,-7.1981,-7.1992,-7.1986,-7.201,-7.201,-7.1991,-7.1981,-7.2002,-7.1997,-7.1239,-7.0777,-7.0697,-6.9062,-6.8164,-6.8082,-6.7224,-6.6796,-6.6796,-6.6867,-6.6901,-6.6904,-6.6873,-6.6906,0.0,-6.6873,-6.6834,-6.6795,-6.6795,-6.5819,-6.4409,-6.4418,-6.3377,-6.1954,0.0,0.0,0.0,0.0,0.0,0.0,0.3918,0.1993,-0.0941,-0.517,-0.7179,-0.8851,-1.0789,-1.1532,-1.2251,-1.2835,-1.2835,0.0,0.0,0.0,0.0,0.0,0.0,0.0,0.0,0.0,-2.1996,-2.3069,-2.4183,0.0,0.0,0.0,0.0,0.0,0.0,-3.0505,-3.131,-3.3201,0.0,0.0,0.0,0.0,0.0,0.0,0.0,0.0,0.0,0.0,-4.5052,-4.6358,-4.7477,-4.8356,-4.8621,-5.0875,-5.3795,-5.5896,-5.7466,-5.8954,-6.1041,-6.173,-6.2119,-6.3114,-6.1589,-5.9257,-5.6873,-5.4352,-5.2056,-5.0391,-4.9746,-4.9823,-5.0977,-5.122,-5.1843,-5.3711,-5.4908,-5.6823,-6.0308,-6.2942,-6.5451,-6.8033,-6.9595,-7.0837,-7.1891,-7.1993,-7.2014,-7.1981,-7.1988,-7.1989,-7.1988,-7.2006,-7.1753,-7.1245,-7.087,-7.0444,-6.9937,-6.8694,-6.7874,-6.736,-6.7047,-6.6856,-6.6862,-6.6906,-6.6912,-6.6912,-6.6914,-6.6913,0.0,-6.6887,-6.6883,-6.6856,-6.6856,-6.5804,-6.4289,-6.4284,-6.3191,-6.1868,0.0,0.0,0.0,0.0,0.0,0.4526,0.2915,0.1558,-0.0746,-0.4692,-0.7147,-0.9255,-1.1193,-1.2042,-1.2666,-1.3262,-1.3296,0.0,0.0,0.0,0.0,0.0,0.0,0.0,0.0,0.0,-2.2213,-2.3315,-2.4238,-2.5171,0.0,0.0,-2.7315,-2.8065,0.0,0.0,0.0,0.0,0.0,-3.5247,0.0,0.0,0.0,0.0,0.0,0.0,0.0,0.0,0.0,0.0,0.0,-4.7159,-4.6242,-4.7353,-4.9682,-5.3353,-5.573,-5.7674,-6.0352,-6.1205,-6.1686,-6.313,-6.0895,-5.8012,-5.6576,-5.4101,-5.1696,-5.0306,-4.9993,-5.0244,-5.1035,-5.1201,-5.1609,-5.2679,-5.412,-5.584,-5.7821,-6.0893,-6.3722,-6.5797,-6.7351,-6.9014,-7.0996,-7.1657,-7.1987,-7.1982,-7.1987,-7.188,-7.162,-7.1841,-7.1714,-7.1089,-7.0582,-7.0035,-6.9416,-6.8279,-6.742,-6.6873,-6.6873,-6.6873,-6.6873,-6.6873,-6.6895,-6.6913,-6.6914,-6.6914,0.0,-6.6904,-6.6745,-6.6518,-6.6522,-6.5469,-6.3905,-6.3904,-6.2967,-6.1875,0.0,0.0,0.0,0.0,0.0,0.5565,0.3751,0.0391,-0.2409,-0.3591,-0.6944,-0.9768,-1.1209,-1.1695,-1.253,-1.413,-1.4097,0.0,0.0,0.0,0.0,0.0,0.0,0.0,0.0,0.0,-2.2967,-2.3891,-2.4798,-2.5521,-2.6233,-2.6996,-2.7471,-2.7675,0.0,0.0,0.0,0.0,-3.3805,-3.5628,0.0,0.0,0.0,0.0,0.0,0.0,0.0,0.0,0.0,0.0,0.0,0.0,0.0,-4.4303,-4.5263,-4.9737,-5.3494,-5.6408,-5.7378,-5.9504,-6.1614,-6.2507,-6.0125,-5.734,-5.6434,-5.3623,-5.0996,-5.0187,-5.0002,-5.0265,-5.1055,-5.123,-5.1814,-5.3436,-5.4548,-5.609,-5.864,-6.1261,-6.3218,-6.4112,-6.4981,-6.6555,-6.9099,-7.0895,-7.1903,-7.1884,-7.1943,0.0,-7.0777,-7.1519,-7.1987,-7.1987,-7.0309,-6.9411,-6.9411,-6.7693,-6.6795,-6.6795,-6.6795,-6.6795,-6.6795,-6.6795,-6.6848,-6.6904,-6.6913,-6.6914,0.0,-6.6914,-6.6406,-6.5625,-6.5606,-6.4548,-6.2996,-6.3017,-6.2443,-6.1713,0.0,0.0,0.0,0.0,0.0,0.0,0.1363,-0.1515,-0.413,-0.5453,-0.8755,-1.148,-1.2625,-1.3253,-1.4093,-1.5325,-1.5186,0.0,0.0,0.0,0.0,0.0,0.0,0.0,0.0,-2.1463,-2.2845,-2.4159,-2.4505,-2.551,-2.6918,-2.6427,-2.6575,-2.7193,-2.8036,-2.8757,0.0,-3.2083,-3.5326,-3.8952,0.0,0.0,-4.3721,0.0,0.0,0.0,0.0,0.0,0.0,0.0,0.0,0.0,0.0,0.0,0.0,-4.6844,-4.9536,-5.2253,-5.4241,-5.5845,-5.683,-5.649,-5.5186,-5.3754,-5.2926,-5.1947,-5.1035,-5.0196,-5.043,-5.0888,-5.1152,-5.1197,-5.1913,-5.4218,-5.5353,-5.6436,-5.7868,-6.0818,-6.3175,-6.4033,-6.7491,-7.0119,-7.0937,-7.1526,-7.1828,-7.1819,-7.1893,-7.1799,-7.1533,-7.176,-7.1689,-7.1128,-7.0582,-7.0309,-7.0309,-6.8552,-6.7693,-6.7693,-6.7068,-6.6795,-6.6795,-6.6249,-6.5975,-6.5897,-6.5378,-6.5113,0.0,-6.5113,-6.4957,-6.4721,-6.47,-6.4028,-6.3017,-6.3013,-6.2462,-6.1798,0.0,0.0,0.0,0.0,0.0,0.0,-0.1164,-0.4148,-0.6547,-0.7447,-0.9952,-1.2054,-1.3038,-1.4057,-1.4924,-1.5687,-1.5875,0.0,0.0,0.0,0.0,0.0,0.0,0.0,-1.9532,-2.1216,-2.2501,-2.3237,-2.4049,-2.5157,-2.6479,-2.6213,-2.646,-2.7155,-2.7786,-2.8483,0.0,-3.2859,-3.6424,-3.9765,0.0,0.0,-4.3609,0.0,0.0,0.0,0.0,0.0,0.0,0.0,0.0,0.0,0.0,0.0,0.0,0.0,-4.6021,-4.8038,-5.1266,-5.3219,-5.4241,-5.3669,-5.2676,-5.1812,-5.1619,-5.1169,-5.0733,-5.0481,-5.0888,-5.1239,-5.119,-5.1159,-5.1874,-5.414,-5.5547,-5.6747,-5.7925,-6.0788,-6.3097,-6.3947,-6.8034,-7.0655,-7.0368,-7.121,-7.1817,-7.1827,-7.1555,-7.1417,-7.1425,-7.1105,-7.0684,-7.02,-7.0525,-7.0687,-7.0687,-6.897,-6.8117,-6.8083,-6.6862,-6.6316,-6.6282,-6.5451,-6.5049,-6.4964,-6.4487,0.0,0.0,-6.4275,-6.4118,-6.3802,-6.3828,-6.3271,-6.2491,-6.2491,-6.2173,-6.1777,0.0,0.0,0.0,0.0,0.0,0.0,0.0,-0.6837,-0.9024,-0.926,-1.0443,-1.1652,-1.2758,-1.4103,-1.5088,-1.5405,-1.628,0.0,0.0,0.0,0.0,0.0,0.0,0.0,-1.9222,-2.0989,-2.1768,-2.149,-2.327,-2.4457,-2.5159,-2.5949,-2.667,-2.7289,-2.8006,-2.8705,-2.9769,-3.4154,-3.6987,-3.8722,-4.085,-4.2292,0.0,0.0,0.0,0.0,0.0,0.0,0.0,0.0,0.0,0.0,0.0,0.0,0.0,0.0,0.0,0.0,0.0,-5.1192,-5.3053,-5.2976,-5.1864,-5.0985,-5.1696,-5.0814,0.0,-5.0858,-5.1084,-5.1191,-5.1278,-5.124,-5.1774,-5.3569,-5.5278,-5.6991,-5.8636,-6.1245,-6.3286,-6.4156,-6.7214,-6.8953,-6.8176,-7.0329,-7.1833,-7.1887,-7.1146,-7.0649,-7.06,-6.983,-6.9362,-6.9284,-7.0146,-7.0597,-7.0597,-6.8958,-6.8105,-6.8078,-6.6336,-6.551,-6.5445,-6.4552,-6.4107,0.0,-6.4037,0.0,0.0,-6.4091,-6.3623,-6.2903,-6.2903,-6.2395,-6.1699,-6.1699,-6.1699,-6.1693,0.0,0.0,0.0,0.0,0.0,0.0,0.0,0.0,0.0,0.0,-1.0203,-1.2059,-1.3666,-1.4607,-1.539,0.0,0.0,0.0,0.0,0.0,0.0,0.0,0.0,0.0,-1.869,-1.9795,-2.0555,-2.1032,-2.1616,-2.2743,-2.4393,-2.374,-2.4328,-2.5973,-2.611,-2.8173,-3.1752,-3.4707,-3.743,-3.9822,-4.127,-4.2531,0.0,0.0,0.0,0.0,-4.3855,-4.4191,0.0,0.0,0.0,0.0,0.0,0.0,0.0,0.0,-4.2318,-4.2753,-4.4467,0.0,-4.7533,-4.6886,-4.743,-4.7973,0.0,-4.8165,-4.891,-4.9081,-4.9601,-5.039,-5.1735,-5.1515,-5.2072,-5.5059,-5.5967,-5.692,-5.8659,-6.2277,-6.5245,-6.6718,-6.9321,-7.0697,-6.9886,-7.0979,-7.1732,-7.1757,-7.1599,-7.121,-7.0473,-7.0364,-6.9967,-6.9262,-6.9488,-6.9639,-6.9639,-6.8624,-6.8085,-6.8085,-6.6323,-6.5457,-6.5363,-6.3873,-6.3185,-6.3078,0.0,0.0,-6.2196,-6.2243,-6.2148,-6.2011,-6.196,-6.1797,-6.1602,-6.1602,-6.1634,-6.1612,0.0,0.0,0.0,0.0,0.0,0.0,0.0,0.0,0.0,0.0,-0.9691,-1.1066,-1.2999,-1.3791,-1.4371,0.0,0.0,0.0,0.0,0.0,0.0,0.0,0.0,-1.7426,-1.7688,-1.8529,-1.912,-1.9411,-2.0082,-2.1154,-2.257,-2.2195,-2.3091,-2.514,-2.6446,-2.8776,-3.187,-3.4972,-3.7385,-3.9296,-4.113,0.0,0.0,0.0,0.0,0.0,-4.3532,-4.3879,0.0,-4.4612,-4.5019,-4.5069,0.0,0.0,0.0,0.0,-4.1687,-4.1531,-4.1944,-4.3931,-4.588,-4.5786,-4.6472,-4.7132,-4.7013,-4.7456,-4.7985,-4.8398,-4.9136,-4.9963,-5.0865,-5.1678,-5.2802,-5.4622,-5.6315,-5.8169,-6.032,-6.3662,-6.6329,-6.7619,-6.9678,-7.0837,-7.0386,-7.082,-7.0951,-7.0562,-6.9837,-6.9383,-6.9239,-6.8565,-6.8121,-6.7995,-6.8065,-6.8505,-6.9302,-6.8492,-6.7868,-6.7438,-6.5697,-6.4627,-6.415,-6.2834,-6.218,-6.2118,0.0,0.0,-6.15,-6.152,-6.1586,-6.1612,-6.1612,-6.1603,-6.1612,-6.1619,-6.1612,-6.1595,0.0,0.0,0.0,0.0,0.0,0.0,0.0,0.0,0.0,0.0,0.0,0.0,0.0,0.0,0.0,0.0,0.0,0.0,0.0,0.0,0.0,0.0,-1.567,-1.5931,-1.6444,-1.7178,-1.7453,-1.7432,-1.8497,-1.9432,-2.0167,-2.0832,-2.2356,-2.4557,-2.743,-2.9543,-3.1395,-3.4974,-3.7136,-3.8261,-4.071,0.0,0.0,0.0,0.0,0.0,0.0,0.0,0.0,-4.4524,-4.511,-4.5127,-4.4193,0.0,0.0,0.0,0.0,0.0,-4.0939,-4.3428,-4.6012,-4.6336,-4.67,-4.714,-4.7692,-4.7295,-4.7038,-4.7998,-4.8889,-4.9611,-4.9969,-5.1842,-5.3414,-5.379,-5.6691,-5.9808,-6.2478,-6.494,-6.6765,-6.7398,-6.9023,-7.0027,-6.9911,-7.006,-6.9896,-6.92,-6.7814,-6.7217,-6.7825,-6.6491,-6.5985,-6.6567,-6.6633,-6.7392,-6.8875,-6.8183,-6.7365,-6.6468,-6.486,-6.362,-6.2764,-6.181,-6.1383,-6.1383,0.0,0.0,-6.1396,-6.1456,-6.1489,-6.15,-6.1559,-6.1559,-6.1607,-6.1586,-6.1595,-6.1595,0.0,0.0,0.0,0.0,0.0,0.0,0.0,0.0,0.0,0.0,0.0,0.0,0.0,0.0,0.0,0.0,0.0,0.0,0.0,0.0,0.0,-1.3091,-1.4231,-1.4903,-1.505,-1.5184,-1.5556,-1.6095,-1.6299,-1.7043,-1.8213,-1.8711,-2.0642,-2.3913,-2.6367,-2.8931,-3.1569,-3.4849,-3.7011,-3.8405,-4.006,0.0,0.0,0.0,0.0,0.0,0.0,0.0,0.0,-4.3239,-4.3777,-4.3869,-4.3069,0.0,0.0,0.0,0.0,0.0,-4.2831,-4.4707,-4.5617,-4.3847,-4.4939,-4.6375,-4.5781,-4.5489,-4.5604,-4.6647,-4.7569,-4.8856,-5.1065,-5.2043,-5.3111,-5.5055,-5.7869,-6.0693,-6.3253,-6.5297,-6.65,-6.6495,-6.8044,-6.8855,-6.8079,-6.87,-6.9088,-6.895,-6.8746,-6.8341,-6.7676,-6.7549,-6.7217,-6.6562,-6.6594,-6.675,-6.6996,-6.6941,-6.6435,-6.5516,-6.4531,-6.3624,-6.2692,-6.1797,-6.1366,-6.1337,0.0,-6.1342,-6.1396,-6.1408,-6.1445,-6.1489,-6.15,-6.1539,-6.15,-6.1568,-6.1616,-6.1568,0.0,0.0,0.0,0.0,0.0,0.0,0.0,0.0,0.0,0.0,0.0,0.0,0.0,0.0,0.0,0.0,0.0,0.0,0.0,0.0,-1.099,-1.1198,-1.179,-1.2721,-1.3994,-1.4089,-1.4419,-1.5075,-1.5191,-1.5676,-1.6514,-1.84,-2.1091,-2.4365,-2.7248,-2.9797,-3.2169,-3.5655,-3.7628,-3.8572,0.0,0.0,0.0,0.0,0.0,0.0,0.0,0.0,0.0,0.0,-4.3428,-4.3823,-4.2883,0.0,0.0,0.0,0.0,0.0,-4.1531,-4.3238,-4.4676,-4.3853,-4.6301,-4.8819,-4.8632,-4.8033,-4.7618,-4.7843,-4.8537,-4.9669,-5.1404,-5.309,-5.5325,-5.8701,-6.0422,-6.1867,-6.3458,-6.4829,-6.5816,-6.6167,-6.7368,-6.7968,-6.7541,-6.7871,-6.7949,-6.7541,-6.7074,-6.6665,-6.626,-6.5895,-6.5498,-6.5048,-6.5125,-6.5153,-6.5139,-6.5153,-6.4973,-6.4545,-6.369,-6.2807,-6.1934,-6.1477,-6.1306,-6.1291,0.0,-6.1337,-6.1352,-6.1366,-6.1356,-6.1357,-6.0903,-6.1044,-6.1445,-6.1518,-6.1507,-6.1472,0.0,0.0,0.0,0.0,0.0,0.0,0.0,0.0,0.0,0.0,0.0,0.0,0.0,0.0,0.0,0.0,0.0,0.0,0.0,-0.9065,-0.9177,-0.9611,-0.9517,-1.0583,-1.2831,-1.2862,-1.3206,-1.3947,-1.3937,-1.4515,-1.5705,-1.8486,-2.1501,-2.4838,-2.7974,-3.063,-3.2915,-3.6483,-3.8314,-3.8991,0.0,0.0,0.0,0.0,0.0,0.0,0.0,0.0,0.0,0.0,0.0,0.0,0.0,0.0,0.0,-4.2235,-4.1625,-4.1244,-4.0722,-4.2129,-4.3907,-4.4533,-4.7222,-5.0003,-5.109,-5.0258,-4.9353,-4.9692,-5.0441,-5.1266,-5.202,-5.4227,-5.7264,-6.1368,-6.2181,-6.2722,-6.3994,-6.4791,-6.541,-6.5942,-6.6681,-6.7128,-6.7084,-6.7128,-6.6801,-6.5992,-6.5316,-6.489,-6.4713,-6.4089,-6.3779,-6.3783,-6.3812,-6.3829,-6.3834,-6.3657,-6.3456,-6.3269,-6.2609,-6.1826,-6.0987,-6.0755,-6.0738,-6.0971,-6.0771,-6.0809,-6.0971,-6.0996,-6.1128,-6.1229,-6.0628,-6.0812,-6.1434,-6.146,-6.1421,-6.1366,0.0,0.0,0.0,0.0,0.0,0.0,0.0,0.0,0.0,0.0,0.0,0.0,0.0,0.0,0.0,0.0,0.0,0.0,0.0,-0.7548,-0.7899,-0.8607,-0.8424,-0.9216,-1.1171,-1.0942,-1.1326,-1.2457,-1.2079,-1.3374,-1.6245,-1.8001,-2.0907,-2.4788,-2.7536,-3.0466,-3.3638,-3.6876,-3.8764,-3.9817,-4.1766,0.0,0.0,0.0,0.0,0.0,0.0,0.0,0.0,0.0,0.0,0.0,0.0,0.0,-4.2693,-4.3126,-4.2157,-4.1227,-4.2495,-4.3282,-4.3934,-4.491,-4.5567,-4.6853,-5.0183,-4.9377,-4.8733,-5.1488,-5.2788,-5.348,-5.3546,-5.5037,-5.7328,-6.0671,-6.1604,-6.2844,-6.545,-6.5812,-6.5842,-6.5807,-6.5933,-6.602,-6.6097,-6.6097,-6.575,-6.4864,-6.4817,-6.4431,-6.3576,-6.365,-6.369,-6.3729,-6.369,-6.369,-6.3613,-6.2895,-6.2134,-6.1492,-6.1407,-6.0926,-6.0057,-5.9249,-5.9293,-5.9951,-5.9232,-5.931,-6.0007,-6.0127,-6.0647,-6.1314,-6.1313,-6.1342,-6.1394,-6.1421,-6.1356,-6.1337,0.0,0.0,0.0,0.0,0.0,0.0,0.0,0.0,0.0,0.0,0.0,-0.4511,-0.5062,0.0,0.0,0.0,0.0,0.0,0.0,-0.5978,-0.5946,-0.6195,-0.6724,-0.7403,-0.809,-0.9035,-1.0181,-1.1444,-1.1446,-1.3032,-1.6063,-1.7953,-2.167,-2.6993,-2.9153,-3.2033,-3.5267,-3.7106,-3.8797,-4.0391,-4.1654,-4.2487,0.0,0.0,0.0,0.0,0.0,0.0,0.0,0.0,-4.0802,-4.1669,-4.163,-4.2761,-4.3931,-4.2999,-4.227,-4.1755,-4.1656,-4.2772,-4.3992,-4.4294,-4.5382,-4.7302,-5.0534,-5.1264,-5.164,-5.3072,-5.4033,-5.4764,-5.5102,-5.7634,-5.9852,-6.0482,-6.2285,-6.3886,-6.4795,-6.5423,-6.5769,-6.569,-6.5717,-6.5717,-6.5755,-6.569,-6.5344,-6.459,-6.4449,-6.386,-6.2526,-6.2629,-6.2463,-6.1918,-6.1927,-6.1716,-6.1175,-6.1246,-6.0401,-5.8681,-5.9782,-6.0094,-5.9727,-5.9476,-5.9534,-5.9862,-6.0092,-6.0071,-5.9955,-6.0549,-6.0954,-6.1264,-6.1281,-6.0898,-6.0419,-6.1065,-6.122,-6.1208,0.0,0.0,0.0,0.0,0.0,0.0,0.0,0.0,-0.2449,0.0,0.0,0.0,0.0,-0.407,0.0,0.0,0.0,0.0,-0.4589,-0.3764,-0.3486,-0.3968,-0.4555,-0.4922,-0.5043,-0.63,-0.7893,-0.9911,-1.0803,-1.3179,-1.6788,-1.8918,-2.2862,-2.8374,-3.0632,-3.3229,-3.5962,-3.7794,-3.9387,-4.0851,-4.2364,-4.299,0.0,0.0,0.0,0.0,0.0,0.0,0.0,0.0,-3.9993,-4.106,-4.122,-4.2547,-4.3856,-4.2787,-4.2737,-4.2787,-4.1665,-4.2387,-4.3558,-4.4022,-4.5223,-4.7158,-5.034,-5.1922,-5.3285,-5.506,-5.5585,-5.5953,-5.6746,-5.8728,-6.0361,-6.0637,-6.2279,-6.3761,-6.442,-6.4564,-6.4709,-6.4947,-6.4756,-6.4661,-6.4719,-6.4728,-6.4346,-6.3559,-6.3427,-6.2776,-6.144,-6.1492,-6.1272,-6.0685,-6.0704,-6.0365,-5.9534,-5.9955,-5.9072,-5.6934,-5.8154,-5.8907,-5.9155,-5.9198,-5.9395,-5.9724,-6.0035,-5.9862,-5.9399,-6.0036,-6.0442,-6.0731,-6.0712,-6.0461,-6.0187,-6.0867,-6.1118,-6.108,0.0,0.0,0.0,0.0,0.0,0.0,0.0,0.0,-0.3517,-0.1403,-0.3423,0.0,0.0,0.0,0.0,0.0,0.0,0.0,-0.3054,-0.1082,-0.0517,-0.1983,-0.1814,-0.183,-0.2126,-0.2616,-0.4498,-0.7709,-1.0058,-1.3832,-1.8846,-2.109,-2.4378,-2.8599,-3.1755,-3.3922,-3.5455,-3.9061,-4.0694,-4.115,-4.412,-4.4549,-4.3513,0.0,0.0,0.0,0.0,0.0,0.0,0.0,-3.8719,-3.893,-4.1309,-4.1952,-4.195,-4.2597,-4.3623,-4.4298,-4.3103,-4.2442,-4.2546,-4.4338,-4.4849,-4.5845,-4.9322,-5.0926,-5.2956,-5.7608,-5.7562,-5.7112,-5.8386,-5.7791,-5.8084,-6.0971,-6.1248,-6.1966,-6.4499,-6.3334,-6.2549,-6.3486,-6.2943,-6.2611,-6.2892,-6.2892,-6.251,-6.1659,-6.1593,-6.1182,-6.0256,-6.0321,-6.0403,-6.0403,-6.0403,-5.9955,-5.9071,-5.9152,-5.8284,-5.648,-5.6639,-5.721,-5.8204,-5.8181,-5.8642,-5.9435,-5.8566,-5.8219,-5.8204,-5.8269,-5.8834,-5.9686,-5.9644,-6.0184,-6.0997,-6.0982,-6.1,-6.0997,0.0,0.0,0.0,0.0,0.0,0.0,0.0,0.0,-0.3846,-0.3936,-0.5391,0.0,0.0,0.0,0.0,0.0,0.0,0.0,0.1562,-0.0629,-0.0405,0.32,-0.0603,-0.3203,-0.3944,-0.8768,-0.9789,-0.6859,-1.0835,-1.5135,-1.9751,-2.4069,-2.7952,-3.1433,-3.4162,-3.6375,-3.8229,-3.9149,-4.0521,-4.219,-4.2991,-4.3458,-4.3632,0.0,0.0,0.0,0.0,0.0,0.0,0.0,0.0,0.0,-3.9632,-4.0963,-4.236,-4.0793,-4.1093,-4.1724,-4.083,-4.2006,-4.3429,-4.3054,-4.5423,-4.8224,-4.967,-5.1527,-5.3991,-5.7336,-5.7598,-5.7297,-5.7714,-5.835,-5.8861,-5.9046,-6.0169,-6.1152,-6.1729,-6.2445,-6.301,-6.3088,-6.3194,-6.3289,-6.3356,-6.2895,-6.2243,-6.1469,-6.1267,-6.0823,-6.0051,-5.9596,-5.9282,-5.9125,-5.8673,-5.8044,-5.7215,-5.7701,-5.7101,-5.5521,-5.6645,-5.7139,-5.7098,-5.7196,-5.768,-5.8448,-5.8927,-5.8781,-5.8204,-5.8226,-5.838,-5.8704,-5.9303,-5.9627,-5.9864,-6.0596,-6.0827,-6.0781,0.0,0.0,0.0,0.0,0.0,0.0,-0.0926,-0.3605,-0.5438,-0.5618,-0.7141,-0.7483,0.0,0.0,0.0,-0.3489,-0.3344,0.0,-0.0301,-0.4003,-0.4609,-0.0895,-0.6143,-0.8933,-0.8376,-1.2473,-1.3264,-1.0549,-1.5095,-1.939,-2.3541,-2.7894,-3.1435,-3.4328,-3.6447,-3.8057,-3.9362,-3.9966,-4.1113,-4.2505,-4.3171,-4.3504,-4.3515,0.0,0.0,0.0,0.0,0.0,0.0,0.0,0.0,0.0,-3.905,-4.0117,-4.146,-4.0639,-4.0844,-4.1432,-4.1832,-4.2936,-4.4192,-4.5009,-4.6979,-4.9097,-5.0627,-5.2711,-5.4796,-5.6539,-5.6997,-5.7328,-5.8206,-5.8874,-5.9328,-5.9364,-6.0116,-6.083,-6.112,-6.1349,-6.1614,-6.2051,-6.1842,-6.1657,-6.1657,-6.1315,-6.0896,-6.0475,-6.0066,-5.9618,-5.909,-5.8396,-5.7975,-5.7872,-5.7478,-5.6929,-5.6231,-5.6595,-5.6178,-5.4903,-5.5813,-5.6034,-5.5721,-5.6605,-5.7325,-5.7783,-5.808,-5.8157,-5.7889,-5.7263,-5.7378,-5.8042,-5.8591,-5.8757,-5.8847,-5.983,-5.9931,-5.9638,0.0,0.0,0.5996,0.4097,0.0,0.0,-0.2559,-0.6189,-0.8249,-0.714,-0.908,-0.992,0.0,0.0,0.0,-0.6463,-0.6067,-0.6135,-0.6982,-1.034,-1.2045,-1.1559,-1.613,-1.7522,-1.4997,-1.5477,-1.6524,-1.7943,-2.1761,-2.546,-2.8994,-3.2199,-3.4864,-3.7134,-3.8622,-3.9399,-3.9692,-4.1273,-4.2111,-4.24,-4.3896,-4.3914,-4.3135,-4.3222,0.0,0.0,0.0,0.0,0.0,0.0,0.0,0.0,-3.8988,-3.921,-3.954,-4.099,-4.1576,-4.221,-4.4272,-4.4283,-4.4576,-4.8412,-4.8767,-4.8841,-5.1581,-5.3697,-5.5133,-5.545,-5.6042,-5.7125,-5.9095,-5.9218,-5.9462,-6.0795,-6.0584,-6.0659,-6.1641,-6.0018,-5.9202,-6.0515,-5.9573,-5.8814,-5.8784,-5.8947,-5.9102,-5.9102,-5.8503,-5.8053,-5.7789,-5.708,-5.6667,-5.6626,-5.6551,-5.6281,-5.5701,-5.5701,-5.5287,-5.4533,-5.4434,-5.4334,-5.4265,-5.6279,-5.7232,-5.7377,-5.6755,-5.6928,-5.7443,-5.5846,-5.6092,-5.7444,-5.7548,-5.7652,-5.7848,-5.8731,-5.8604,-5.7953,0.0,0.0,0.4648,0.3613,0.0,0.0,-0.523,-1.0082,-1.2858,-1.1265,-1.3485,-1.4431,-1.2365,-1.2059,0.0,-1.1896,-1.2782,-1.3637,-1.4274,-1.6596,-1.8561,-1.9937,-2.1509,-2.2723,-2.3542,-2.6447,-2.7533,-2.67,-2.8109,-2.9466,-3.0798,-3.5792,-3.8287,-3.8627,-4.0982,-4.2161,-4.2359,-4.1831,-4.2114,-4.2768,-4.2247,-4.1936,-4.1724,-4.139,-4.062,0.0,0.0,0.0,0.0,0.0,0.0,0.0,-3.7017,-3.7015,-3.7061,-3.675,-3.7602,-3.8823,-3.9512,-4.1221,-4.3288,-4.532,-4.7098,-4.8517,-4.9283,-5.0933,-5.2735,-5.4409,-5.5829,-5.7021,-5.7765,-5.8547,-5.9042,-5.8829,-5.9198,-5.9246,-5.8673,-5.8794,-5.9024,-5.9212,-5.9374,-5.9542,-5.9627,-5.916,-5.8947,-5.9102,-5.8874,-5.842,-5.7672,-5.6967,-5.6107,-5.5245,-5.4764,-5.4465,-5.4315,-5.4242,-5.4093,0.0,-5.3833,-5.372,-5.3643,-5.4706,-5.5939,-5.7289,-5.7845,-5.7801,-5.7239,-5.6277,-5.5768,-5.5665,-5.6397,-5.6673,-5.6759,-5.769,-5.7881,-5.7711,0.0,0.0,0.0,0.0,0.0,0.0,0.0,0.0,-1.5235,-1.5581,-1.6475,-1.6841,-1.6145,-1.5669,0.0,0.0,-1.7571,-1.8681,-1.9157,-2.317,-2.6922,-3.0129,-2.77,-2.7362,-2.9646,-3.1303,-3.1576,-3.0317,-3.3054,-3.413,-3.3701,-3.8594,-4.0795,-4.0684,-4.2663,-4.324,-4.2664,-4.2216,-4.2026,-4.2039,-4.1973,-4.1699,-4.1342,-4.0954,-4.0328,-3.9572,-3.9158,0.0,0.0,0.0,0.0,0.0,0.0,0.0,-3.5249,-3.5152,-3.5129,-3.5562,-3.7818,-3.9512,-4.1409,-4.4814,-4.6192,-4.7011,-4.7968,-4.9094,-5.0354,-5.1424,-5.3941,-5.6237,-5.6958,-5.7831,-5.8282,-5.7847,-5.8274,-5.8505,-5.7855,-5.7969,-5.825,-5.8565,-5.8567,-5.8537,-5.863,-5.8317,-5.801,-5.7734,-5.7192,-5.6515,-5.5748,-5.5312,-5.4644,-5.3829,-5.3629,-5.3526,-5.3565,-5.308,-5.3001,-5.3326,-5.3281,-5.3382,-5.3628,-5.4353,-5.5432,-5.6812,-5.7369,-5.7363,-5.6945,-5.6116,-5.5611,-5.5466,-5.5851,-5.5844,-5.5648,-5.6586,-5.6692,-5.632,0.0,0.0,0.0,0.0,0.0,0.0,0.0,0.0,0.0,-1.9239,-1.9503,-1.9636,-2.004,-1.9712,-1.962,0.0,0.0,0.0,-2.332,-2.9025,-3.4117,-3.7972,-3.3408,-3.1788,-3.3968,-3.3611,-3.2971,-3.2045,-3.6382,-3.7864,-3.6696,-4.0359,-4.2169,-4.2381,-4.3531,-4.3401,-4.2329,-4.2068,-4.1619,-4.1157,-4.1574,-4.1539,-4.1119,-4.0551,-4.0019,-3.9508,-3.8796,-3.7747,-3.6672,-3.6491,0.0,0.0,0.0,0.0,-3.3383,-3.3891,-3.2921,-3.2586,-3.6475,-3.7957,-3.9637,-4.4522,-4.5292,-4.5183,-4.6742,-4.7626,-4.8111,-4.8181,-5.1555,-5.4818,-5.5799,-5.668,-5.7199,-5.7,-5.7441,-5.7729,-5.7531,-5.7119,-5.7097,-5.7762,-5.7293,-5.6948,-5.7,-5.7051,-5.6826,-5.6128,-5.5365,-5.4507,-5.3544,-5.3544,-5.3349,-5.2736,-5.2893,-5.3023,-5.3176,-5.2364,-5.2163,-5.2644,-5.259,-5.3053,-5.3971,-5.4473,-5.5291,-5.6354,-5.6474,-5.6593,-5.6556,-5.5696,-5.5428,-5.5555,-5.542,-5.5074,-5.4748,-5.5548,-5.542,-5.4852,0.0,0.0,0.0,0.0,0.0,0.0,0.0,0.0,0.0,0.0,-2.4225,-2.6157,-2.4999,-2.6012,-2.6644,-2.634,-2.7811,-2.8736,-2.861,0.0,0.0,-3.628,-3.6532,-3.6516,-3.6198,-3.6236,-3.5837,-3.504,-3.6556,-3.7623,-3.8223,-3.9959,-4.1388,-4.2576,-4.288,-4.3225,-4.3446,-4.0689,-4.0291,-4.1334,-3.9287,-3.9018,-3.9822,-3.8617,-3.7684,-3.6932,-3.5878,-3.4938,-3.4143,-3.3972,-3.3688,0.0,0.0,0.0,-3.0718,-2.9811,-2.98,-3.0303,-3.1565,-3.5096,-3.9145,-4.1809,-4.3106,-4.3913,-4.4719,-4.5747,-4.6602,-4.6866,-4.9743,-5.2365,-5.3078,-5.446,-5.5466,-5.5209,-5.5939,-5.6245,-5.5434,-5.5343,-5.5484,-5.5706,-5.5716,-5.5816,-5.613,-5.6039,-5.5793,-5.5466,-5.5776,-5.5062,-5.3039,-5.3742,-5.3742,-5.2788,-5.2498,-5.2557,-5.3037,-5.2378,-5.1922,-5.1565,-5.1449,-5.2386,-5.4173,-5.4237,-5.5064,-5.6483,-5.6706,-5.6467,-5.5808,-5.5278,-5.4727,-5.4237,-5.4345,-5.4415,-5.4476,-5.4716,-5.4705,-5.4661,0.0,0.0,0.0,0.0,0.0,0.0,0.0,0.0,0.0,0.0,0.0,-2.7282,-2.7698,-2.8046,-2.8174,-2.7903,-2.928,-3.0567,-3.167,-3.3551,-3.497,-3.5789,-3.6136,-3.6226,-3.6091,-3.5784,-3.5333,-3.4698,-3.5439,-3.6977,-3.9233,-3.9966,-4.1324,-4.3118,-4.3208,-4.2891,-4.2164,-3.9832,-3.9335,-4.0047,-3.8771,-3.9813,-4.1896,-3.9944,-3.9053,-3.8585,-3.639,-3.4418,-3.277,-3.2462,-3.1971,-3.1357,-3.0129,0.0,0.0,0.0,-2.6074,-2.6631,-2.9052,-3.2577,-3.6031,-3.8126,-3.9749,-4.1048,-4.1962,-4.3041,-4.3995,-4.4649,-4.6171,-4.8179,-5.0883,-5.2337,-5.3212,-5.3447,-5.4083,-5.435,-5.3713,-5.4004,-5.4259,-5.4253,-5.4537,-5.4878,-5.5179,-5.5059,-5.4804,-5.4323,-5.4279,-5.3568,-5.1885,-5.3127,-5.3344,-5.2235,-5.2678,-5.2782,-5.2555,-5.1721,-5.1175,-5.0857,-5.1279,-5.195,-5.2729,-5.3352,-5.4792,-5.6757,-5.6609,-5.6054,-5.5339,-5.4785,-5.4186,-5.3682,-5.3757,-5.3907,-5.4091,-5.43,-5.4368,-5.4401,0.0,0.0,0.0,0.0,0.0,0.0,0.0,0.0,0.0,0.0,0.0,-2.8421,-2.9358,0.0,0.0,0.0,-2.9741,-3.1038,-3.2526,-3.3533,-3.4301,-3.4874,-3.4647,-3.4802,-3.5468,-3.4751,-3.4261,-3.4117,-3.4742,-3.6653,-3.98,-4.019,-4.1583,-4.3736,-4.3612,-4.2808,-4.142,-3.9442,-3.8999,-3.9602,-3.9384,-4.1069,-4.3552,-4.2134,-4.148,-4.0921,-3.7783,-3.5172,-3.2974,-3.1782,-3.0648,-2.9553,-2.8012,-2.6712,0.0,0.0,0.0,-2.3165,-2.6529,-2.9272,-3.1837,-3.4521,-3.617,-3.7619,-3.9339,-4.0376,-4.1274,-4.2327,-4.2872,-4.4227,-4.7833,-4.9442,-5.049,-5.1119,-5.1574,-5.1855,-5.1682,-5.2265,-5.2639,-5.264,-5.3078,-5.3481,-5.3874,-5.3744,-5.3536,-5.3072,-5.2891,-5.2316,-5.1028,-5.2173,-5.2528,-5.1835,-5.2114,-5.2158,-5.1869,-5.0724,-5.0159,-5.0114,-5.0783,-5.113,-5.1222,-5.2161,-5.3711,-5.5633,-5.5353,-5.4918,-5.4411,-5.3836,-5.3412,-5.3203,-5.3281,-5.3404,-5.3678,-5.3944,-5.4017,-5.4054,0.0,0.0,0.0,0.0,0.0,0.0,0.0,0.0,0.0,0.0,0.0,-3.1736,-3.003,-3.0978,-3.125,-3.0115,-3.0427,-3.0618,-3.0469,-3.2174,-3.3037,-3.2791,-3.2813,0.0,-3.4908,-3.3915,-3.373,-3.4473,-3.5342,-3.7152,-3.9829,-4.0586,-4.2205,-4.4436,-4.3767,-4.324,-4.2614,-3.9601,-3.9451,-4.1288,-4.1253,-4.191,-4.3001,-4.4361,-4.4178,-4.2775,-3.9294,-3.7136,-3.5597,-3.2266,-2.9774,-2.7846,-2.61,-2.4835,-2.3419,0.0,0.0,0.0,-2.2988,-2.4791,-2.7002,-3.1329,-3.2726,-3.3897,-3.7117,-3.8201,-3.891,-4.0176,-4.0774,-4.1537,-4.3011,-4.5223,-4.7092,-4.7631,-4.8265,-4.8634,-4.8634,-4.9507,-5.0221,-5.0188,-5.0839,-5.1484,-5.1993,-5.1882,-5.1834,-5.1765,-5.2469,-5.2336,-5.0957,-5.0989,-5.1389,-5.2162,-5.0159,-4.9656,-5.0984,-4.9535,-4.8951,-4.9256,-4.9202,-4.9576,-5.0407,-5.0625,-5.1192,-5.2001,-5.2271,-5.2555,-5.2676,-5.2144,-5.2185,-5.2563,-5.2696,-5.2871,-5.3162,-5.3524,-5.3526,-5.3487,0.0,0.0,0.0,0.0,0.0,0.0,0.0,0.0,0.0,0.0,0.0,0.0,0.0,-3.109,-3.0739,-2.98,-2.9837,-3.0125,-3.0574,-3.1728,-3.2546,-3.2914,-3.2787,-3.3165,-3.4109,-3.3597,-3.3452,-3.3799,-3.5168,-3.7521,-4.0707,-4.1518,-4.3502,-4.6252,-4.3655,-4.2565,-4.2537,-4.003,-4.0116,-4.1928,-4.228,-4.4372,-4.7081,-4.5939,-4.5935,-4.6073,-4.2394,-3.8367,-3.4101,-2.9441,-2.703,-2.5213,-2.0657,-2.0215,-2.0969,-1.9141,-1.8885,-1.9541,-2.1145,-2.2977,-2.4913,-2.7012,-2.9437,-3.1747,-3.3341,-3.5302,-3.7105,-3.814,-3.8559,-3.8944,-4.0106,-4.2756,-4.5132,-4.5959,-4.6607,-4.7029,-4.6905,-4.7778,-4.8451,-4.8451,-4.9316,-5.0041,-5.0474,-5.0506,-5.0563,-5.0617,-5.1132,-5.0945,-4.9935,-5.0687,-5.1206,-5.1115,-5.0921,-5.0488,-4.9816,-4.8791,-4.8067,-4.7671,-4.7933,-4.8294,-4.8625,-4.9009,-4.927,-4.9443,-4.9637,-5.0528,-5.1745,-5.1317,-5.1276,-5.1565,-5.1643,-5.1874,-5.2149,-5.2263,-5.2445,-5.2615,0.0,0.0,0.0,-3.2378,0.0,-3.5172,-3.0471,-3.1113,-3.161,-3.0234,0.0,0.0,0.0,0.0,-3.0611,-3.0346,-3.088,-3.1304,-3.1475,-3.2325,-3.2998,-3.3384,-3.2968,-3.3157,-3.4141,-3.3658,-3.3539,-3.3863,-3.5539,-3.7694,-4.0321,-4.1373,-4.3303,-4.5741,-4.2795,-4.2268,-4.3483,-4.1713,-4.1639,-4.2846,-4.4322,-4.6199,-4.808,-4.8354,-4.8224,-4.7597,-4.494,-4.0683,-3.5542,-3.0516,-2.7113,-2.4189,-1.9621,-1.8639,-1.887,-1.7515,-1.7715,-1.8601,-1.9616,-2.1048,-2.2625,-2.4041,-2.6201,-2.8459,-3.0437,-3.2629,-3.4632,-3.5881,-3.6412,-3.6842,-3.7546,-3.9743,-4.1935,-4.316,-4.4086,-4.4616,-4.4691,-4.5815,-4.6659,-4.6872,-4.7812,-4.8625,-4.9004,-4.9085,-4.9247,-4.9536,-4.9884,0.0,-4.9141,-4.9573,-4.9459,-4.8391,-4.9286,-4.9061,-4.7686,-4.7205,-4.6756,-4.6237,-4.6625,-4.6831,-4.6896,-4.7339,-4.7406,-4.7272,-4.7605,-4.8714,-5.0326,-5.0126,-5.0146,-5.0369,-5.05,-5.0751,-5.1017,-5.1205,-5.1408,-5.1593,-3.6994,-3.6241,-3.5184,-3.5495,-3.5624,-3.4933,-3.2701,-3.2224,-3.1836,-3.0953,0.0,0.0,0.0,0.0,0.0,-3.198,-3.3602,-3.4101,-3.2987,-3.3897,-3.4322,-3.3997,-3.3245,-3.3547,-3.5086,-3.4149,-3.4018,-3.4793,-3.6432,-3.7634,-3.8539,-4.0077,-4.1574,-4.2843,-4.1325,-4.2492,-4.5498,-4.4402,-4.3905,-4.4152,-4.7356,-4.7206,-4.5679,-5.1555,-5.1131,-4.7301,-4.6817,-4.4197,-4.0316,-3.5688,-3.0112,-2.4872,-2.3129,-2.0313,-1.7442,-1.614,-1.6793,-1.7935,0.0,0.0,0.0,-2.2749,-2.3187,-2.4143,-2.8396,-3.017,-3.1545,-3.3405,-3.4461,-3.5133,-3.5411,-3.6055,-3.7206,-3.902,-4.0376,-4.1425,-4.2053,-4.3485,-4.4755,-4.5316,-4.6254,-4.6989,-4.7362,-4.7619,-4.7958,-4.8346,-4.8872,-4.8922,-4.8728,-4.749,-4.6004,-4.425,-4.5064,-4.5249,-4.4465,-4.4662,-4.4856,-4.5036,-4.5122,-4.53,-4.5332,-4.5551,-4.5551,-4.5405,-4.6095,-4.7137,-4.8256,-4.8576,-4.8759,-4.8991,-4.9393,-4.9629,-4.9804,-5.039,-5.0535,-5.0515,-3.6965,-3.8213,-3.8683,-3.7258,-3.7432,-3.6869,-3.4217,-3.335,-3.265,0.0,0.0,0.0,-3.0782,-3.1248,-3.2007,-3.2843,-3.339,-3.3529,-3.3128,-3.341,-3.3757,-3.4195,-3.3851,-3.4159,-3.5136,-3.4661,-3.4524,-3.4809,-3.6258,-3.7474,-3.8455,-4.0126,-4.1757,-4.3299,-4.2602,-4.3294,-4.4877,-4.2948,-4.3508,-4.578,-4.7073,-4.8607,-5.02,-5.1244,-5.1538,-5.124,-5.0129,-4.7105,-4.2704,-3.6488,-3.0318,-2.4391,-1.9182,-1.7599,-1.7788,-1.8329,-1.8452,-1.8488,-1.9029,0.0,0.0,0.0,0.0,0.0,-2.5144,-2.6845,-2.8693,-3.0928,-3.1667,-3.2367,-3.3648,-3.41,-3.4503,-3.5189,-3.7546,-3.9578,-4.0446,-4.1412,-4.2384,-4.3301,-4.4196,-4.4961,-4.5389,-4.557,-4.566,0.0,-4.6167,-4.6138,-4.5493,-4.5183,-4.4757,-4.4317,-4.4691,-4.4564,-4.3634,-4.3907,-4.3748,-4.3319,-4.3603,-4.3836,-4.4067,-4.4373,-4.4449,-4.4297,-4.4644,-4.4943,-4.5311,-4.6831,-4.7671,-4.7769,-4.777,-4.7965,-4.8189,-4.8379,-4.8568,-4.8754,-3.8944,-3.9809,-4.0106,-3.8955,-3.841,-3.7403,-3.5171,-3.4365,-3.3653,0.0,0.0,0.0,-3.1856,-3.2842,-3.3672,-3.3796,-3.4146,-3.4328,-3.427,-3.4232,-3.4381,-3.4797,-3.4699,-3.4817,-3.5239,-3.5019,-3.4908,-3.4908,-3.6346,-3.7356,-3.8018,-3.9647,-4.113,-4.236,-4.1807,-4.2335,-4.3478,-4.1646,-4.2855,-4.6111,-4.7645,-4.8997,-5.0225,-5.1537,-5.1899,-5.1674,-5.1424,-4.9072,-4.5306,-4.0241,-3.3858,-2.6844,-2.0605,-1.9315,-1.9877,-1.9495,-1.9495,-1.9707,-1.972,-1.984,-2.0197,-2.0954,0.0,0.0,-2.4302,-2.5658,-2.7122,-2.9046,-2.9974,-3.0733,-3.1636,-3.2322,-3.2865,-3.3292,-3.5115,-3.7047,-3.878,-3.9761,-4.075,-4.1721,-4.2385,-4.2971,-4.3504,-4.3593,-4.3659,-4.3693,-4.4069,-4.3863,-4.302,-4.2789,-4.2682,-4.2539,-4.2453,-4.2281,-4.1938,-4.1938,-4.1851,-4.1645,-4.1864,-4.2082,-4.2298,-4.2511,-4.2621,-4.2651,-4.2942,-4.3021,-4.313,-4.4538,-4.5425,-4.6032,-4.6064,-4.6276,-4.6555,-4.673,-4.6867,-4.7039,0.0,-4.1034,-4.0346,-4.0444,-3.7832,-3.5276,-3.4019,-3.2368,-3.0959,0.0,-3.1345,-3.2673,-3.386,-3.5118,-3.5562,-3.4822,-3.5391,-3.5763,-3.5669,-3.5637,-3.5593,-3.5496,-3.5482,-3.5412,-3.5315,-3.5299,-3.5217,-3.5051,-3.6591,-3.7338,-3.7406,-3.8954,-4.0064,-4.0654,-3.9948,-4.0486,-4.1755,-4.0773,-4.2302,-4.5627,-4.8275,-4.8735,-4.825,-5.2059,-5.2216,-5.0544,-5.1643,-5.0547,-4.7945,-4.4429,-3.8191,-3.0957,-2.4804,-2.3119,-2.2907,-2.0366,-2.0622,-2.1533,-2.0843,-2.0737,-2.1029,-2.2059,-2.1933,0.0,-2.464,-2.5466,-2.6066,-2.7525,-2.8566,-2.9284,-2.9404,-3.0468,-3.1572,-3.2087,-3.2912,-3.4342,-3.7031,-3.8313,-3.9433,-4.0174,-4.0641,-4.0923,-4.1425,-4.1416,-4.1501,-4.1817,-4.1957,-4.1692,-4.0935,-4.0323,-3.9932,-3.9645,-3.9237,-3.921,-3.9733,-3.953,-3.9678,-4.0114,-4.0114,-4.0173,-4.0346,-4.0432,-4.0518,-4.0717,-4.1113,-4.142,-4.1587,-4.1835,-4.2731,-4.4051,-4.4373,-4.4631,-4.4856,-4.5164,-4.528,-4.5384,-4.1494,-4.1652,-4.1519,-4.0929,-3.1777,-2.4436,-2.4129,-1.4837,-0.791,-0.8074,-1.5758,-2.5564,-3.7027,-3.6658,-3.5841,-3.6453,-3.6017,-3.5699,-3.5599,-3.5588,-3.5593,-3.5496,-3.5388,-3.533,-3.5315,-3.5772,-3.5609,-3.4793,-3.6986,-3.7769,-3.7228,-3.8884,-3.975,-3.9801,-3.9449,-4.0033,-4.1351,-4.1724,-4.3304,-4.562,-4.6203,-4.8371,-5.133,-5.2169,-5.2893,-5.3442,-5.3532,-5.2732,-5.0112,-4.0286,-3.5904,-3.3131,-2.4052,-2.2707,-2.4262,-2.3281,-2.3396,-2.3794,-2.3681,-2.3182,-2.2766,-2.273,-2.3071,0.0,-2.2288,-2.2839,-2.3906,-2.4977,-2.5186,-2.5696,-2.6801,-2.7988,-2.8519,-2.7789,-3.0056,-3.2795,-3.5623,-3.6259,-3.6628,-3.7267,-3.7817,-3.814,-3.8216,-3.8016,-3.7991,-3.8315,-3.7912,-3.7956,-3.8651,-3.7654,-3.7108,-3.7006,-3.7284,-3.756,-3.7861,-3.8251,-3.8612,-3.8854,-3.8854,-3.8854,-3.8944,-3.9149,-3.9149,-3.9033,-3.9326,-3.9414,-3.9502,-3.9738,-4.1085,-4.2921,-4.2812,-4.2971,-4.3319,-4.3416,-4.3494,-4.3741,-4.0383,-3.668,-3.4464,-4.0537,-3.0528,-2.3584,-2.9312,-1.4639,-0.6949,-1.8282,-2.5146,-3.1491,-3.809,-3.795,-3.7436,-3.7531,-3.7151,-3.6753,-3.6386,-3.6199,-3.5945,-3.5572,-3.5402,-3.5507,-3.5998,-3.5835,-3.5699,-3.5553,-3.7079,-3.7656,-3.7279,-3.8846,-4.0358,-4.1651,-4.001,-4.081,-4.3376,-4.2288,-4.3142,-4.5389,-4.7078,-4.9554,-5.2378,-5.3273,-5.4286,-5.5248,-5.4968,-5.4024,-5.167,-4.3227,-3.957,-3.7243,-2.9581,-2.7148,-2.6755,-2.5429,-2.4957,-2.4844,-2.4501,-2.4126,-2.3966,-2.4364,-2.3865,0.0,0.0,-2.2876,-2.3063,-2.4237,-2.4428,-2.4723,-2.582,-2.5932,-2.6021,-2.6365,-2.7826,-2.9773,-3.1915,-3.3993,-3.5313,-3.5675,-3.5776,-3.6074,-3.6642,-3.6098,-3.5723,-3.5985,-3.5408,-3.5342,-3.6154,-3.5576,-3.533,-3.5713,-3.5713,-3.5998,-3.6684,-3.6871,-3.7057,-3.7243,-3.7243,-3.715,-3.7031,-3.7031,-3.7124,-3.7217,-3.7309,-3.7586,-3.7795,-3.7952,-3.8801,-4.009,-4.0632,-4.1085,-4.142,-4.1392,-4.1392,-4.1449,-3.921,-3.1505,-2.6304,-3.7147,-2.7843,-2.1234,-2.8425,-1.5406,-1.1962,-3.2184,-3.616,-3.7583,-3.8859,-3.9494,-3.9689,-3.934,-3.8876,-3.8396,-3.7802,-3.7385,-3.6944,-3.6537,-3.6056,-3.6305,-3.741,-3.6535,-3.6249,-3.6667,-3.7547,-3.7849,-3.7695,-3.8977,-4.0956,-4.3369,-4.0965,-4.1952,-4.526,-4.3086,-4.3583,-4.6047,-4.8982,-5.0773,-5.1904,-5.3752,-5.5031,-5.5789,-5.5675,-5.4825,-5.2901,-4.752,-4.4227,-4.1425,-3.5384,-3.2042,-2.9715,-2.7043,-2.6297,-2.6084,-2.4789,-2.4647,-2.493,-2.5529,-2.4393,-2.3335,0.0,0.0,0.0,-2.377,-2.3971,-2.4157,-2.4655,-2.4074,-2.3917,-2.5259,-2.5813,-2.6514,-2.7991,-3.1083,-3.3346,-3.3668,-3.3631,-3.4009,-3.4856,-3.4078,-3.3696,-3.4094,-3.3253,-3.3085,-3.381,-3.3554,-3.3674,-3.4362,-3.4091,-3.4385,-3.5283,-3.5162,-3.5283,-3.5475,-3.5571,-3.5475,-3.5162,-3.5066,-3.5162,-3.5642,-3.5547,-3.5713,-3.6188,-3.6093,-3.6351,-3.682,-3.8315,-3.9121,-3.9448,-3.936,-3.9271,-3.9326,-3.88,-3.1274,-2.3751,-2.678,-1.6507,-0.494,0.3638,-0.101,-1.0123,-2.2839,-2.5958,-3.0935,-4.1151,-4.1886,-4.2184,-4.3559,-4.1738,-4.0409,-4.0204,-3.9507,-3.9297,-3.9845,-3.8393,-3.837,-4.0015,-3.9215,-3.8367,-3.7559,-3.9197,-3.9508,-3.8649,-3.9418,-4.0497,-4.1852,-4.2067,-4.2986,-4.4415,-4.5092,-4.6784,-4.9088,-5.0476,-5.0283,-4.9367,-5.171,-5.321,-5.419,-5.504,-5.517,-5.4027,-4.8096,-4.5529,-4.3353,-3.5586,-3.3495,-3.2956,-2.8026,-2.7965,-2.8835,-2.6127,-2.5565,-2.5452,-2.4143,-2.4648,-2.4859,-2.222,0.0,-2.3313,-2.1845,0.0,-2.1822,-2.1646,0.0,0.0,-2.232,-2.3607,-2.4743,-2.531,-2.6734,-2.8243,-2.9653,-3.0408,-3.0745,-3.0811,-3.057,-3.0673,-3.1444,-3.0542,-3.0428,-3.1758,-3.162,-3.1483,-3.1278,-3.1913,-3.242,-3.2801,-3.3201,-3.3499,-3.3499,-3.3993,-3.4091,-3.3796,-3.4091,-3.4288,-3.4581,-3.4091,-3.3993,-3.4264,-3.4044,-3.3946,-3.4216,-3.5759,-3.6887,-3.7652,-3.7376,-3.7652,-3.8122,-3.8285,-3.1176,-2.5394,-3.3111,-1.8574,-0.882,-1.7609,-2.3144,-2.5639,-2.3794,-3.0093,-3.6618,-4.1514,-4.1834,-4.2223,-4.3573,-4.3149,-4.2472,-4.1579,-4.1446,-4.1178,-4.0668,-3.9315,-3.9199,-4.0422,-3.9185,-3.8722,-3.9127,-3.9906,-3.9986,-3.9406,-4.0132,-4.1618,-4.3673,-4.3191,-4.4671,-4.7521,-4.7779,-4.8044,-4.8429,-5.0393,-5.0213,-4.9139,-5.3143,-5.4906,-5.5283,-5.5376,-5.5302,-5.4382,-4.945,-4.6635,-4.4141,-3.831,-3.494,-3.2649,-3.0225,-2.887,-2.7962,-2.6986,-2.6954,-2.6838,-2.5574,-2.5452,-2.4994,-2.2473,-2.1908,-2.1768,-2.1189,0.0,0.0,0.0,0.0,0.0,0.0,-2.1864,-2.2611,-2.2676,-2.4177,-2.6126,-2.8172,0.0,0.0,-2.8074,-2.8342,-2.8411,-2.8321,-2.7964,-2.7985,-2.8425,-2.8387,-2.8492,-2.8594,-2.9476,-3.0113,-3.0622,-3.1534,-3.1971,-3.1746,-3.2174,-3.2174,-3.1644,-3.1869,-3.2095,-3.2476,-3.2095,-3.2398,-3.3001,-3.2577,-3.2577,-3.2878,-3.2955,-3.4021,-3.5688,-3.5522,-3.5593,-3.5953,-3.8306,-3.0525,-2.5154,-3.4056,-2.1661,-1.7395,-3.794,-3.8635,-3.4918,-2.9635,-3.6691,-4.224,-4.2259,-4.2504,-4.3294,-4.4815,-4.5263,-4.5026,-4.3973,-4.3751,-4.3503,-4.3156,-4.1216,-4.0756,-4.2096,-4.0197,-3.9648,-4.0596,-4.0806,-4.0769,-4.0629,-4.0978,-4.2481,-4.4843,-4.3836,-4.5764,-4.9717,-4.9511,-4.9426,-4.962,-5.1257,-5.1491,-5.1133,-5.4406,-5.5899,-5.6132,-5.5731,-5.5413,-5.4588,-5.0824,-4.8152,0.0,-4.0995,-3.7016,-3.37,-3.2005,-2.998,-2.8123,-2.7409,-2.7499,-2.7473,-2.5898,-2.52,-2.4365,-2.2332,-2.1431,-2.1035,-2.0907,-2.0699,0.0,0.0,0.0,-1.9076,-2.0193,0.0,-2.0558,-2.0624,-2.1757,-2.3504,-2.5961,-2.6154,0.0,0.0,-2.6369,-2.6523,-2.5945,-2.6072,-2.6111,-2.5909,-2.6012,-2.6275,-2.6679,-2.7402,-2.8078,-2.847,-2.9559,-2.9953,-2.9601,-3.0265,-3.0245,-2.9807,-2.9932,-3.037,-3.0867,-3.037,-3.0764,-3.1586,-3.0845,-3.0845,-3.1278,-3.0578,-3.1359,-3.3078,-3.3476,-3.3674,-3.3843,-3.911,-2.9116,-2.0732,-2.1744,-2.2261,-2.7076,-4.0653,-3.2978,-2.9358,-3.9862,-4.2919,-4.4113,-4.4113,-4.5085,-4.6706,-4.908,-4.88,-4.8394,-4.8205,-4.6573,-4.6629,-4.8952,-4.5053,-4.4016,-4.6455,-4.3632,-4.199,-4.1656,-4.2107,-4.245,-4.2661,-4.1781,-4.2354,-4.4131,-4.384,-4.5778,-4.935,-4.9589,-5.1625,-5.4621,-5.4055,-5.4702,-5.5874,-5.4373,-5.468,-5.5882,-5.5816,0.0,0.0,-5.2194,-5.0372,0.0,0.0,0.0,0.0,-3.2909,-3.1553,-3.0866,0.0,0.0,0.0,-2.3536,0.0,0.0,0.0,-2.1551,-2.2271,-2.0805,-2.1089,-2.1423,-2.0639,-2.0097,-1.9799,-1.9923,-1.9184,0.0,0.0,-1.8904,-1.9419,-2.2054,-2.3473,-2.4143,0.0,-2.4546,-2.4792,-2.4923,-2.4908,-2.502,-2.5013,-2.524,-2.5509,-2.5575,-2.5913,-2.6231,-2.6443,-2.7176,-2.7302,-2.6902,-2.8172,-2.8688,-2.8349,-2.888,-2.9408,-2.9932,-2.9112,-2.9112,-2.9533,-2.8349,-2.8262,-2.8794,-2.8794,-2.9112,-2.9828,-3.1176,-3.1869,-3.2174,-3.7007,-3.3566,-3.1302,-3.3507,-2.8106,-2.5253,-3.0426,-3.468,-3.881,-4.3027,-4.4496,-4.5418,-4.5995,-4.6907,-4.8062,-4.949,-5.0491,-5.0777,-5.0109,-4.9401,-4.9371,-5.0275,-4.7088,-4.5992,-4.7452,-4.476,-4.3488,-4.3754,-4.3406,-4.3232,-4.3209,-4.2853,-4.3178,-4.4039,-4.5726,-4.7606,-4.9666,-5.2119,-5.323,-5.333,-5.3507,-5.464,-5.6153,-5.5389,-5.552,-5.6068,-5.5903,-5.577,0.0,-5.3531,-5.1303,-4.8776,-4.5598,-4.1364,-3.7288,-3.5209,-3.2796,0.0,0.0,0.0,-2.8829,-2.6044,0.0,0.0,0.0,0.0,0.0,-2.0886,-2.0741,-2.0641,-2.0512,-1.9799,-1.9355,-1.9604,-1.9401,-1.909,0.0,-1.7872,-1.8071,-1.9797,-2.0909,-2.1639,-2.1955,0.0,-2.2663,-2.2746,-2.275,-2.2722,-2.2604,-2.2501,-2.2448,-2.2478,-2.334,-2.3878,-2.3983,-2.5041,-2.5523,-2.5397,-2.61,-2.6282,-2.63,-2.6645,-2.7168,-2.758,-2.7168,-2.7492,-2.8368,-2.7618,-2.7618,-2.8048,-2.796,-2.8067,-2.8581,-2.9723,-3.0349,-3.0742,-3.6762,-3.7052,-3.7561,-3.8584,-3.3315,-2.9474,-3.1071,-3.8505,-4.4209,-4.4986,-4.5983,-4.6984,-4.8039,-4.8755,-4.9614,-5.0692,-5.2005,-5.2244,-5.1037,-5.1134,-5.1298,-5.1511,-4.9217,-4.8439,-4.9548,-4.6525,-4.5052,-4.5242,-4.4588,-4.4121,-4.3806,-4.3956,-4.4136,-4.4331,-4.6283,-4.8161,-5.0082,-5.3204,-5.4241,-5.3861,-5.4606,-5.5579,-5.6625,0.0,-5.6549,-5.6126,0.0,-5.668,-5.6131,-5.4989,-5.3053,-5.0634,-4.7512,-4.32,-3.888,-3.7012,-3.3958,-3.1158,-3.0636,-3.01,0.0,-2.6594,-2.579,0.0,-2.23,0.0,-2.1779,0.0,0.0,-2.0911,-2.0976,-1.9898,-1.9044,-1.9095,-1.8749,-1.8104,0.0,-1.6684,-1.6869,-1.8164,-1.8912,-1.9745,-2.0636,-2.0786,-2.0848,-2.1164,-2.1379,-2.1445,0.0,0.0,-2.1139,-2.1603,-2.2022,-2.2412,-2.2861,-2.3461,-2.3913,-2.4213,-2.4132,-2.4428,-2.4906,-2.4889,-2.5331,-2.5972,-2.5863,-2.6318,-2.7187,-2.6536,-2.6754,-2.7295,-2.6989,-2.6989,-2.7422,-2.8368,-2.888,-2.9197,-3.8422,-3.9163,-3.9077,-3.6699,-3.757,-3.9448,-4.182,-4.3714,-4.5201,-4.6076,-4.7571,-4.9032,-5.0297,-5.0835,-5.1586,-5.2785,-5.349,-5.3126,-5.1455,-5.2043,-5.2607,-5.3006,-5.1552,-5.1354,-5.2703,-4.8957,-4.6759,-4.6277,-4.5613,-4.5048,-4.4674,-4.5004,-4.5071,-4.4919,-4.5534,-4.753,-5.0615,-5.2833,-5.473,-5.6265,-5.7247,-5.7573,-5.7585,-5.8503,-5.7649,-5.6201,-5.8098,-5.8111,-5.7088,-5.6471,-5.5519,-5.3732,-4.8769,-4.5478,-4.2652,-3.7967,-3.5093,-3.2927,-3.0665,-2.9205,-2.7776,-2.5305,0.0,0.0,0.0,0.0,-2.2355,0.0,0.0,0.0,-2.1767,-2.0329,-1.9018,-1.8449,-1.7279,-1.614,-1.5274,-1.5276,-1.5836,-1.6843,-1.7265,-1.8177,-2.0085,-1.9576,-1.9429,-2.0142,-2.0508,-2.1047,-2.1473,0.0,-2.1299,-2.2536,-2.1495,-2.1542,-2.2638,-2.224,-2.2367,-2.3124,-2.2367,-2.2765,-2.4144,-2.3552,-2.3871,-2.5,-2.5,-2.5331,-2.5789,-2.5331,-2.5661,-2.6427,-2.5898,-2.5789,-2.6118,-2.6989,-2.753,-2.7853,-3.9049,-4.0254,-4.1079,-4.048,-4.0377,-4.0792,-4.2159,-4.4343,-4.6279,-4.7505,-5.0233,-5.2512,-5.3555,-5.4821,-5.5557,-5.5523,-5.6656,-5.7056,-5.6258,-5.5979,-5.6028,-5.642,-5.4828,-5.4167,-5.4664,-5.1299,-4.9378,-4.8986,-4.6368,-4.5245,-4.5568,-4.49,-4.48,-4.5175,-4.6664,-4.899,-5.1829,-5.3158,-5.5073,-5.726,-5.7931,-5.8332,-5.8598,0.0,-5.8943,-5.8148,-5.8582,-5.8566,-5.8211,-5.7212,-5.5813,-5.3796,-4.9688,-4.6244,-4.2977,-3.8574,-3.6006,-3.423,-3.2555,-3.1283,-2.9963,-2.789,-2.6613,-2.5236,0.0,0.0,0.0,0.0,0.0,0.0,0.0,0.0,-1.8855,-1.8119,-1.7287,-1.6402,-1.5519,-1.4888,-1.4851,-1.5581,-1.4977,-1.545,-1.7873,-1.7428,-1.7366,-1.8096,-1.726,-1.7399,-1.8873,0.0,0.0,-1.895,-1.9085,-1.9118,-1.9203,-1.9766,-2.0104,-2.0341,-2.033,-2.0831,-2.1631,-2.1517,-2.1729,-2.2184,-2.241,-2.2636,-2.2749,-2.3311,-2.3871,-2.4206,-2.4573,-2.4923,-2.5238,-2.6118,-2.6738,-2.7289,-3.3091,-3.2997,-3.4248,-3.5544,-3.9648,-4.2997,-4.3644,-4.5265,-4.6922,-4.839,-5.1241,-5.3506,-5.4468,-5.6244,-5.7213,-5.6884,-5.7698,-5.7735,-5.669,-5.7109,-5.7289,-5.7111,-5.6567,-5.6387,-5.6624,-5.339,-4.8394,-4.1722,-4.4662,-4.2904,-3.6883,-4.2491,-4.5067,-4.5065,-4.7164,-4.9105,-5.0914,-5.3008,-5.5331,-5.7614,-5.8182,-5.8829,0.0,-6.0277,-6.037,-6.0054,-5.9918,-5.9687,-5.9294,-5.8227,-5.704,-5.5137,-5.0562,-4.7265,-4.42,-3.9643,-3.6716,-3.4698,-3.3328,-3.1739,-3.0028,-2.8442,-2.6844,-2.5225,-2.3496,-2.2153,-2.1378,0.0,0.0,0.0,0.0,0.0,-1.7654,-1.6566,-1.5948,-1.53,-1.4751,-1.4076,-1.3837,-1.4347,-1.3659,-1.3713,-1.5443,-1.5684,-1.5949,-1.6621,-1.5667,0.0,0.0,0.0,0.0,-1.7609,-1.7698,-1.7864,-1.8112,-1.8337,-1.8735,-1.9065,-1.8558,-1.8984,-2.0127,-1.9781,-2.0012,-2.0601,-2.1159,-2.1502,-2.1616,-2.2055,-2.2507,-2.3087,-2.344,-2.3875,-2.4328,-2.4735,-2.5488,-2.6185,-2.2715,-2.1067,-2.2303,-2.4583,-3.3298,-4.0071,-4.0269,-4.4315,-4.7096,-4.642,-4.8548,-5.0496,-5.1401,-5.3311,-5.5371,-5.7414,-5.7819,-5.7225,-5.556,-5.7063,-5.7662,-5.6747,-5.7596,-5.8166,-5.8333,-5.5249,-4.7242,-3.3996,-4.1561,-3.9296,-2.8127,-3.848,-4.3905,-4.4953,-4.7319,-4.8759,-4.9698,-5.3166,-5.583,-5.7748,-5.8506,-5.9385,-6.0397,-6.1276,-6.1595,-6.1602,-6.1397,-6.0923,-6.0262,-5.9268,-5.8269,-5.6496,-5.1104,-4.7991,-4.5397,-4.0399,-3.7088,-3.4727,-3.3377,-3.128,-2.9024,-2.7702,-2.6009,-2.4343,-2.3484,-2.1793,-2.0591,-2.1366,-2.0178,-1.9254,0.0,0.0,-1.5985,-1.4798,-1.4173,-1.378,-1.3537,-1.302,-1.2836,-1.3043,-1.2598,0.0,-1.2867,-1.3897,-1.4746,-1.5197,-1.4787,0.0,0.0,0.0,0.0,-1.7054,-1.6833,-1.7114,-1.7836,0.0,-1.756,-1.826,-1.6997,-1.7337,-1.8945,-1.8493,-1.8739,-1.955,-2.0371,-2.0816,-2.1031,-2.0787,-2.1244,-2.2184,-2.2184,-2.2596,-2.3304,-2.323,-2.3792,-2.4556,-0.9964,-1.0154,-1.0563,-0.953,-1.1345,-1.2895,-1.2832,-3.473,-4.6551,-3.3388,-3.4592,-3.6763,-3.7135,-3.8162,-4.4289,-5.7971,-5.9543,-5.9502,-5.8963,-5.9473,-5.9566,-5.8974,-5.9387,-5.9384,-5.8892,-5.7073,-5.4091,-4.9889,-3.8706,-3.6658,-4.3051,-3.3761,-3.5276,-4.5836,-4.7371,-4.9688,-5.2643,-5.5725,-5.7602,-5.8711,-6.0293,-6.1091,-6.1378,-6.1595,-6.168,-6.1666,-6.1404,-6.1217,-6.0893,-5.9522,-5.7449,-5.4709,-5.043,-4.7171,-4.3937,-3.9087,-3.6557,-3.4824,-3.2778,-3.103,-2.9352,-2.7393,-2.6135,-2.4861,-2.2859,-2.093,-1.9864,-2.0635,-1.9527,-1.8314,-1.8434,0.0,0.0,-1.4418,-1.4117,-1.3901,-1.3539,-1.2689,-1.1754,-1.0919,-1.1049,-1.0909,-1.0049,-1.1879,-1.3047,-1.2953,-1.2307,0.0,0.0,0.0,0.0,0.0,-1.4516,0.0,0.0,0.0,-1.558,-1.5698,-1.6053,-1.6644,-1.7455,-1.7337,-1.7467,-1.7948,-1.8064,-1.8052,-1.7806,-1.8609,-1.9421,-2.0242,-2.0242,-2.096,-2.1934,-2.1987,-2.2199,-2.278,0.3703,0.3195,0.3127,0.4393,-0.1128,-0.5611,-0.4977,-1.8254,-2.522,-1.6536,-1.7101,-2.1762,-3.0738,-3.3287,-3.7403,-4.5023,-5.4121,-5.5622,-4.6665,-5.4615,-5.9643,-5.9545,-5.9853,-5.9754,-5.9273,-5.8069,-5.2789,-4.3317,-4.1711,-3.9337,-3.6257,-3.6258,-3.9719,-4.601,-4.8613,-5.0907,-5.3014,-5.5987,0.0,-5.8357,-5.9957,-6.0963,-6.1615,-6.1632,-6.1651,-6.1553,-6.1281,-6.11,-6.0732,-5.9343,-5.7301,-5.4635,-5.0425,-4.7035,-4.3655,-3.9024,-3.6157,-3.4071,-3.2476,-3.0593,-2.8836,-2.7148,-2.5496,-2.3878,-2.2311,-2.0315,-1.9007,-1.9256,-1.7996,-1.6587,-1.5944,-1.4418,0.0,0.0,0.0,-1.2231,-1.2879,-1.1769,-1.0602,-1.0128,-0.9884,-0.9638,-0.93,-1.0175,-1.0642,-1.0726,-1.0623,0.0,0.0,0.0,0.0,0.0,0.0,0.0,0.0,0.0,0.0,-1.3555,-1.4391,-1.4986,-1.5343,-1.5817,-1.6172,-1.6537,-1.6891,-1.6891,-1.6762,-1.7584,-1.8286,-1.8881,-1.9216,-1.9781,-2.0472,-2.0831,-2.106,-2.1531,1.7999,1.789,1.8152,1.9052,1.1013,0.4766,0.5527,0.502,0.379,0.1442,0.0617,-0.4954,-1.8425,-2.1813,-2.4304,-2.7281,-4.0132,-4.2446,-2.8941,-4.4273,-5.4075,-5.4539,-5.8182,-6.0221,-6.0244,-5.9303,-5.2308,-3.8926,-4.4659,-4.1984,-3.159,-3.8847,-4.389,-4.6948,-4.9931,0.0,0.0,0.0,-5.7333,-5.832,-5.9586,-6.0691,-6.1598,-6.1584,-6.1521,-6.1362,-6.1058,-6.0383,-5.948,-5.824,-5.6487,-5.4127,-4.9947,-4.6236,-4.2567,-3.8368,-3.5064,-3.2587,-3.1418,-2.9642,-2.7741,-2.638,-2.4557,-2.2787,-2.1609,-1.9762,-1.8075,-1.7862,-1.6404,-1.4855,-1.3581,-1.2406,0.0,0.0,0.0,0.0,-1.1757,-1.0556,-0.9632,-0.9548,-0.8934,-0.8557,-0.8628,-0.8663,-0.8549,-0.8385,-0.91,0.0,-0.9548,0.0,0.0,0.0,0.0,-1.2133,-1.1996,0.0,-1.2603,-1.2113,-1.3084,-1.3564,-1.3803,-1.452,-1.5116,-1.5472,-1.5946,-1.6183,-1.6301,-1.6773,-1.7256,-1.762,-1.8181,-1.8635,-1.91,-1.9693,-2.0026,-2.05,3.3059,3.3766,3.4571,3.6151,3.6891,3.7192,3.6957,3.855,3.4224,1.8869,1.6121,1.4932,1.3352,1.2568,0.6056,-0.9017,-1.2342,-1.2755,-1.0679,-2.7145,-3.7302,-3.8014,-5.275,-6.1545,-6.2651,-6.1688,-5.9672,-5.6635,-4.2996,-4.049,-4.8227,-3.6049,-3.7507,-5.0257,0.0,0.0,0.0,-5.6259,-5.7812,-5.9968,-6.1015,-6.1479,-6.1592,-6.1601,-6.1394,-6.1088,-6.0564,-5.8748,-5.6429,-5.5268,-5.3631,-5.145,-4.7838,-4.3289,-3.8543,-3.5185,-3.2397,-3.0202,-2.8608,-2.7454,-2.6263,-2.4429,-2.3461,-2.2461,-2.0708,-1.8892,-1.7474,-1.7154,-1.5142,-1.3344,-1.2566,-1.1208,-1.0123,0.0,0.0,0.0,0.0,-0.9353,-0.8891,-0.8049,-0.8252,-0.7898,-0.6497,-0.7229,-0.7337,-0.5955,-0.7426,0.0,0.0,0.0,0.0,-0.9699,0.0,-1.0956,-1.1388,-1.1478,-1.1631,-1.1881,-1.2483,-1.3315,-1.4152,-1.4282,-1.465,-1.5116,-1.4888,-1.4997,-1.5235,-1.5353,-1.5709,-1.6324,-1.6655,-1.7232,-1.8052,-1.8415,-1.8765,-1.914,3.8269,3.8532,3.9145,4.0789,4.1618,4.2332,4.3195,4.4196,4.2306,3.5175,3.3547,2.8991,1.8229,1.7064,1.4433,0.7633,-0.2254,-0.3768,0.6569,-1.8553,-3.4292,-3.5227,-5.1632,-6.1269,-6.2439,-6.1543,-5.5358,-4.3656,-4.6175,-4.3688,-3.6716,-4.0635,-4.6066,0.0,0.0,-5.5446,-5.6865,-5.8682,-5.9701,-6.0195,-6.1108,-6.1495,-6.1545,-6.1417,-6.077,-5.9785,-5.8981,-5.7113,-5.4709,-5.2606,-5.0287,-4.7767,-4.4739,-4.0831,-3.6554,-3.2694,-3.0364,-2.8629,-2.69,-2.5388,-2.4139,-2.3324,-2.1978,-2.0778,-2.0004,-1.8216,-1.6594,-1.6171,-1.3878,-1.1872,-1.1848,-0.9903,-0.8634,0.0,0.0,0.0,0.0,-0.751,-0.6898,-0.6926,-0.6997,-0.6608,-0.5307,-0.5809,-0.5927,-0.5039,-0.6848,0.0,0.0,0.0,0.0,-0.8913,0.0,-0.9231,-0.9738,-0.9954,-0.9937,-0.9815,-1.1027,-1.1809,-1.2403,-1.2776,-1.3444,-1.4282,-1.4172,-1.4401,-1.5116,-1.5116,-1.5472,-1.6194,-1.6667,-1.702,-1.7361,-1.796,-1.8194,-1.8466,4.1252,4.1369,4.1852,4.3215,4.3567,4.3973,4.5121,4.5373,4.5246,4.4982,4.4303,3.8964,2.6136,2.4839,2.4968,2.518,1.3978,1.2052,2.4183,-0.7336,-2.7028,-2.8137,-4.9424,-6.1844,-6.2997,-6.2201,-5.5436,-4.2555,-5.2116,-4.9849,-3.6824,-4.7716,-5.3525,0.0,-5.663,-5.7692,-5.8296,-6.0483,-6.1149,-6.0838,-6.169,-6.1829,-6.1507,-6.144,-6.0248,-5.8463,-5.7377,-5.5058,-5.2038,-4.8997,-4.5537,-4.2286,-4.1135,-3.8155,-3.4283,-3.0247,-2.8052,-2.6558,-2.4496,-2.3115,-2.197,-2.1133,-2.0188,-1.9149,-1.8459,-1.6936,-1.5576,-1.4813,-1.2388,-1.0475,-1.0565,-0.8655,-0.7084,-0.7488,0.0,0.0,0.0,-0.5804,-0.5317,-0.5753,-0.5925,-0.5595,-0.4557,-0.4775,-0.481,-0.4351,0.0,0.0,0.0,0.0,0.0,0.0,0.0,0.0,0.0,-0.8642,-0.8599,-0.8111,-0.9572,-1.0479,-1.0957,-1.1809,-1.2595,-1.3444,-1.3444,-1.3923,-1.4878,-1.4878,-1.5235,-1.5828,-1.6431,-1.6667,-1.6785,-1.7373,-1.762,-1.7774,4.3315,4.4007,4.4558,4.5248,4.6148,4.6654,4.6491,4.6268,4.6131,4.6223,4.5566,4.4753,4.3916,4.3354,4.3366,4.4138,4.2366,4.1544,4.2605,0.9266,-1.1133,0.0,0.0,-6.3759,-6.523,-6.4405,-6.4058,-6.4193,0.0,0.0,-5.8749,-5.6641,-5.6347,-5.7557,-5.7653,-5.8546,-6.0032,-6.0988,-6.1779,-6.2454,-6.3253,-6.2723,-6.1537,-6.1885,-6.0094,-5.7252,-5.6071,-5.2398,-4.7652,-4.4124,-3.9038,-3.4553,-3.7167,-3.5144,-3.1136,-2.7541,-2.5177,-2.3371,-2.111,-2.0523,-1.9905,-1.72,-1.7635,-1.8044,-1.5508,-1.5001,-1.4629,-1.3075,-1.1034,-0.9287,-0.8647,-0.7212,-0.5739,-0.431,0.0,0.0,0.0,-0.4357,-0.4635,-0.4843,-0.4997,-0.479,-0.394,-0.4428,-0.4398,-0.3716,0.0,0.0,0.0,0.0,0.0,-0.6265,-0.6935,0.0,-0.6925,-0.7632,-0.7744,-0.7373,-0.8349,-0.9323,-1.0293,-1.1631,-1.2354,-1.2724,-1.2724,-1.3324,-1.4172,-1.4172,-1.453,-1.5116,-1.5472,-1.5839,-1.6087,-1.6419,-1.6773,-1.6938,4.5258,4.5931,4.631,4.6373,4.705,4.7489,4.7135,4.7109,4.6963,4.6658,4.6596,4.6419,4.6125,4.5605,4.525,0.0,4.5288,4.4844,0.0,1.1165,-0.904,-1.1339,-4.4457,-6.3464,-6.4739,-6.4305,-5.8543,-4.7243,0.0,0.0,0.0,-5.996,-5.9837,-6.0195,-6.0026,-6.0612,-6.1712,-6.169,-6.1775,-6.1945,-6.2397,-6.1799,-6.0456,-5.9028,-5.7516,-5.569,-5.2461,-4.8624,-4.4558,-4.1202,-3.6659,-3.2301,-3.0797,-2.8834,-2.6679,-2.4448,-2.2588,-2.0983,-2.0164,-1.8888,-1.7621,-1.7008,-1.6571,-1.5964,-1.5075,-1.3527,-1.2037,-1.0819,-0.9131,-0.7843,-0.774,-0.6614,-0.5066,-0.3377,-0.3011,0.0,-0.2311,0.0,-0.1981,-0.312,-0.2558,-0.2261,-0.2654,-0.2619,0.0,0.0,0.0,0.0,0.0,0.0,0.0,0.0,-0.5291,0.0,-0.5729,-0.6094,-0.6154,-0.6031,-0.7331,-0.8652,-0.987,-1.0601,-1.1291,-1.1824,-1.1689,-1.2102,-1.2853,-1.3481,-1.3453,-1.3315,-1.4759,-1.5116,-1.4878,-1.5591,-1.5957,-1.5968,4.6814,4.7478,4.7873,4.7849,4.8213,4.8455,4.8273,4.8377,4.8297,4.7703,4.809,4.8235,4.7963,4.7759,0.0,4.6736,4.6707,4.6236,4.4693,1.8087,0.1402,-0.0555,-2.7759,-4.6425,-5.407,-5.4004,0.0,-4.8648,-5.8219,-6.2687,-6.225,-6.244,-6.2496,-6.2377,-6.1967,-6.2196,-6.2905,-6.2204,-6.1802,-6.1602,-6.2053,-6.1082,-5.9134,-5.7261,-5.5226,-5.2814,-4.8409,-4.4065,-3.9959,-3.6835,-3.2553,-2.8201,-2.5577,-2.3439,-2.1742,-2.1825,-2.055,-1.8872,-1.8267,-1.6604,-1.4952,-1.4566,-1.4025,-1.3573,-1.3518,-1.1985,-1.0225,-0.8925,-0.7612,-0.6668,-0.6588,-0.5209,-0.3541,-0.1579,-0.1574,-0.1433,-0.0775,0.0,-0.0245,-0.1545,-0.0933,0.0,0.0,-0.1233,-0.1012,0.0,0.0,0.0,0.0,0.0,0.0,-0.4448,-0.4214,0.0,-0.4529,-0.4823,-0.486,-0.4761,-0.6189,-0.7516,-0.8736,-0.946,-1.0169,-1.0753,-1.098,-1.1408,-1.2086,-1.2572,-1.2636,-1.2465,-1.3797,-1.411,-1.3913,-1.4639,-1.4997,-1.4997,4.7988,4.8687,4.9372,0.0,4.9589,0.0,4.9934,5.0114,4.9975,4.9265,5.0008,5.0279,4.961,5.0152,5.0016,4.8738,0.0,0.0,0.0,2.8308,1.7606,1.6981,-0.0081,-1.7574,-3.4792,-3.64,-4.5396,-6.2673,-6.2413,-6.2277,-6.2261,-6.3788,-6.4356,-6.4101,-6.3431,-6.3265,-6.342,-6.2529,-6.1754,-6.1129,-6.1793,-6.0224,-5.7388,-5.5924,-5.3008,-4.8979,-4.4124,-3.922,-3.4527,-3.1625,-2.7292,-2.2915,-2.163,-1.8976,-1.6808,-1.9534,-1.8768,-1.6829,-1.5534,-1.397,-1.2274,-1.0565,-1.032,-1.0697,-1.0969,-1.029,-0.8967,-0.7195,-0.6182,-0.5472,-0.4946,-0.3393,-0.1469,0.0528,0.091,0.0901,0.0774,0.0993,0.0954,0.0,0.0,0.0,0.0,-0.0338,-0.0115,0.0,0.0,0.0,0.0,0.0,-0.3375,-0.3768,-0.3712,-0.3671,-0.3401,-0.3786,-0.3817,-0.3613,-0.4901,-0.6062,-0.697,-0.7986,-0.8875,-0.9513,-1.0156,-1.0912,-1.1522,-1.1538,-1.1815,-1.2275,-1.2768,-1.2891,-1.3084,-1.3444,-1.3803,-1.4033,0.0,0.0,5.0308,5.0602,5.0781,5.0954,5.0956,5.1142,5.1537,5.202,5.246,5.2629,5.2175,5.295,5.2797,5.1046,4.9831,4.8546,4.7023,3.0194,1.9679,1.8545,0.07,-1.1007,-1.4878,-3.0007,-4.0016,-4.4501,-4.4436,-4.4528,-4.5077,-5.9359,-6.5399,-6.4256,-6.4372,-6.3225,-6.1178,-6.1691,-6.03,-5.7866,-5.8232,-5.6551,-5.3615,-5.1467,-4.8764,-4.5548,-4.1214,-3.6484,-3.1973,-2.8984,-2.4617,-2.0346,-1.9509,-1.7194,-1.5265,-1.6958,-1.5404,-1.3193,-1.37,-1.2537,-1.0836,-0.963,-0.8344,-0.7606,-0.8247,-0.6477,-0.4234,-0.2941,-0.2057,-0.1678,-0.1538,-0.1293,-0.0392,0.1446,0.3095,0.3695,0.2832,0.3258,0.3286,0.0,0.2401,0.2152,0.0933,0.1546,0.2029,0.0,0.0,0.0,0.0,-0.0,-0.1422,-0.2996,-0.2919,-0.2847,-0.2902,-0.319,-0.3618,-0.4057,-0.4583,-0.5263,-0.5852,-0.6912,-0.7524,-0.7842,-0.8459,-0.9181,-0.9888,-1.0385,-1.0538,-1.0418,-1.2028,-1.2281,-1.1872,-1.2603,-1.2955,-1.3102,5.0978,5.1342,5.161,5.1932,5.2125,5.2238,5.225,5.3102,5.3761,5.3632,5.4533,5.4886,5.4163,5.4351,5.402,5.2807,5.2032,5.0807,4.8992,3.9707,3.395,3.3126,2.2862,1.3492,0.5757,-0.5951,-1.644,-2.5549,-2.5272,-2.972,-3.8761,-4.9079,-5.7997,-6.5151,-6.1684,-5.9889,-5.9197,-5.5719,-5.3744,-5.2942,-5.3071,-5.1057,-4.7851,-4.5814,-4.2766,-3.9018,-3.5046,-3.0957,-2.6983,-2.458,-2.0781,-1.6957,-1.6296,-1.4268,-1.1995,-1.2513,-1.1461,-1.0538,-1.1329,-0.9751,-0.7636,-0.7374,-0.6672,-0.6245,-0.692,-0.5818,-0.3408,0.0521,0.157,0.1574,0.0651,0.065,0.1305,0.3025,0.3837,0.4273,0.3949,0.4105,0.4027,0.3288,0.3927,0.3799,0.2289,0.3298,0.3674,0.2765,0.2905,0.0,0.2305,0.1725,0.0494,-0.1462,-0.1618,-0.1775,-0.1802,-0.2351,-0.2905,-0.3324,-0.3457,-0.4003,-0.4705,-0.5778,-0.6423,-0.6638,-0.7626,-0.8381,-0.9045,-0.9707,-0.9716,-0.9526,-1.1158,-1.1248,-1.0686,-1.1693,-1.1955,-1.2028,5.3225,5.315,5.2943,5.3311,5.3472,5.3579,5.3597,5.5254,5.6183,5.5193,5.6504,5.7083,5.6037,5.5509,5.5037,5.4384,5.4345,5.3507,5.1329,5.093,5.0777,5.0713,4.931,4.0228,2.2352,2.0022,1.0799,-0.6026,-0.5135,-1.4695,-3.3976,-3.647,-4.668,-6.2544,-5.5825,-5.2991,-5.2839,-4.6051,-4.4323,-4.6285,-4.6109,-4.4031,-4.0874,-3.9266,-3.5736,-3.1165,-2.7775,-2.4306,-2.111,-1.9712,-1.6665,-1.347,-1.3311,-1.1206,-0.8728,-0.8184,-0.7769,-0.7759,-0.8823,-0.6694,-0.4431,-0.4711,-0.4845,-0.5248,-0.593,-0.5796,-0.3622,0.2651,0.4278,0.389,0.2244,0.2496,0.341,0.4586,0.4181,0.3841,0.4643,0.0,0.4012,0.406,0.481,0.4937,0.3825,0.4687,0.4713,0.3517,0.4033,0.406,0.3085,0.2968,0.2176,0.0501,0.0,-0.0261,-0.0529,-0.1338,-0.1887,-0.2026,-0.2022,-0.2561,-0.3645,-0.458,-0.5252,-0.5796,-0.7263,-0.8056,-0.8446,-0.8984,-0.9233,-0.9221,-1.0243,-1.0336,-0.9883,-1.0775,-1.1055,-1.1098,5.3828,5.3954,5.4105,5.4227,5.4356,5.4598,5.5029,5.6371,5.7654,5.8497,5.9273,5.9307,5.8116,5.8462,5.8041,5.626,5.7177,5.6469,5.3404,5.3364,5.3692,5.4306,5.1484,4.1424,2.3246,2.0165,1.7221,1.3996,1.5921,0.6155,-1.457,-2.6775,-3.7321,-4.6026,-4.5423,-3.9709,-3.0678,-3.223,-3.3985,-3.596,-3.5353,-3.4357,-3.3223,-3.1446,-2.7957,-2.3863,-2.2257,-1.9061,-1.5681,-1.5662,-1.3341,-1.0786,-1.2323,-1.0393,-0.75,-0.8231,-0.5953,-0.3675,-0.6195,-0.5644,-0.4171,-0.3897,-0.2823,-0.2289,-0.4179,-0.2422,0.0134,0.2148,0.4031,0.4824,0.3564,0.4429,0.5019,0.4582,0.4621,0.4933,0.5563,0.0,0.4797,0.5176,0.5298,0.5298,0.5176,0.5053,0.4933,0.507,0.4133,0.3663,0.3796,0.3371,0.2901,0.226,0.1978,0.119,-0.0134,0.0,-0.0406,-0.1233,-0.1489,-0.1897,-0.2466,-0.3246,-0.3927,-0.4655,-0.6088,-0.6857,-0.7245,-0.7802,-0.828,-0.8705,-0.9462,-0.981,-1.0019,-1.044,-1.09,-1.1277,5.6472,5.6396,5.6352,5.6558,5.666,5.6813,5.6959,5.8527,5.9749,5.9953,6.0772,6.1121,6.0402,6.0291,5.9929,5.9186,5.983,5.9668,5.8199,5.7054,5.6586,5.6948,5.4471,4.9202,4.0634,3.8136,3.7417,3.8592,3.8216,2.7588,0.752,-0.1805,-1.4877,-3.0462,-2.9808,-2.8028,-2.5432,-2.3829,-2.49,-2.7747,-2.8184,-2.6985,-2.5308,-2.6742,-2.3201,-1.7203,-1.5503,-1.3636,-1.1783,-1.0633,-0.8718,-0.6553,-0.6272,-0.4722,-0.3036,-0.2743,-0.2454,-0.2168,-0.2289,-0.215,-0.1882,-0.1748,-0.1076,-0.0539,-0.0808,0.0404,0.2018,0.3768,0.4842,0.5506,0.5202,0.6046,0.6619,0.5683,0.5906,0.0,0.0,0.5782,0.562,0.6154,0.5916,0.5671,0.5671,0.5421,0.519,0.5233,0.4646,0.4331,0.4435,0.4204,0.3875,0.3302,0.2853,0.2291,0.175,0.1077,0.0405,-0.0544,-0.0272,-0.082,-0.1787,-0.2338,-0.3036,-0.3887,-0.5378,-0.6161,-0.6509,-0.7426,-0.7951,-0.8236,-0.8811,-0.9209,-0.9404,-0.9864,-1.0323,-1.0664,5.8998,5.8616,5.8437,5.8764,5.8834,5.8897,5.9055,6.0726,6.1761,6.1335,6.2194,6.2678,6.2261,6.1812,6.1665,6.1892,6.1982,6.2085,6.226,6.0478,5.9511,5.9666,5.3498,5.1719,5.5286,4.9932,4.9998,5.5985,5.4293,4.3069,2.2876,1.9386,0.6247,-1.4417,-1.3602,-1.5031,-1.7658,-1.4095,-1.5266,-1.9816,-2.0693,-1.9709,-1.7898,-2.0527,-1.7144,-1.0947,-0.9188,-0.8198,-0.736,-0.5057,-0.3729,-0.2415,0.0426,0.0988,0.112,0.3771,0.2752,0.0813,0.1629,0.1765,0.1492,0.1357,0.1219,0.1623,0.2714,0.3253,0.3922,0.568,0.6215,0.6341,0.6455,0.7431,0.7862,0.6649,0.0,0.0,0.0,0.653,0.6485,0.7202,0.6745,0.6385,0.6385,0.5882,0.5667,0.562,0.5372,0.5202,0.5124,0.4967,0.475,0.434,0.361,0.3289,0.3234,0.2296,0.1355,0.0544,0.0822,0.0414,-0.0694,-0.1677,-0.2527,-0.3098,-0.4488,-0.5289,-0.578,-0.6706,-0.7285,-0.7651,-0.8091,-0.8519,-0.8766,-0.9226,-0.9673,-1.0111,5.9834,5.9602,5.9538,5.9576,5.9965,6.0475,6.1074,6.2358,6.3314,6.3538,6.4063,6.4144,6.337,6.341,6.348,6.354,6.3257,6.3085,6.3118,6.2656,6.2678,6.3312,4.3958,4.0139,5.4981,3.9191,3.9265,5.6431,5.7672,4.6327,2.3457,2.4411,1.7146,0.3136,0.0694,0.1541,0.4736,0.1565,-0.4021,-1.0967,-1.0531,-1.111,-1.1987,-0.9672,-0.7373,-0.5219,-0.4646,-0.3195,-0.1018,0.1018,0.0865,0.057,0.4994,0.4277,0.2839,0.9148,1.0077,0.8362,0.4878,0.5159,0.614,0.5162,0.4971,0.5077,0.5428,0.6226,0.7133,0.7269,0.7669,0.7767,0.7134,0.8223,0.8851,0.7355,0.0,0.0,0.7899,0.7593,0.7687,0.8182,0.7915,0.7717,0.7717,0.681,0.6583,0.7341,0.6152,0.5527,0.6024,0.5681,0.5583,0.5461,0.4756,0.4144,0.3633,0.3679,0.3176,0.2099,0.166,0.1672,0.1854,-0.0987,-0.2259,-0.2425,-0.3383,-0.4203,-0.5029,-0.5364,-0.6103,-0.6973,-0.6965,-0.7425,-0.8188,-0.8494,-0.9058,-0.982,6.1838,6.2082,6.2353,6.2122,6.247,6.2785,6.2947,6.3744,6.4324,6.4299,6.4497,6.4364,6.3561,6.285,6.2596,6.2885,6.2158,6.1772,6.1947,6.1473,6.0971,6.0383,5.2617,5.1089,5.6971,4.9238,4.9328,5.7907,5.5255,4.8818,3.8839,3.4692,2.7877,1.8957,1.3208,0.9899,0.8556,0.4743,0.0577,-0.3463,-0.4333,-0.4646,-0.4679,-0.5084,-0.3639,-0.1173,-0.0,0.0582,0.1163,0.291,0.348,0.4042,0.6789,0.6929,0.663,0.9341,1.0747,1.087,0.8302,0.7635,0.7404,0.6569,0.6264,0.6249,0.6148,0.6549,0.7203,0.783,0.8219,0.859,0.8611,0.948,0.9808,0.8524,0.0,0.941,0.8597,0.8563,0.8713,0.8969,0.8705,0.8458,0.8269,0.7432,0.7052,0.7417,0.6366,0.5915,0.6379,0.5813,0.5412,0.56,0.5121,0.4676,0.4141,0.3746,0.3349,0.2664,0.2252,0.1842,0.1573,-0.0,-0.1424,-0.2289,-0.2988,-0.3674,-0.4343,-0.4875,-0.5543,-0.6336,-0.6281,-0.6893,-0.7711,-0.7679,-0.827,-0.9098,6.3499,6.3834,6.4151,6.4029,6.4226,6.4406,6.4309,6.4731,6.4944,6.4704,6.4594,6.4276,6.356,6.2477,6.187,6.2106,6.1065,6.0297,5.996,5.8802,5.816,5.8068,5.811,5.8023,5.7847,5.636,5.6116,5.7239,5.335,4.9593,4.6113,4.0789,3.4456,2.7312,2.1327,1.6063,1.1219,0.7356,0.4333,0.2312,0.1444,0.1163,0.1174,-0.0581,0.0146,0.2205,0.321,0.349,0.3488,0.4799,0.5818,0.6837,0.814,0.9152,0.9735,1.0311,1.1462,1.2466,1.1462,1.0593,0.9736,0.8339,0.8173,0.8159,0.7771,0.7893,0.8398,0.9114,0.9769,1.0128,1.0358,1.085,1.0836,0.9726,1.0202,1.0417,0.972,0.9799,0.9929,1.0032,0.9602,0.9217,0.9168,0.8317,0.7923,0.8174,0.7213,0.6762,0.6983,0.6267,0.599,0.6163,0.5866,0.5454,0.5075,0.409,0.3385,0.3104,0.2553,0.1996,0.1287,0.057,-0.0427,-0.185,-0.2417,-0.3111,-0.3787,-0.4226,-0.4935,-0.5778,-0.5747,-0.6222,-0.6876,-0.6864,-0.7305,-0.8242,6.4521,6.4443,6.4548,6.4755,6.4834,6.4959,6.5139,6.5278,6.5241,6.4854,6.4502,6.4029,6.341,6.2518,6.1805,6.15,6.0259,5.8856,5.7129,5.4876,5.4727,5.7431,5.7044,5.6843,5.6921,5.7049,5.599,5.3751,5.2659,4.844,4.1235,4.1052,3.5933,2.6861,2.452,2.0412,1.5193,1.1038,0.8112,0.6372,0.6817,0.6391,0.538,0.4788,0.4643,0.4796,0.4796,0.5525,0.6551,0.7421,0.7856,0.8285,0.959,1.0743,1.1749,1.261,1.3333,1.3904,1.3904,1.4189,1.3904,1.1175,1.0928,1.1288,1.0712,1.0915,1.1475,1.1607,1.2268,1.2581,1.1976,1.2048,1.1856,1.0651,1.0885,1.1197,1.1164,1.1148,1.1247,1.1247,1.0712,1.0386,1.0393,0.9307,0.9092,0.9908,0.884,0.8138,0.7826,0.7557,0.7283,0.7283,0.7089,0.6713,0.6286,0.4715,0.3859,0.3432,0.2541,0.1979,0.1431,0.0988,0.014,-0.0842,-0.1823,-0.2664,-0.3367,-0.3414,-0.4147,-0.5155,-0.5222,-0.5392,-0.5818,-0.603,-0.6709,-0.7248,6.4883,6.4704,6.4442,6.4054,6.4438,6.4522,6.3642,6.4008,6.4092,6.3419,6.2487,6.1557,6.0702,5.8966,5.7659,5.7192,5.5505,5.3842,5.2269,5.0173,4.9626,5.1031,5.2847,5.317,5.1697,5.1887,5.0749,4.8236,4.5063,4.1472,3.7558,3.5396,3.2084,2.8011,2.6556,2.4092,2.0754,1.6861,1.3785,1.1558,1.0674,1.0187,0.9968,0.9371,0.9276,0.9639,0.9546,0.9181,0.8836,0.9568,0.9803,1.0035,1.1721,1.2991,1.3969,1.3683,1.4709,1.574,1.4571,1.501,1.5232,1.2949,1.243,1.2266,1.1736,1.1565,1.1633,1.1916,1.2021,1.2204,1.2412,1.2484,1.2296,1.1863,1.1878,1.1894,1.1578,1.1615,1.1556,1.1404,1.1087,1.0819,1.0386,0.9771,0.9502,0.9899,0.9142,0.867,0.8781,0.8086,0.7804,0.7804,0.7265,0.654,0.5782,0.5121,0.474,0.4638,0.3004,0.2422,0.243,0.0988,0.014,-0.0277,-0.166,-0.2489,-0.3044,-0.3085,-0.3685,-0.4718,-0.4453,-0.4774,-0.5383,-0.5457,-0.5747,-0.6346,6.4113,6.3693,6.3207,6.2673,6.3011,6.305,6.214,6.229,6.2216,6.1308,6.0188,5.9102,5.8118,5.6312,5.4875,5.4134,5.1968,5.0212,4.9407,4.7982,4.7355,4.7892,4.971,5.001,4.8492,4.7729,4.6103,4.3748,4.0778,3.7085,3.3046,3.2494,3.0549,2.7443,2.7369,2.6096,2.3836,2.0283,1.7458,1.5516,1.4334,1.3567,1.3067,1.277,1.2685,1.2907,1.2508,1.1972,1.1603,1.1904,1.2283,1.2801,1.3929,1.4914,1.5597,1.5311,1.6057,1.6646,1.591,1.6141,1.6458,1.5345,1.4137,1.3259,1.2904,1.2745,1.2851,1.2966,1.3496,1.3702,1.3481,1.3576,1.3543,1.3165,1.3134,1.315,1.2673,1.2562,1.2489,1.2119,1.1517,1.1178,1.1056,1.0404,1.0092,0.9906,0.9307,0.8971,0.9043,0.8403,0.8009,0.8009,0.7345,0.6794,0.6356,0.5665,0.5143,0.4774,0.3126,0.2682,0.2835,0.1532,0.0687,0.0273,-0.1091,-0.2045,-0.2592,-0.2767,-0.3355,-0.4366,-0.4132,-0.444,-0.4881,-0.4892,-0.5339,-0.5767,6.2369,6.1614,6.1017,6.0829,6.0827,6.0732,6.0415,6.0285,5.9795,5.8724,5.7596,5.6571,5.564,5.4198,5.2978,5.1939,4.9184,4.7605,4.7937,4.7252,4.6922,4.7081,4.7352,4.7291,4.6843,4.4684,4.2539,4.0427,3.9082,3.5122,2.8853,3.1652,3.0416,2.589,2.7115,2.6854,2.5254,2.2075,1.9937,1.8207,1.7497,1.6333,1.5015,1.5345,1.5197,1.4893,1.4167,1.43,1.472,1.4268,1.4868,1.5919,1.6361,1.6517,1.6683,1.7291,1.7291,1.7282,1.7409,1.7719,1.7857,1.7826,1.6211,1.4413,1.4214,1.4324,1.4566,1.4815,1.5617,1.6025,1.5059,1.5199,1.5199,1.4492,1.4642,1.4685,1.4164,1.3972,1.3587,1.2858,1.2022,1.1488,1.1865,1.122,1.0478,1.0225,0.9546,0.914,0.9151,0.859,0.8245,0.8245,0.7798,0.7472,0.7416,0.6204,0.5081,0.4147,0.3207,0.2771,0.2796,0.2319,0.1752,0.0808,-0.0269,-0.1212,-0.2291,-0.2598,-0.3164,-0.3863,-0.3961,-0.4115,-0.4512,-0.4619,-0.5057,-0.558,6.0103,5.8717,5.7909,5.8758,5.8487,5.8049,5.7658,5.7698,5.7382,5.6336,5.4697,5.331,5.2591,5.0933,4.9504,4.8623,4.5897,4.4509,4.5127,4.4561,4.4796,4.5922,4.4892,4.4382,4.4606,4.4546,4.2997,3.9932,3.8444,3.5277,3.0435,3.0801,2.9292,2.6342,2.7514,2.7094,2.5296,2.4638,2.2752,2.015,1.9295,1.8632,1.8367,1.7641,1.7708,1.816,1.8321,1.7461,1.6107,1.5511,1.586,1.6582,1.7178,1.7742,1.818,1.8341,1.8792,1.9041,1.8577,1.8915,1.9223,1.8874,1.8041,1.7049,1.6245,1.5452,1.5017,1.5265,1.5397,1.5397,1.583,1.5971,1.583,1.5406,1.5195,1.4776,1.4373,1.439,1.3924,1.2765,1.2951,1.2674,1.1233,1.0786,1.0406,1.0104,0.9597,0.9449,0.9823,0.9446,0.9049,0.8777,0.8744,0.8208,0.689,0.6314,0.5641,0.486,0.3799,0.306,0.2762,0.2333,0.2041,0.175,0.0404,-0.0943,-0.2157,-0.2325,-0.2767,-0.3492,-0.3511,-0.3843,-0.4189,-0.4456,-0.476,-0.5078,5.7841,5.6801,5.615,5.6654,5.6369,5.6029,5.6126,5.5837,5.5343,5.4313,5.289,5.1607,5.0396,4.9104,4.7735,4.6292,4.4427,4.373,4.4701,4.4369,4.4515,4.5304,4.4623,4.3856,4.3262,4.3788,4.265,3.9713,3.7934,3.5335,3.2018,3.1425,2.9911,2.7505,2.8632,2.8268,2.6691,2.6546,2.5001,2.2556,2.1502,2.082,2.0407,1.9478,1.9671,2.0285,1.9995,1.9156,1.8431,1.8319,1.8798,1.949,1.9201,1.9586,2.0135,1.9693,1.9995,2.0274,2.0003,2.012,2.0214,2.0117,1.9657,1.8746,1.7531,1.6661,1.616,1.6169,1.631,1.6368,1.6443,1.6396,1.6243,1.6294,1.6186,1.5858,1.5334,1.5316,1.4957,1.3484,1.3451,1.2967,1.1754,1.153,1.1441,1.1165,1.0541,1.0365,1.0509,0.9883,0.9365,0.9232,0.9008,0.8359,0.7416,0.6705,0.5998,0.5146,0.3925,0.3343,0.3081,0.2472,0.217,0.2154,0.0943,-0.0404,-0.1482,-0.2036,-0.2598,-0.3029,-0.3324,-0.3625,-0.4078,-0.4411,-0.4898,-0.5392,5.5505,5.4806,5.4337,5.4685,5.4369,5.4253,5.4966,5.4317,5.3396,5.2452,5.1419,5.0154,4.8396,4.7671,4.6482,4.45,4.3832,4.4,4.5047,4.496,4.4965,4.4951,4.491,4.4255,4.2791,4.2841,4.1911,3.9583,3.7688,3.551,3.3031,3.2228,3.0676,2.866,2.9409,2.8979,2.7665,2.7405,2.6225,2.4314,2.3413,2.2533,2.181,2.1048,2.1349,2.1798,2.0597,2.0296,2.0597,2.091,2.166,2.2396,2.1048,2.1349,2.1948,2.0898,2.091,2.121,2.1164,2.1026,2.0877,2.1296,2.0816,2.0016,1.8507,1.799,1.7531,1.7218,1.7662,1.7959,1.7321,1.6942,1.6797,1.7197,1.7076,1.6852,1.6277,1.637,1.5829,1.4488,1.3713,1.3153,1.2735,1.2549,1.2432,1.2321,1.1593,1.1118,1.1016,1.0304,0.9666,0.9504,0.8986,0.8525,0.8121,0.7123,0.6239,0.5486,0.4068,0.349,0.3406,0.2608,0.2294,0.2154,0.1346,0.0404,-0.0673,-0.1755,-0.2297,-0.2706,-0.301,-0.3416,-0.3811,-0.4515,-0.5186,-0.597,5.2603,5.1143,5.0768,5.3108,5.2455,5.2033,5.3434,5.2485,5.1266,5.0514,4.9023,4.7444,4.5768,4.4895,4.3866,4.2865,4.3515,4.4302,4.4634,4.4352,4.4486,4.4942,4.3796,4.3307,4.3559,4.227,4.0755,3.9299,3.8353,3.6034,3.2648,3.1226,2.9806,2.8099,2.726,2.6677,2.6093,2.6093,2.5051,2.3587,2.3722,2.3426,2.2707,2.2545,2.2694,2.2992,2.2247,2.151,2.091,2.0597,2.1048,2.166,2.1499,2.151,2.1648,2.151,2.151,2.1613,2.1402,2.1472,2.1554,2.1343,2.0955,2.0614,2.0286,1.9927,1.926,1.8635,1.8752,1.8913,1.8821,1.8519,1.8153,1.7673,1.7111,1.6749,1.6451,1.6323,1.5838,1.4762,1.3989,1.376,1.3874,1.292,1.235,1.233,1.1657,1.1074,1.0907,1.1067,1.0601,0.9509,0.9995,0.9506,0.8017,0.767,0.706,0.6451,0.5066,0.3942,0.2904,0.275,0.2588,0.2155,0.2019,0.1212,-0.0269,-0.1637,-0.2193,-0.2332,-0.2745,-0.3178,-0.3632,-0.469,-0.5476,-0.5829,5.1359,5.0639,5.0449,5.1636,5.1482,5.1512,5.2457,5.1789,5.0733,4.9621,4.8594,4.7142,4.4886,4.3275,4.2714,4.3315,4.3183,4.3688,4.5187,4.4836,4.473,4.4792,4.3692,4.3044,4.2925,4.2038,4.0884,3.943,3.8374,3.6749,3.4452,3.2351,3.0676,2.9393,2.8691,2.784,2.7114,2.7245,2.6517,2.5051,2.4757,2.4018,2.3154,2.2843,2.2992,2.3005,2.2707,2.2558,2.2408,2.2097,2.2545,2.3141,2.2247,2.2247,2.2545,2.181,2.181,2.1936,2.168,2.1727,2.1936,2.1668,2.1496,2.1437,2.1149,2.1137,2.0897,1.9782,1.9503,1.9424,1.9122,1.8725,1.829,1.794,1.7204,1.6552,1.6314,1.6111,1.5838,1.5351,1.4745,1.45,1.507,1.4198,1.356,1.3641,1.2688,1.1978,1.1551,1.0862,1.0423,0.9954,0.9789,0.9325,0.8277,0.792,0.7302,0.6582,0.5446,0.4482,0.355,0.3057,0.2593,0.2155,0.2155,0.1616,0.0539,-0.0948,-0.1631,-0.1632,-0.2329,-0.3062,-0.3971,-0.467,-0.5155,-0.5538]}]]